[[{"header":{"parameterUnit":"m.s-1","parameterCategory":1,"la1":31.0,"la2":29.5877,"lo1":-88.7671,"lo2":-86.6584,"dy":0.0162,"dx":0.0185,"nx":115,"ny":88,"refTime":"2026-04-30T12:00:00:Z","depth":0,"parameterNumber":2,"parameterNumberName":"U-component_of_WINDS"},"data":[0.0,0.0,0.0,0.0,0.0,0.0,0.0,0.0,0.0,0.0,0.0,0.0,0.0,0.0,0.0,0.0,0.0,0.0,0.0,0.0,0.0,0.0,0.0,0.0,0.0,0.0,0.0,0.0,0.0,0.0,0.0,0.0,0.0,0.0,0.0,0.0,0.0,0.0,0.0,0.0,0.0,0.0,0.0,0.0,0.0,0.0,0.0,0.0,0.0,0.0,0.0,0.0,0.0,0.0,0.0,0.0,0.0,0.0,0.0,0.0,0.0,0.0,0.0,0.0,0.0,0.0,0.0,0.0,0.0,0.0,0.0,0.0,0.0,0.0,0.0,0.0,0.0,0.0,0.0,0.0,0.0,0.0,0.0,0.0,0.0,0.0,0.0,0.0,0.0,0.0,0.0,0.0,0.0,0.0,0.0,0.0,0.0,0.0,0.0,0.0,0.0,0.0,0.0,0.0,0.0,0.0,0.0,0.0,0.0,0.0,0.0,0.0,0.0,0.0,0.0,0.0,0.0,0.0,0.0,0.0,0.0,0.0,0.0,0.0,0.0,0.0,0.0,0.0,0.0,0.0,0.0,0.0,0.0,0.0,0.0,0.0,0.0,0.0,0.0,0.0,0.0,0.0,0.0,0.0,0.0,0.0,0.0,0.0,0.0,0.0,0.0,0.0,0.0,0.0,0.0,0.0,0.0,0.0,0.0,0.0,0.0,0.0,0.0,0.0,0.0,0.0,0.0,0.0,0.0,0.0,0.0,0.0,0.0,0.0,0.0,0.0,0.0,0.0,0.0,0.0,0.0,0.0,0.0,0.0,0.0,0.0,0.0,0.0,0.0,0.0,0.0,0.0,0.0,0.0,0.0,0.0,0.0,0.0,0.0,0.0,0.0,0.0,0.0,0.0,0.0,0.0,0.0,0.0,0.0,0.0,0.0,0.0,0.0,0.0,0.0,0.0,0.0,0.0,0.0,0.0,0.0,0.0,0.0,0.0,0.0,0.0,0.0,0.0,0.0,0.0,0.0,0.0,0.0,0.0,0.0,0.0,0.0,0.0,0.0,0.0,0.0,0.0,0.0,0.0,0.0,0.0,0.0,0.0,0.0,0.0,0.0,0.0,0.0,0.0,0.0,0.0,0.0,0.0,0.0,0.0,0.0,0.0,0.0,0.0,0.0,0.0,0.0,0.0,0.0,0.0,0.0,0.0,0.0,0.0,0.0,0.0,0.0,0.0,0.0,0.0,0.0,0.0,0.0,0.0,0.0,0.0,0.0,0.0,0.0,0.0,0.0,0.0,0.0,0.0,0.0,0.0,0.0,0.0,0.0,0.0,0.0,0.0,0.0,0.0,0.0,0.0,0.0,0.0,0.0,0.0,0.0,0.0,0.0,0.0,0.0,0.0,0.0,0.0,0.0,0.0,0.0,0.0,0.0,0.0,0.0,0.0,0.0,0.0,0.0,0.0,0.0,0.0,0.0,0.0,0.0,0.0,0.0,0.0,0.0,0.0,0.0,0.0,0.0,0.0,0.0,0.0,0.0,0.0,0.0,0.0,0.0,0.0,0.0,0.0,0.0,0.0,0.0,0.0,0.0,0.0,0.0,0.0,0.0,0.0,0.0,0.0,0.0,0.0,0.0,0.0,0.0,0.0,0.0,0.0,0.0,0.0,0.0,0.0,0.0,0.0,0.0,0.0,0.0,0.0,0.0,0.0,0.0,0.0,0.0,0.0,0.0,0.0,0.0,0.0,0.0,0.0,0.0,0.0,0.0,0.0,0.0,0.0,0.0,0.0,0.0,0.0,0.0,0.0,0.0,0.0,0.0,0.0,0.0,0.0,0.0,0.0,0.0,0.0,0.0,0.0,0.0,0.0,0.0,0.0,0.0,0.0,0.0,0.0,0.0,0.0,0.0,0.0,0.0,0.0,0.0,0.0,0.0,0.0,0.0,0.0,0.0,0.0,0.0,0.0,0.0,0.0,0.0,0.0,0.0,0.0,0.0,0.0,0.0,0.0,0.0,0.0,0.0,0.0,0.0,0.0,0.0,0.0,0.0,0.0,0.0,0.0,0.0,0.0,0.0,0.0,0.0,0.0,0.0,0.0,0.0,0.0,0.0,0.0,0.0,0.0,0.0,0.0,0.0,0.0,0.0,0.0,0.0,0.0,0.0,0.0,0.0,0.0,0.0,0.0,0.0,0.0,0.0,0.0,0.0,0.0,0.0,0.0,0.0,0.0,0.0,0.0,0.0,0.0,0.0,0.0,0.0,0.0,0.0,0.0,0.0,0.0,0.0,0.0,0.0,0.0,0.0,0.0,0.0,0.0,0.0,0.0,0.0,0.0,0.0,0.0,0.0,0.0,0.0,0.0,0.0,0.0,0.0,0.0,0.0,0.0,0.0,0.0,0.0,0.0,0.0,0.0,0.0,0.0,0.0,0.0,0.0,0.0,0.0,0.0,0.0,0.0,0.0,0.0,0.0,0.0,0.0,0.0,0.0,0.0,0.0,0.0,0.0,0.0,0.0,0.0,0.0,0.0,0.0,0.0,0.0,0.0,0.0,0.0,0.0,0.0,0.0,0.0,0.0,0.0,0.0,0.0,0.0,0.0,0.0,0.0,0.0,0.0,0.0,0.0,0.0,0.0,0.0,0.0,0.0,0.0,0.0,0.0,0.0,0.0,0.0,0.0,0.0,0.0,0.0,0.0,0.0,0.0,0.0,0.0,0.0,0.0,0.0,0.0,0.0,0.0,0.0,0.0,0.0,0.0,0.0,0.0,0.0,0.0,0.0,0.0,0.0,0.0,0.0,0.0,0.0,0.0,0.0,0.0,0.0,0.0,0.0,0.0,0.0,0.0,0.0,0.0,0.0,0.0,0.0,0.0,0.0,0.0,0.0,0.0,0.0,0.0,0.0,0.0,0.0,0.0,0.0,0.0,0.0,0.0,0.0,0.0,0.0,0.0,0.0,0.0,0.0,0.0,0.0,0.0,0.0,0.0,0.0,0.0,0.0,0.0,0.0,0.0,0.0,0.0,0.0,0.0,0.0,0.0,0.0,0.0,0.0,0.0,0.0,0.0,0.0,0.0,0.0,0.0,0.0,0.0,0.0,0.0,0.0,0.0,0.0,0.0,0.0,0.0,0.0,0.0,0.0,0.0,0.0,0.0,0.0,0.0,0.0,0.0,0.0,0.0,0.0,0.0,0.0,0.0,0.0,0.0,0.0,0.0,0.0,0.0,0.0,0.0,0.0,0.0,0.0,0.0,0.0,0.0,0.0,0.0,0.0,0.0,0.0,0.0,0.0,0.0,0.0,0.0,0.0,0.0,0.0,0.0,0.0,0.0,0.0,0.0,0.0,0.0,0.0,0.0,0.0,0.0,0.0,0.0,0.0,0.0,0.0,0.0,0.0,0.0,0.0,0.0,0.0,0.0,0.0,0.0,0.0,0.0,0.0,0.0,0.0,0.0,0.0,0.0,0.0,0.0,0.0,0.0,0.0,0.0,0.0,0.0,0.0,0.0,0.0,0.0,0.0,0.0,0.0,0.0,0.0,0.0,0.0,0.0,0.0,0.0,0.0,0.0,0.0,0.0,0.0,0.0,0.0,0.0,0.0,0.0,0.0,0.0,0.0,0.0,0.0,0.0,0.0,0.0,0.0,0.0,0.0,0.0,0.0,0.0,0.0,0.0,0.0,0.0,0.0,0.0,0.0,0.0,0.0,0.0,0.0,0.0,0.0,0.0,0.0,0.0,0.0,0.0,0.0,0.0,0.0,0.0,0.0,0.0,0.0,0.0,0.0,0.0,0.0,0.0,0.0,0.0,0.0,0.0,0.0,0.0,0.0,0.0,0.0,0.0,0.0,0.0,0.0,0.0,0.0,0.0,0.0,0.0,0.0,0.0,0.0,0.0,0.0,0.0,0.0,0.0,0.0,0.0,0.0,0.0,0.0,0.0,0.0,0.0,0.0,0.0,0.0,0.0,0.0,0.0,0.0,0.0,0.0,0.0,0.0,0.0,0.0,0.0,0.0,0.0,0.0,0.0,0.0,0.0,0.0,0.0,0.0,0.0,0.0,0.0,0.0,0.0,0.0,0.0,0.0,0.0,0.0,0.0,0.0,0.0,0.0,0.0,0.0,0.0,0.0,0.0,0.0,0.0,0.0,0.0,0.0,0.0,0.0,0.0,0.0,0.0,0.0,0.0,0.0,0.0,0.0,0.0,0.0,0.0,0.0,0.0,0.0,0.0,0.0,0.0,0.0,0.0,0.0,0.0,0.0,0.0,1.3353,0.0,0.0,0.0,0.0,0.0,0.0,0.0,0.0,0.0,0.0,0.0,0.0,0.0,0.0,0.0,0.0,0.0,0.0,0.0,0.0,0.0,0.0,0.0,0.0,0.0,0.0,0.0,0.0,0.0,0.0,0.0,0.0,0.0,0.0,0.0,0.0,0.0,0.0,0.0,0.0,0.0,0.0,0.0,0.0,0.0,0.0,0.0,0.0,0.0,0.0,0.0,0.0,0.0,0.0,0.0,0.0,0.0,0.0,0.0,0.0,0.0,0.0,0.0,0.0,0.0,0.0,0.0,0.0,0.0,0.0,0.0,0.0,0.0,0.0,0.0,0.0,0.0,0.0,0.0,0.0,0.0,0.0,0.0,0.0,0.0,0.0,0.0,0.0,0.0,0.0,0.0,0.0,0.0,0.0,0.0,0.0,0.0,0.0,0.0,0.0,0.0,0.0,0.0,0.0,0.0,0.0,0.0,0.0,0.0,0.0,1.4488,1.4488,1.4488,1.4334,1.3985,0.0,0.0,0.0,0.0,0.0,0.0,0.0,0.0,0.0,0.0,0.0,0.0,0.0,0.0,0.0,0.0,0.0,0.0,0.0,0.0,0.0,0.0,0.0,0.0,0.0,0.0,0.0,0.0,0.0,0.0,0.0,0.0,0.0,0.0,0.0,0.0,0.0,0.0,0.0,0.0,0.0,0.0,0.0,0.0,0.0,0.0,0.0,0.0,0.0,0.0,0.0,0.0,0.0,0.0,0.0,0.0,0.0,0.0,0.0,0.0,0.0,0.0,0.0,0.0,0.0,0.0,0.0,0.0,0.0,0.0,0.0,0.0,0.0,0.0,0.0,0.0,0.0,0.0,0.0,0.0,0.0,0.0,0.0,0.0,0.0,0.0,0.0,0.0,0.0,0.0,0.0,0.0,0.0,0.0,0.0,0.0,0.0,0.0,0.0,0.0,0.0,0.0,0.0,0.0,0.0,0.0,0.0,0.0,0.0,0.0,0.0,0.0,1.505,1.4958,1.4793,0.0,0.0,0.0,0.0,0.0,0.0,0.0,0.0,0.0,0.0,0.0,0.0,0.0,0.0,0.0,0.0,0.0,0.0,0.0,0.0,0.0,0.0,0.0,0.0,0.0,0.0,0.0,0.0,0.0,0.0,0.0,0.0,0.0,0.0,0.0,0.0,0.0,0.0,0.0,0.0,0.0,0.0,0.0,0.0,0.0,0.0,0.0,0.0,0.0,0.0,0.0,0.0,0.0,0.0,0.0,0.0,0.0,0.0,0.0,0.0,0.0,0.0,0.0,0.0,0.0,0.0,0.0,0.0,0.0,0.0,0.0,0.0,0.0,0.0,0.0,0.0,0.0,0.0,0.0,0.0,0.0,0.0,0.0,0.0,0.0,0.0,0.0,0.0,0.0,0.0,0.0,0.0,0.0,0.0,0.0,0.0,0.0,0.0,0.0,0.0,0.0,0.0,0.0,0.0,0.0,0.0,0.0,0.0,0.0,0.0,1.5203,1.6633,1.667,0.0,1.5655,0.0,0.0,0.0,0.0,0.0,0.0,0.0,0.0,0.0,0.0,0.0,0.0,0.0,0.0,0.0,0.0,0.0,0.0,0.0,0.0,0.0,0.0,0.0,0.0,0.0,0.0,0.0,0.0,0.0,0.0,0.0,0.0,0.0,0.0,0.0,0.0,0.0,0.0,0.0,0.0,0.0,0.0,0.0,0.0,0.0,0.0,0.0,0.0,0.0,0.0,0.0,0.0,0.0,0.0,0.0,0.0,0.0,0.0,0.0,0.0,0.0,0.0,0.0,0.0,0.0,0.0,0.0,0.0,0.0,0.0,0.0,0.0,0.0,0.0,0.0,0.0,0.0,0.0,0.0,0.0,0.0,0.0,0.0,0.0,0.0,0.0,0.0,0.0,0.0,0.0,0.0,0.0,0.0,0.0,0.0,0.0,0.0,0.0,0.0,0.0,0.0,0.0,0.0,0.0,0.0,0.0,0.0,0.0,0.0,0.0,0.0,1.689,1.6431,1.6041,0.0,0.0,0.0,0.0,0.0,0.0,0.0,0.0,0.0,0.0,0.0,0.0,0.0,0.0,0.0,0.0,0.0,0.0,0.0,0.0,0.0,0.0,0.0,0.0,0.0,0.0,0.0,0.0,0.0,0.0,0.0,0.0,0.0,0.0,0.0,0.0,0.0,0.0,0.0,0.0,0.0,0.0,0.0,0.0,0.0,0.0,0.0,0.0,0.0,0.0,0.0,0.0,0.0,0.0,0.0,0.0,0.0,0.0,0.0,0.0,0.0,0.0,0.0,0.0,0.0,0.0,0.0,0.0,0.0,0.0,0.0,0.0,0.0,0.0,0.0,0.0,0.0,0.0,0.0,0.0,0.0,0.0,0.0,0.0,0.0,0.0,0.0,0.0,0.0,0.0,0.0,0.0,0.0,0.0,0.0,0.0,0.0,0.0,0.0,0.0,0.0,0.0,0.0,0.0,0.0,0.0,0.0,0.0,0.0,0.0,1.6542,0.0,1.7202,1.6867,1.6156,1.5014,0.0,0.0,0.0,0.0,0.0,0.0,0.0,0.0,0.0,0.0,0.0,0.0,0.0,0.0,0.0,0.0,0.0,0.0,0.0,0.0,0.0,0.0,0.0,0.0,0.0,0.0,0.0,0.0,0.0,0.0,0.0,0.0,0.0,0.0,0.0,0.0,0.0,0.0,0.0,0.0,0.0,0.0,0.0,0.0,0.0,0.0,0.0,0.0,0.0,0.0,0.0,0.0,0.0,0.0,0.0,0.0,0.0,0.0,0.0,0.0,0.0,0.0,0.0,0.0,0.0,0.0,0.0,0.0,0.0,0.0,0.0,0.0,0.0,0.0,0.0,0.0,0.0,0.0,0.0,0.0,0.0,0.0,0.0,0.0,0.0,0.0,0.0,0.0,0.0,0.0,0.0,0.0,0.0,0.0,0.0,0.0,0.0,0.0,0.0,0.0,0.0,0.0,0.0,0.0,0.0,0.0,0.0,0.0,0.0,1.7605,1.7275,1.8064,1.872,1.728,0.0,0.0,0.0,0.0,0.0,0.0,0.0,0.0,0.0,0.0,0.0,0.0,0.0,0.0,0.0,0.0,0.0,0.0,0.0,0.0,0.0,0.0,0.0,0.0,0.0,0.0,0.0,0.0,0.0,0.0,0.0,0.0,0.0,0.0,0.0,0.0,0.0,0.0,0.0,0.0,0.0,0.0,0.0,0.0,0.0,0.0,0.0,0.0,0.0,0.0,0.0,0.0,0.0,0.0,0.0,0.0,0.0,0.0,0.0,0.0,0.0,0.0,0.0,0.0,0.0,0.0,0.0,0.0,0.0,0.0,0.0,0.0,0.0,0.0,0.0,0.0,0.0,0.0,0.0,0.0,0.0,0.0,0.0,0.0,0.0,0.0,0.0,0.0,0.0,0.0,0.0,0.0,0.0,0.0,0.0,0.0,0.0,0.0,0.0,0.0,0.0,0.0,0.0,0.0,0.0,0.0,0.0,0.0,0.0,1.6151,1.6068,1.727,1.9741,1.689,1.5166,0.0,0.0,0.0,0.0,0.0,0.0,0.0,0.0,0.0,0.0,0.0,0.0,0.0,0.0,0.0,0.0,0.0,0.0,0.0,0.0,0.0,0.0,0.0,0.0,0.0,0.0,0.0,0.0,0.0,0.0,0.0,0.0,0.0,0.0,0.0,0.0,0.0,0.0,0.0,0.0,0.0,0.0,0.0,0.0,0.0,0.0,0.0,0.0,0.0,0.0,0.0,0.0,0.0,0.0,0.0,0.0,0.0,0.0,0.0,0.0,0.0,0.0,0.0,0.0,0.0,0.0,0.0,0.0,0.0,0.0,0.0,0.0,0.0,0.0,0.0,0.0,0.0,0.0,0.0,0.0,0.0,0.0,0.0,0.0,0.0,0.0,0.0,0.0,0.0,0.0,0.0,0.0,0.0,0.0,0.0,0.0,0.0,0.0,0.0,0.0,0.0,0.0,0.0,0.0,0.0,0.0,0.0,0.0,0.0,1.5896,0.0,1.7966,0.0,1.6205,1.4257,0.0,0.0,0.0,0.0,0.0,0.0,0.0,0.0,0.0,0.0,0.0,0.0,0.0,0.0,0.0,0.0,0.0,0.0,0.0,0.0,0.0,0.0,0.0,0.0,0.0,0.0,0.0,0.0,0.0,0.0,0.0,0.0,0.0,0.0,0.0,0.0,0.0,0.0,0.0,0.0,0.0,0.0,0.0,0.0,0.0,0.0,0.0,0.0,0.0,0.0,0.0,0.0,0.0,0.0,0.0,0.0,0.0,0.0,0.0,0.0,0.0,0.0,0.0,0.0,0.0,0.0,0.0,0.0,0.0,0.0,0.0,0.0,0.0,0.0,0.0,0.0,0.0,0.0,0.0,0.0,0.0,0.0,0.0,0.0,0.0,0.0,0.0,0.0,0.0,0.0,0.0,0.0,0.0,0.0,0.0,0.0,0.0,0.0,0.0,0.0,0.0,0.0,0.0,0.0,0.0,0.0,0.0,0.0,1.5919,1.8663,1.9881,1.9107,1.6516,1.6922,1.4768,0.0,0.0,0.0,0.0,0.0,0.0,0.0,0.0,0.0,0.0,0.0,0.0,0.0,0.0,0.0,0.0,0.0,0.0,0.0,0.0,0.0,0.0,0.0,0.0,0.0,0.0,0.0,0.0,0.0,0.0,0.0,0.0,0.0,0.0,0.0,0.0,0.0,0.0,0.0,0.0,0.0,0.0,0.0,0.0,0.0,0.0,0.0,0.0,0.0,0.0,0.0,0.0,0.0,0.0,0.0,0.0,0.0,0.0,0.0,0.0,0.0,0.0,0.0,0.0,0.0,0.0,0.0,0.0,0.0,0.0,0.0,0.0,0.0,0.0,0.0,0.0,0.0,0.0,0.0,0.0,0.0,0.0,0.0,0.0,0.0,0.0,0.0,0.0,0.0,0.0,0.0,0.0,0.0,0.0,0.0,0.0,0.0,0.0,0.0,0.0,0.0,0.0,0.0,0.0,0.0,0.0,0.0,0.0,0.0,1.6355,1.6501,1.7199,1.8246,1.5213,1.3515,0.0,0.0,0.0,0.0,0.0,0.0,0.0,0.0,0.0,0.0,0.0,0.0,0.0,0.0,0.0,0.0,0.0,0.0,0.0,0.0,0.0,0.0,0.0,0.0,0.0,0.0,0.0,0.0,0.0,0.0,0.0,0.0,0.0,0.0,0.0,0.0,0.0,0.0,0.0,0.0,0.0,0.0,0.0,0.0,0.0,0.0,0.0,0.0,0.0,0.0,0.0,0.0,0.0,0.0,0.0,0.0,0.0,0.0,0.0,0.0,0.0,0.0,0.0,0.0,0.0,0.0,0.0,0.0,0.0,0.0,0.0,0.0,0.0,0.0,0.0,0.0,0.0,0.0,0.0,0.0,0.0,0.0,0.0,0.0,0.0,0.0,0.0,0.0,0.0,0.0,0.0,0.0,0.0,0.0,0.0,0.0,0.0,0.0,0.0,0.0,0.0,0.0,0.0,0.0,0.0,0.0,0.0,0.0,0.0,1.633,1.6788,1.7536,1.8526,1.507,1.3508,1.4132,0.0,0.0,0.0,0.0,0.0,0.0,0.0,0.0,0.0,0.0,0.0,0.0,0.0,0.0,0.0,0.0,0.0,0.0,0.0,0.0,0.0,0.0,0.0,0.0,0.0,0.0,0.0,0.0,0.0,0.0,0.0,0.0,0.0,0.0,0.0,0.0,0.0,0.0,0.0,0.0,0.0,0.0,0.0,0.0,0.0,0.0,0.0,0.0,0.0,0.0,0.0,0.0,0.0,0.0,0.0,0.0,0.0,0.0,0.0,0.0,0.0,0.0,0.0,0.0,0.0,0.0,0.0,0.0,0.0,0.0,0.0,0.0,0.0,0.0,0.0,0.0,0.0,0.0,0.0,0.0,0.0,0.0,0.0,0.0,0.0,0.0,0.0,0.0,0.0,0.0,0.0,0.0,0.0,0.0,0.0,0.0,0.0,0.0,0.0,0.0,0.0,0.0,0.0,0.0,0.0,0.0,0.0,0.0,1.8145,2.0004,1.9801,1.7542,1.6313,1.4609,0.0,0.0,0.0,0.0,0.0,0.0,0.0,0.0,0.0,0.0,0.0,0.0,0.0,0.0,0.0,0.0,0.0,0.0,0.0,0.0,0.0,0.0,0.0,0.0,0.0,0.0,0.0,0.0,0.0,0.0,0.0,0.0,0.0,0.0,0.0,0.0,0.0,0.0,0.0,0.0,0.0,0.0,0.0,0.0,0.0,0.0,0.0,0.0,0.0,0.0,0.0,0.0,0.0,0.0,0.0,0.0,0.0,0.0,0.0,0.0,0.0,0.0,0.0,0.0,0.0,0.0,0.0,0.0,0.0,0.0,0.0,0.0,0.0,0.0,0.0,0.0,0.0,0.0,0.0,0.0,0.0,0.0,0.0,0.0,0.0,0.0,0.0,0.0,0.0,0.0,0.0,0.0,0.0,0.0,0.0,0.0,0.0,0.0,0.0,0.0,0.0,0.0,0.0,0.0,0.0,0.0,0.0,0.0,0.0,1.8869,1.9947,2.0335,1.9961,1.7393,1.5722,0.0,0.0,0.0,0.0,0.0,0.0,0.0,0.0,0.0,0.0,0.0,0.0,0.0,0.0,0.0,0.0,0.0,0.0,0.0,0.0,0.0,0.0,0.0,0.0,0.0,0.0,0.0,0.0,0.0,0.0,0.0,0.0,0.0,0.0,0.0,0.0,0.0,0.0,0.0,0.0,0.0,0.0,0.0,0.0,0.0,0.0,0.0,0.0,0.0,0.0,0.0,0.0,0.0,0.0,0.0,0.0,0.0,0.0,0.0,0.0,0.0,0.0,0.0,0.0,0.0,0.0,0.0,0.0,0.0,0.0,0.0,0.0,0.0,0.0,0.0,0.0,0.0,0.0,0.0,0.0,0.0,0.0,0.0,0.0,0.0,0.0,0.0,0.0,0.0,0.0,0.0,0.0,0.0,0.0,0.0,0.0,0.0,0.0,0.0,0.0,0.0,0.0,0.0,0.0,0.0,0.0,0.0,0.0,1.7593,1.9782,1.9989,2.04,2.1108,1.85,1.6698,0.0,0.0,0.0,0.0,0.0,0.0,0.0,0.0,0.0,0.0,0.0,0.0,0.0,0.0,0.0,0.0,0.0,0.0,0.0,0.0,0.0,0.0,0.0,0.0,0.0,0.0,0.0,0.0,0.0,0.0,0.0,0.0,0.0,0.0,0.0,0.0,0.0,0.0,0.0,0.0,0.0,0.0,0.0,0.0,0.0,0.0,0.0,0.0,0.0,0.0,0.0,0.0,0.0,0.0,0.0,0.0,0.0,0.0,0.0,0.0,0.0,0.0,0.0,0.0,0.0,0.0,0.0,0.0,0.0,0.0,0.0,0.0,0.0,0.0,0.0,0.0,0.0,0.0,0.0,0.0,0.0,0.0,0.0,0.0,0.0,0.0,0.0,0.0,0.0,0.0,0.0,0.0,0.0,0.0,0.0,0.0,0.0,0.0,0.0,0.0,0.0,0.0,0.0,0.0,0.0,0.0,0.0,0.0,1.8303,2.0632,2.007,2.0258,2.1245,1.946,1.7479,0.0,0.0,0.0,0.0,0.0,0.0,0.0,0.0,0.0,0.0,0.0,0.0,0.0,0.0,0.0,0.0,0.0,0.0,0.0,0.0,0.0,0.0,0.0,0.0,0.0,0.0,0.0,0.0,0.0,0.0,0.0,0.0,0.0,0.0,0.0,0.0,0.0,0.0,0.0,0.0,0.0,0.0,0.0,0.0,0.0,0.0,0.0,0.0,0.0,0.0,0.0,0.0,0.0,0.0,0.0,0.0,0.0,0.0,0.0,0.0,0.0,0.0,0.0,0.0,0.0,0.0,0.0,0.0,0.0,0.0,0.0,0.0,0.0,0.0,0.0,0.0,0.0,0.0,0.0,0.0,0.0,0.0,0.0,0.0,0.0,0.0,0.0,0.0,0.0,0.0,0.0,0.0,0.0,0.0,0.0,0.0,0.0,0.0,0.0,0.0,0.0,0.0,0.0,0.0,0.0,0.0,0.0,0.0,1.8572,2.0617,2.0365,2.065,2.1566,1.9667,1.7867,0.0,0.0,0.0,0.0,0.0,0.0,0.0,0.0,0.0,0.0,0.0,0.0,0.0,0.0,0.0,0.0,0.0,0.0,0.0,0.0,0.0,0.0,0.0,0.0,0.0,0.0,0.0,0.0,0.0,0.0,0.0,0.0,0.0,0.0,0.0,0.0,0.0,0.0,0.0,0.0,0.0,0.0,0.0,0.0,0.0,0.0,0.0,0.0,0.9735,0.0,0.0,0.0,0.0,0.0,0.0,0.0,0.0,0.0,0.0,0.0,0.0,0.0,0.0,0.0,0.0,0.0,0.0,0.0,0.0,0.0,0.0,0.0,0.0,0.0,0.0,0.0,0.0,0.0,0.0,0.0,0.0,0.0,0.0,0.0,0.0,0.0,0.0,0.0,0.0,0.0,0.0,0.0,0.0,0.0,0.0,0.0,0.0,0.0,0.0,0.0,0.0,0.0,0.0,0.0,0.0,0.0,0.0,0.0,1.9316,2.0647,2.0555,2.0743,2.1141,1.9649,1.7878,0.0,0.0,0.0,0.0,0.0,0.0,0.0,0.0,0.0,0.0,0.0,0.0,0.0,0.0,0.0,0.0,0.0,0.0,0.0,0.0,0.0,0.0,0.0,0.0,0.0,0.0,0.0,0.0,0.0,0.0,0.0,0.0,0.0,0.0,0.0,0.0,0.0,0.0,0.0,0.0,0.0,0.0,0.0,0.0,0.0,0.0,0.0,0.0,0.0,0.0,0.0,0.0,0.0,0.0,0.0,0.0,0.0,0.0,0.0,0.0,0.0,0.0,0.0,0.0,0.0,0.0,0.0,0.0,0.0,0.0,0.0,0.0,0.0,0.0,0.0,0.0,0.0,0.0,0.0,0.0,0.0,0.0,0.0,0.0,0.0,0.0,0.0,0.0,0.0,0.0,0.0,0.0,0.0,0.0,0.0,0.0,0.0,0.0,0.0,0.0,0.0,0.0,0.0,0.0,0.0,0.0,0.0,1.8007,1.9804,2.0563,2.0463,2.0425,2.0433,1.9353,1.7641,1.5205,0.0,0.0,0.0,0.0,0.0,0.0,0.0,0.0,0.0,0.0,0.0,0.0,0.0,0.0,0.0,0.0,0.0,0.0,0.0,0.0,0.0,0.0,0.0,0.0,0.0,0.0,0.0,0.0,0.0,0.0,0.0,0.0,0.0,0.0,0.0,0.0,0.0,0.0,0.9353,1.0128,0.0,0.0,0.0,0.0,0.0,0.0,0.0,0.0,1.0301,0.0,0.0,0.0,0.0,0.0,0.0,0.0,0.0,0.0,0.0,0.0,0.0,0.0,0.0,0.0,0.0,0.0,0.0,0.0,0.0,0.0,0.0,0.0,0.0,0.0,0.0,0.0,0.0,0.0,0.0,0.0,0.0,0.0,0.0,0.0,0.0,0.0,0.0,0.0,0.0,0.0,0.0,0.0,0.0,0.0,0.0,0.0,0.0,0.0,0.0,0.0,0.0,0.0,0.0,0.0,0.0,1.7174,1.7835,1.8743,1.9962,1.9482,1.9265,1.9318,1.8623,1.6959,1.4368,0.0,0.0,0.0,0.0,0.0,0.0,0.0,0.0,0.0,0.0,0.0,0.0,0.0,0.0,0.0,0.0,0.0,0.0,0.0,0.0,0.0,0.0,0.0,0.0,0.0,0.0,0.0,0.0,0.0,0.0,0.0,0.0,0.0,0.0,0.0,0.0,0.0,0.0,0.0,1.1694,1.234,0.0,0.0,0.0,0.0,0.0,0.0,0.0,0.0,1.104,0.0,0.0,0.0,0.0,0.0,0.0,0.0,0.0,0.0,0.0,0.0,0.0,0.0,0.0,0.0,0.0,0.0,0.0,0.0,0.0,0.0,0.0,0.0,0.0,0.0,0.0,0.0,0.0,0.0,0.0,0.0,0.0,0.0,0.0,0.0,0.0,0.0,0.0,0.0,0.0,0.0,0.0,0.0,0.0,0.0,0.0,0.0,0.0,0.0,0.0,0.0,0.0,0.0,0.0,0.0,1.6252,1.774,1.8641,1.8962,1.9015,1.8852,1.856,1.7456,1.5928,0.0,0.0,0.0,0.0,0.0,0.0,0.0,0.0,0.0,0.0,0.0,0.0,0.0,0.0,0.0,0.0,0.0,0.0,0.0,0.0,0.0,0.0,0.0,0.0,0.0,0.0,0.0,0.0,0.0,0.0,0.0,0.0,0.0,0.0,0.0,0.0,0.0,0.0,0.0,0.0,1.2707,1.3378,1.336,0.0,0.0,0.0,0.0,0.0,0.0,1.1645,1.1318,0.0,0.0,0.0,0.0,0.0,0.0,0.0,0.0,0.0,0.0,0.0,0.0,0.0,0.0,0.0,0.0,0.0,0.0,0.0,0.0,0.0,0.0,0.0,0.0,0.0,0.0,0.0,0.0,0.0,0.0,0.0,0.0,0.0,0.0,0.0,0.0,0.0,0.0,0.0,0.0,0.0,0.0,0.0,0.0,0.0,0.0,0.0,0.0,0.0,0.0,0.0,0.0,0.0,0.0,0.0,1.4918,1.7311,1.8344,1.7988,1.8495,1.8439,1.7801,1.6532,1.5207,0.0,0.0,0.0,0.0,0.0,0.0,0.0,0.0,0.0,0.0,0.0,0.0,0.0,0.0,0.0,0.0,0.0,0.0,0.0,0.0,0.0,0.0,0.0,0.0,0.0,0.0,0.0,0.0,0.0,0.0,0.0,0.0,0.0,0.0,0.0,0.0,0.0,0.0,0.0,0.0,0.0,1.4697,1.4302,1.4247,0.0,0.0,0.0,0.0,1.343,1.2813,0.0,0.0,0.0,0.0,0.0,0.0,0.0,0.0,0.0,0.0,0.0,0.0,0.0,0.0,0.0,0.0,0.0,0.0,0.0,0.0,0.0,0.0,0.0,0.0,0.0,0.0,0.0,0.0,0.0,0.0,0.0,0.0,0.0,0.0,0.0,0.0,0.0,0.0,0.0,0.0,0.0,0.0,0.0,0.0,0.0,0.0,0.0,0.0,0.0,0.0,0.0,0.0,0.0,0.0,0.0,0.0,1.4505,1.5838,1.6836,1.734,1.7532,1.7308,1.6693,1.6511,1.5421,0.0,0.0,0.0,0.0,0.0,0.0,0.0,0.0,0.0,0.0,0.0,0.0,0.0,0.0,0.0,0.0,0.0,0.0,0.0,0.0,0.0,0.0,0.0,0.0,0.0,0.0,0.0,0.0,0.0,0.0,0.0,0.0,0.0,0.0,0.0,0.0,0.0,0.0,0.0,0.0,0.0,1.7023,1.5674,1.4987,1.4782,0.0,0.0,1.4493,1.4374,1.5161,0.0,0.0,0.0,0.0,0.0,0.0,0.0,0.0,0.0,0.0,0.0,0.0,0.0,0.0,0.0,0.0,0.0,0.0,0.0,0.0,0.0,0.0,0.0,0.0,0.0,0.0,0.0,0.0,0.0,0.0,0.0,0.0,0.0,0.0,0.0,0.0,0.0,0.0,0.0,0.0,0.0,0.0,0.0,0.0,0.0,0.0,0.0,0.0,0.0,0.0,0.0,0.0,0.0,0.0,0.0,1.2438,1.4032,1.5569,1.6497,1.6837,1.6891,1.6934,1.6964,1.5754,1.4524,0.0,0.0,0.0,0.0,0.0,0.0,0.0,0.0,0.0,0.0,0.0,0.0,0.0,0.0,0.0,0.0,0.0,0.0,0.0,0.0,0.0,0.0,0.0,0.0,0.0,0.0,0.0,0.0,0.0,0.0,0.0,0.0,0.0,0.0,0.0,0.0,0.0,0.0,0.0,0.0,0.0,0.0,1.7017,1.6948,0.0,0.0,0.0,1.6379,1.6289,0.0,0.0,0.0,0.0,0.0,0.0,0.0,0.0,0.0,0.0,0.0,0.0,0.0,0.0,0.0,0.0,0.0,0.0,0.0,0.0,0.0,0.0,0.0,0.0,0.0,0.0,0.0,0.0,0.0,0.0,0.0,0.0,0.0,0.0,0.0,0.0,0.0,0.0,0.0,0.0,0.0,0.0,0.0,0.0,0.0,0.0,0.0,0.0,0.0,0.0,0.0,0.0,0.0,0.0,0.0,0.0,0.0,1.3594,1.5511,1.6534,1.6522,1.665,1.6909,1.7244,1.5621,0.0,0.0,0.0,0.0,0.0,0.0,0.0,0.0,0.0,0.0,0.0,0.0,0.0,0.0,0.0,0.0,0.0,0.0,0.0,0.0,0.0,0.0,0.0,0.0,0.0,0.0,0.0,0.6419,0.0,0.0,0.0,0.0,0.0,0.0,0.0,0.0,0.0,0.0,0.0,0.0,0.0,0.0,1.7535,1.8124,1.8493,1.8535,0.0,0.0,1.796,1.7937,1.724,1.6081,0.0,0.0,0.0,0.0,0.0,0.0,0.0,0.0,0.0,0.0,0.0,0.0,0.0,0.0,0.0,0.0,0.0,0.0,0.0,0.0,0.0,0.0,0.0,0.0,0.0,0.0,0.0,0.0,0.0,0.0,0.0,0.0,0.0,0.0,0.0,0.0,0.0,0.0,0.0,0.0,0.0,0.0,0.0,0.0,0.0,0.0,0.0,0.0,0.0,0.0,0.0,0.0,0.0,0.0,0.0,1.3257,1.5404,1.6522,1.6522,1.6993,1.7271,1.7299,1.6679,1.5568,0.0,0.0,0.0,0.0,0.0,0.0,0.0,0.0,0.0,0.0,0.0,0.0,0.0,0.0,0.0,0.0,0.0,0.0,0.0,0.0,0.0,0.0,0.0,0.0,0.0,0.0,0.0,0.0,0.0,0.0,0.0,0.0,0.0,0.0,0.0,0.0,0.0,0.0,0.0,0.0,0.0,1.8541,1.8707,1.8879,1.9203,0.0,0.0,1.8972,1.8902,1.9529,1.871,1.4745,0.0,0.0,0.0,0.0,0.0,0.0,0.0,0.0,0.0,0.0,0.0,0.0,0.0,0.0,0.0,0.0,0.0,0.0,0.0,0.0,0.0,0.0,0.0,0.0,0.0,0.0,0.0,0.0,0.0,0.0,0.0,0.0,0.0,0.0,0.0,0.0,0.0,0.0,0.0,0.0,0.0,0.0,0.0,0.0,0.0,0.0,0.0,0.0,0.0,0.0,0.0,0.0,0.0,1.2191,1.321,1.5364,1.668,1.7005,1.7188,1.7463,1.7787,1.6598,1.5054,0.0,0.0,0.0,0.0,0.0,0.0,0.0,0.0,0.0,0.0,0.0,0.0,0.0,0.0,0.0,0.0,0.0,0.0,0.0,0.0,0.0,0.0,0.0,0.0,0.0,0.0,0.0,0.0,0.6339,0.6416,0.697,0.0,0.0,0.0,0.0,0.0,0.0,0.0,0.0,0.0,0.0,1.8393,1.9494,1.9743,0.0,0.0,2.0003,1.9858,1.9857,1.9282,1.8109,1.5927,1.4957,0.0,0.0,0.0,0.0,0.0,0.0,0.0,0.0,0.0,0.0,0.0,0.0,0.0,0.0,0.0,0.0,0.0,0.0,0.0,0.0,0.0,0.0,0.0,0.0,0.0,0.0,0.0,0.0,0.0,0.0,0.0,0.0,0.0,0.0,0.0,0.0,0.0,0.0,0.0,0.0,0.0,0.0,0.0,0.0,0.0,0.0,0.0,0.0,0.0,0.0,0.0,0.0,1.2128,1.3198,1.5364,1.6582,1.6786,1.6967,1.6974,1.6849,1.5636,1.4002,0.0,0.0,0.0,0.0,0.0,0.0,0.0,0.0,0.0,0.0,0.0,0.0,0.0,0.0,0.0,0.0,0.0,0.0,0.0,0.0,0.0,0.0,0.0,0.0,0.0,0.0,0.0,0.0,0.6768,0.6701,0.7153,0.0,0.0,0.0,0.0,0.0,0.0,0.0,0.0,0.0,0.0,1.8542,2.005,2.0296,2.0295,2.0324,2.0323,2.0324,2.0386,1.9394,1.8213,1.7098,0.0,0.0,0.0,0.0,0.0,0.0,0.0,0.0,0.0,0.0,0.0,0.0,0.0,0.0,0.0,0.0,0.0,0.0,0.0,0.0,0.0,0.0,0.0,0.0,0.0,0.0,0.0,0.0,0.0,0.0,1.3177,0.0,0.0,0.0,0.0,0.0,0.0,0.0,0.0,0.0,0.0,0.0,0.0,0.0,0.0,0.0,0.0,0.0,0.0,0.0,0.0,0.0,0.0,1.2109,1.321,1.5271,1.6182,1.5664,1.6133,1.5642,1.4155,1.3788,1.2524,1.021,0.0,0.0,0.0,0.0,0.0,0.0,0.0,0.0,0.0,0.0,0.0,0.0,0.0,0.0,0.0,0.0,0.0,0.0,0.0,0.0,0.0,0.0,0.0,0.0,0.0,0.0,0.7459,0.7197,0.7006,0.0,0.0,0.0,0.0,0.0,0.0,0.0,0.0,0.0,0.0,1.7744,1.925,2.0245,2.0352,2.0329,2.0386,2.0338,2.033,2.039,2.0262,1.9689,0.0,0.0,0.0,0.0,0.0,0.0,0.0,0.0,0.0,0.0,0.0,0.0,0.0,0.0,0.0,0.0,0.0,0.0,0.0,0.0,0.0,0.0,0.0,0.0,0.0,0.0,0.0,1.41,1.3841,0.0,0.0,0.0,0.0,0.0,0.0,0.0,0.0,0.0,0.0,0.0,1.9332,2.0696,0.0,0.0,0.0,0.0,0.0,0.0,0.0,0.0,0.0,0.0,0.0,0.0,1.1238,1.202,1.3303,1.3836,1.3468,1.363,1.3184,1.2132,1.1656,1.0293,0.7772,0.0,0.0,0.0,0.0,0.0,0.0,0.0,0.0,0.0,0.0,0.0,0.0,0.0,0.0,0.0,0.0,0.0,0.0,0.0,0.0,0.0,0.0,0.0,0.0,0.0,0.7334,0.0,0.0,0.0,0.0,0.0,0.0,0.0,0.0,0.0,0.0,0.0,1.4926,1.6941,1.8294,1.9426,2.0279,2.0391,2.0389,0.0,0.0,0.0,0.0,0.0,0.0,0.0,0.0,0.0,0.0,0.0,0.0,0.0,0.0,1.6343,1.355,1.261,1.2218,1.2059,0.0,0.0,0.0,0.0,0.0,0.0,0.0,0.0,0.0,0.0,0.0,0.0,0.0,0.0,1.5296,0.0,1.4426,0.0,0.0,0.0,0.0,0.0,0.0,0.0,0.0,2.0514,2.1378,2.1179,2.2599,2.3815,0.0,2.2551,1.9815,0.0,0.0,0.0,0.0,0.0,0.0,0.0,0.0,0.9154,0.9738,1.0672,1.0985,1.0657,1.0634,1.0195,0.9329,0.8733,0.7618,0.5902,0.5099,0.4327,0.0,0.0,0.0,0.0,0.0,0.0,0.0,0.0,0.0,0.0,0.0,0.0,0.0,0.0,0.0,0.0,0.0,0.0,0.0,0.0,0.0,0.0,0.0,0.7303,0.0,0.0,0.0,0.0,0.0,0.0,0.0,0.0,0.0,1.2936,1.4512,1.6372,1.8351,1.92,1.9909,2.0739,0.0,0.0,0.0,0.0,0.0,0.0,0.0,1.9427,1.977,1.8875,1.7961,1.7527,1.8267,1.8441,1.7103,0.0,0.0,1.5205,1.4289,1.3913,1.3763,1.4118,1.438,1.4147,1.454,1.4891,0.0,0.0,0.0,0.0,0.0,0.0,0.0,0.0,1.6447,1.6458,0.0,1.558,0.0,0.0,0.0,0.0,0.0,1.9408,0.0,0.0,2.2756,2.3374,2.3339,2.4796,2.5326,2.5016,2.5446,2.3891,2.0541,1.6806,0.0,0.0,0.0,0.0,0.0,0.0,0.5786,0.6321,0.7381,0.7735,0.7149,0.713,0.6753,0.5864,0.5085,0.464,0.4512,0.4035,0.3403,0.2534,0.2605,0.0,0.0,0.0,0.0,0.0,0.0,0.0,0.0,0.0,0.0,0.0,0.0,0.0,0.0,0.0,0.0,0.0,0.0,0.0,0.0,0.708,0.0,0.0,0.0,0.0,0.0,0.0,0.0,0.0,0.0,0.0,1.5114,1.6481,1.8198,2.0142,0.0,0.0,0.0,0.0,2.1709,2.1639,2.2288,2.2777,2.2761,2.2565,2.2402,2.2418,0.0,0.0,1.9007,1.927,1.9094,1.681,1.7899,1.898,1.8764,1.7292,1.6267,1.617,1.6046,1.5882,1.5619,1.5983,1.6306,1.7348,0.0,0.0,0.0,0.0,1.9261,1.956,1.9484,1.8692,1.7787,1.6825,1.6433,0.0,0.0,0.0,0.0,0.0,0.0,2.2237,2.2858,2.4237,2.4628,2.4182,2.576,2.7119,2.8205,2.6165,2.2752,1.8115,1.352,1.034,0.8388,0.0,0.0,0.0,0.0,-0.0624,0.0741,0.1847,0.2351,0.2135,0.3125,0.3821,0.411,0.3581,0.3163,0.2886,0.2068,0.126,0.0482,0.0507,0.0,0.0,0.0,0.0,0.0,0.0,0.0,0.0,0.0,0.0,0.0,0.0,0.0,0.0,0.0,0.0,0.0,0.0,0.0,0.6891,0.708,0.7324,0.0,0.0,0.0,0.0,0.0,0.0,0.0,0.0,0.0,1.8665,1.9134,2.0095,0.0,0.0,2.2375,2.2536,2.2602,2.2602,2.2537,0.0,0.0,0.0,2.2132,2.182,2.2096,2.1999,2.1657,2.0976,2.0559,2.007,1.9332,1.9337,1.9432,1.9295,1.818,1.7169,1.7037,1.7314,1.7463,1.7182,1.7521,1.784,1.9162,1.7582,1.8333,1.8765,1.9097,1.9613,1.9794,1.9637,1.9046,1.8417,1.7845,1.7773,1.7643,1.7488,1.8479,0.0,0.0,0.0,2.3562,2.4526,2.5401,2.5791,2.5906,2.6842,2.5692,2.2863,2.1464,1.7522,1.1293,0.4994,0.0591,-0.1944,0.0,0.0,-0.5401,-0.6367,-0.6056,-0.4513,-0.3321,-0.2569,-0.2157,-0.0207,0.1226,0.2068,0.205,0.1778,0.1397,0.0574,-0.0267,-0.0921,-0.0909,-0.0818,0.0,0.0,0.0,0.0,0.0,0.0,0.0,0.0,0.0,0.0,0.0,-0.087,0.0,0.0,0.0,0.0,0.414,0.4829,0.4658,0.5323,0.0,0.0,0.0,0.0,0.0,0.0,0.0,1.5545,1.7504,1.9419,2.1142,2.1643,2.2244,2.3328,2.3253,2.319,2.3398,0.0,2.3448,2.3381,2.3602,2.3756,2.3684,2.3193,2.2852,2.2967,2.2582,2.2299,2.2244,2.1379,2.0657,2.0557,2.0115,1.9675,1.9675,1.8941,1.8308,1.8241,1.846,1.8548,1.8158,1.8341,1.8489,2.0477,1.902,1.8035,1.8041,1.8829,1.8951,1.9,1.8907,1.8267,1.8582,1.9474,1.9248,1.9925,2.123,2.2044,0.0,2.351,2.3881,2.4906,2.641,2.5767,2.631,2.7822,2.6491,2.0893,1.1573,1.2702,0.9254,0.1595,-0.632,-1.1711,-1.4314,-1.0793,-0.864,-0.8193,-1.0521,-1.0981,-0.9477,-0.8262,-0.6991,-0.5575,-0.2971,-0.108,-0.005,0.0407,0.0458,0.005,-0.0648,-0.1324,-0.185,-0.1767,-0.15,-0.1028,0.0,0.0,0.0,0.0,0.0,0.0,0.0,0.0,0.0,0.0,0.0,0.0,0.0,0.0,0.0,0.1254,0.0,0.0732,0.1945,0.0,0.0,0.0,0.8329,1.0173,1.334,1.5955,1.7397,0.0,0.0,2.2805,0.0,2.4293,2.4356,2.3757,2.3524,2.4199,2.4296,2.4284,2.4216,2.4812,2.5274,2.5091,2.4927,2.4663,2.4372,2.3711,2.3125,2.2978,2.1861,2.0976,2.0908,2.027,1.9752,1.9763,1.9582,1.9587,1.9476,1.9387,1.9143,1.8663,1.8569,1.845,1.9844,1.7768,1.7467,1.8441,2.0217,2.0873,2.0609,1.9677,1.9488,1.8843,1.7995,1.9119,2.0897,2.3001,2.3638,2.4981,2.6803,2.6714,2.7417,2.8233,2.168,2.1876,2.7176,1.5049,0.6952,0.313,0.2553,-0.0832,-0.6917,-1.144,-1.6239,-2.0991,-2.0776,-1.9599,-1.7817,-1.8019,-1.7064,-1.4911,-1.3225,-1.0665,-0.7323,-0.5296,-0.3547,-0.1963,-0.1402,-0.1214,-0.1345,-0.1944,-0.2486,-0.29,-0.2811,-0.2494,-0.191,-0.1432,0.0,0.0,0.0,0.0,0.0,0.0,0.0,0.0,0.0,-0.1715,-0.0599,0.0,-0.0422,0.0,-0.3476,-0.4143,-0.3852,-0.4065,0.0,0.0,-0.0349,0.2603,0.5579,1.0521,1.4832,1.7783,2.0078,2.2076,2.3685,2.3863,2.4132,2.485,2.4943,2.4976,2.5091,2.5117,2.5091,2.5014,2.5149,2.5313,2.5264,2.5056,2.4771,2.4545,2.4155,2.3914,2.3914,2.2612,2.1582,2.1467,2.0365,1.9534,1.9438,1.9394,1.9365,1.9365,1.9335,1.9164,1.8698,1.8585,1.845,1.542,1.2719,1.313,1.348,1.4018,1.8386,2.0053,1.9666,1.9799,1.9369,1.8572,2.0098,2.1758,2.3487,2.3815,2.2431,1.9804,1.9607,1.7981,1.4929,1.0214,1.1389,1.7023,0.6549,-0.3362,-1.2158,-0.8657,-1.0003,-1.5834,-1.8894,-2.2061,-2.5313,-2.5391,-2.4463,-2.2632,-2.1919,-2.0534,-1.8418,-1.6081,-1.3236,-1.0025,-0.8603,-0.689,-0.4842,-0.4583,-0.4112,-0.3366,-0.3979,-0.4126,-0.3735,-0.3558,-0.3088,-0.225,-0.1625,-0.1014,0.0,0.0,0.0,0.0,0.0,0.0,0.0,0.0,0.0,0.0,0.0,-0.2939,-0.6158,-0.7474,-0.8255,-0.8617,-0.8405,-0.7904,-0.6999,-0.4267,-0.1343,0.1541,0.6281,1.0807,1.464,1.7205,1.9541,2.1721,2.2519,2.3202,2.4171,2.4393,2.4667,2.5168,2.5264,2.5256,2.5182,2.5163,2.5141,2.5091,2.4842,2.4623,2.4512,2.4321,2.419,2.4171,2.318,2.2227,2.1804,2.0721,1.9714,1.9381,1.9286,1.9286,1.9271,1.9212,1.9033,1.8661,1.8526,1.829,0.8887,0.582,0.6407,0.5524,0.4382,1.188,1.633,1.8543,1.9222,1.9312,1.9168,1.9737,2.0178,2.0551,2.0182,1.5591,0.8005,0.7929,0.4201,-0.2304,-0.331,-0.0961,0.3855,-0.1431,-1.2447,-2.7446,-1.9645,-1.8596,-2.4178,-2.6384,-2.7494,-2.762,-2.6827,-2.5774,-2.4496,-2.3691,-2.2414,-2.0598,-1.78,-1.5385,-1.338,-1.2401,-1.0719,-0.831,-0.828,-0.7562,-0.5907,-0.6319,-0.6036,-0.4767,-0.4456,-0.3806,-0.267,-0.1915,-0.1142,0.0,0.0447,0.0,0.0,0.0,0.0,0.0,0.0,0.0,0.0,-0.2769,-0.6167,-1.017,-1.1026,-1.1955,-1.3447,-1.2482,-1.1343,-1.0126,-0.7723,-0.5186,-0.2593,0.1287,0.5499,0.9957,1.2856,1.559,1.8129,2.0166,2.1742,2.2089,2.246,2.2973,2.4099,2.4624,2.4883,2.4905,2.4911,2.4834,2.467,2.4505,2.4336,2.4283,2.4135,2.4074,2.4036,2.3355,2.259,2.1844,2.095,2.0111,1.9421,1.9259,1.9209,1.9227,1.9033,1.8825,1.8623,1.8408,1.8103,0.2478,-0.0165,-0.2371,-0.3004,-0.2574,-0.2388,0.3971,1.4359,1.6352,1.6385,1.4738,1.1019,0.8217,0.613,0.3717,0.1549,-0.0248,-0.0367,-0.056,-0.1133,-0.8508,-0.7085,0.033,-1.4497,-2.4462,-2.9072,-2.7196,-2.6924,-2.835,-2.854,-2.841,-2.7913,-2.6952,-2.5975,-2.5011,0.0,0.0,0.0,-1.9923,-1.8484,-1.7253,-1.5914,-1.4197,-1.2185,-1.1621,0.0,-0.9105,-0.8686,-0.8122,-0.7385,-0.6543,0.0,0.0,0.0,0.0,0.0,0.0,0.0,0.0,0.0,0.0,0.0,0.2431,0.0982,-0.0833,-0.496,-0.8502,-1.0877,-1.4289,-1.6927,-1.8175,-1.9566,-2.0104,-1.9361,-1.6143,-1.2556,-0.8802,-0.3754,0.1448,0.6535,1.0524,1.3127,1.3894,1.7117,1.8955,1.816,1.9184,2.0202,2.0615,2.2561,2.4077,2.4353,2.4351,2.434,2.4173,2.3874,2.3593,2.3494,2.3419,2.3374,2.3315,2.2741,2.2057,2.149,2.0547,1.9793,1.9378,1.8998,1.8861,1.9,1.8679,1.841,1.8547,1.8391,1.8125,-0.5837,0.0,-1.0417,-1.1658,0.0,-1.2353,-0.7962,-0.0556,0.4451,0.6112,0.5095,0.208,-0.0151,-0.1809,-0.3422,-0.6934,-1.1579,-1.1655,-1.3474,-1.6797,-2.125,-2.0233,-1.4826,-2.3958,-2.8864,-2.9995,-2.9588,-2.9492,-2.9725,-2.9674,-2.9084,-2.8002,-2.7527,-2.6629,-2.5322,-2.5127,-2.4385,-2.3048,-2.191,-2.0716,-1.9545,-1.8889,-1.7525,-1.5372,0.0,0.0,0.0,0.0,0.0,0.0,0.0,0.0,0.0,0.0,0.0,-0.3164,-0.1362,0.0,0.0745,0.1798,0.2355,0.2151,0.0911,-0.0405,-0.1846,-0.5103,-0.8234,-1.1,-1.4734,-1.7737,-1.9557,-2.149,-2.2429,-2.1714,-1.8883,-1.5674,-1.2551,-0.8601,-0.4235,0.0046,0.3391,0.5887,0.7881,1.1571,1.3836,1.3778,1.4904,1.6088,1.6867,2.0066,2.2736,2.3163,2.3149,2.3173,2.324,2.2953,2.2761,2.286,2.2701,2.2582,2.2556,2.2237,2.1809,2.1409,2.089,2.0354,1.9649,1.9287,1.9084,1.8841,1.8489,1.8266,1.8371,1.8187,1.7954,-1.4239,-1.7282,-1.7966,-1.9845,-2.2284,-2.0949,-1.9655,-1.7861,0.0,0.0,0.0,-0.706,-0.8453,-0.9742,-1.0557,-1.5536,-2.332,-2.349,-2.7005,-3.3105,-3.2907,-3.193,-3.04,-3.0023,-3.0048,-3.0386,-3.0,-2.9889,-3.0092,-3.0259,-2.9564,-2.8154,-2.8086,-2.7201,-2.5582,-2.5361,-2.5036,-2.447,-2.3593,-2.2497,-2.1173,-2.1403,-2.0408,-1.8053,-1.8578,-1.7914,-1.5831,-1.5142,-1.3891,-1.2014,-1.1151,-1.0132,-0.8736,-0.7286,-0.6074,-0.5084,-0.3161,-0.1901,-0.1477,-0.0345,0.0078,-0.0354,-0.1608,-0.2452,-0.2622,-0.4518,-0.6983,-1.0178,-1.3722,-1.6856,-1.9267,-2.1467,-2.2464,-2.1758,-1.9344,-1.6911,-1.4765,-1.2122,-0.8837,-0.5887,-0.3916,-0.1975,0.1624,0.5039,0.7626,0.8685,0.9866,1.1512,1.3167,1.7176,2.0422,2.0961,2.1026,2.1321,2.1737,2.1523,2.1528,2.1793,2.1635,2.1491,2.1462,2.1462,2.1294,2.082,2.0882,2.0322,1.9525,1.9122,1.9034,1.8458,1.8153,1.7941,1.7919,1.7777,1.7635,-2.0683,-2.2356,-2.4873,-2.6947,-2.8652,-3.0342,-3.1094,-2.9884,-1.5029,-1.0154,-1.3143,-1.6506,-2.0514,-2.4879,-2.7924,-3.0872,-3.3485,-3.347,-3.3409,0.0,-3.3024,-3.2046,-3.0432,-3.0393,-3.0404,-3.0394,-3.0333,-3.0344,-3.0434,-3.0521,-2.9717,-2.8259,-2.8093,-2.7162,-2.5467,-2.5311,-2.5261,-2.5133,-2.446,-2.3652,-2.2711,-2.2996,-2.2293,-2.0557,-2.0854,-2.0639,-1.9556,-1.8843,-1.7786,-1.6212,-1.5257,-1.3833,-1.1802,-1.0375,-0.9091,-0.799,-0.6156,-0.4883,-0.4404,-0.2918,-0.2184,-0.261,-0.2939,-0.2833,-0.2089,-0.4268,-0.6185,-0.7507,-1.1687,-1.5552,-1.8072,-2.1116,-2.2709,-2.2011,-1.9641,-1.7065,-1.476,-1.2229,-0.9741,-0.7524,-0.7675,-0.6613,-0.3478,-0.1249,0.0773,0.2265,0.4278,0.6482,1.0036,1.421,1.6725,1.7612,1.8212,1.8787,1.9189,1.9181,1.9171,1.9764,1.9767,1.9649,1.9699,1.9649,1.9492,1.9139,1.8886,1.8531,1.8032,1.7636,1.7492,1.7363,1.7208,1.7034,1.7034,1.6984,1.6986,-2.5324,-2.6119,-2.8153,-2.9829,-3.1384,-3.418,-3.5783,-3.5591,-2.7782,-2.4267,-2.4791,-2.6775,-2.899,-3.1347,-3.3297,-3.451,-3.512,-3.5276,-3.4468,-3.2953,-3.3019,-3.2237,-3.0771,-3.0586,-3.0498,-3.041,-3.0468,-3.0507,-3.0496,-3.0611,-2.9762,-2.8083,-2.7079,-2.6152,-2.5361,-2.5313,-2.5313,-2.5303,-2.4879,-2.4063,-2.2841,-2.3244,-2.2912,-2.1702,-2.21,-2.2224,-2.1863,-2.1139,-2.0183,-1.9103,-1.814,-1.6955,-1.5507,-1.399,-1.2775,-1.1963,-1.0195,-0.9095,-0.9053,-0.7792,-0.6929,-0.6779,-0.6304,-0.5325,-0.3741,-0.3701,-0.4385,-0.5823,-0.8755,-1.1751,-1.4879,-1.8607,-2.0592,-1.993,-1.842,-1.6483,-1.3913,-1.161,-0.971,-0.862,-0.8935,-0.8528,-0.6469,-0.5766,-0.4524,-0.2359,-0.0421,0.1658,0.4002,0.6326,1.0097,1.5126,1.5716,1.5352,1.5956,1.5871,1.6186,1.7271,1.7327,1.7355,1.7567,1.7461,1.7205,1.7147,1.681,1.6514,1.6397,1.6298,1.6304,1.6623,1.632,1.6186,1.6403,1.6205,1.6044,-2.8705,-2.9029,-3.005,-3.1456,-3.3208,-3.599,-3.763,-3.8279,-3.7307,-3.5897,-3.4178,-3.4073,-3.413,-3.4246,-3.4696,-3.4813,-3.4735,-3.495,-3.4295,-3.3019,-3.3018,-3.2304,-3.0975,-3.0693,-3.0559,-3.0528,-3.0568,-3.0581,-3.0561,-3.0634,-2.9785,-2.7986,-2.6192,-2.5313,-2.5313,-2.5313,-2.5313,-2.5284,-2.5133,-2.4255,-2.2736,-2.3252,-2.3183,-2.2502,-2.2872,-2.3266,-2.3543,-2.2923,-2.2184,-2.1366,-2.0574,-1.9687,-1.8702,-1.7274,-1.6232,-1.5646,-1.411,-1.3107,-1.3123,-1.2332,-1.1568,-1.096,-1.0,-0.8582,-0.675,-0.4746,-0.3632,-0.4396,-0.5696,-0.7967,-1.1347,-1.5356,-1.774,-1.7552,-1.716,-1.5842,-1.3335,-1.1105,-0.9555,-0.9008,-0.9361,-0.934,-0.8573,-0.8685,-0.7978,-0.5917,-0.4338,-0.3187,-0.2521,-0.1547,0.2798,0.8203,1.0924,1.1538,1.2398,1.2752,1.3244,1.4488,1.446,1.4528,1.4739,1.4484,1.435,1.4442,1.4211,1.3959,1.4185,1.4344,1.4511,1.4774,1.4777,1.5113,1.5656,1.5352,1.5091,-3.0185,-3.0999,-3.1172,-3.2735,-3.5064,-3.6596,-3.7595,-3.8255,-3.7942,-3.7281,-3.6194,-3.4947,-3.4303,-3.4227,-3.4269,-3.4423,-3.4634,-3.4715,-3.4371,-3.3709,-3.3012,-3.2008,-3.0941,-3.0702,-3.0694,-3.0798,-3.0697,-3.0643,-3.0677,-3.056,-2.9689,-2.7964,-2.6178,-2.5313,-2.5313,-2.5313,-2.5313,-2.5313,-2.5293,-2.4466,-2.2948,-2.3433,-2.3449,-2.2776,-2.3202,-2.3906,-2.4676,-2.4643,-2.4039,-2.3076,-2.27,-2.1949,-2.0657,-1.9593,-1.8909,-1.8502,-1.7255,-1.617,-1.5324,-1.5047,-1.47,-1.4118,-1.3281,-1.2228,-1.088,-0.8863,-0.5784,-0.3217,-0.3451,-0.5485,-0.7655,-1.202,-1.535,-1.6752,-1.6332,-1.5332,-1.3965,-1.1447,-0.9452,-0.891,-0.9517,-0.971,-0.9607,-0.9621,-0.9547,-0.893,-0.7541,-0.6632,-0.6415,-0.6007,-0.5466,-0.2611,0.1888,0.7104,0.8414,1.0081,1.0302,1.0449,1.1094,1.1314,1.1195,1.1147,1.1011,1.1616,1.1072,1.0992,1.0976,1.1261,1.1703,1.2246,1.2816,1.3664,1.4259,1.4261,1.4281,-3.1323,-3.2099,-3.2084,-3.2929,-3.4445,-3.5606,-3.6601,-3.734,-3.7767,-3.744,-3.6638,-3.5568,-3.457,-3.3634,-3.3773,-3.3843,-3.3836,-3.3975,-3.3902,-3.3555,-3.2896,-3.1883,-3.0706,-3.0657,-3.0742,-3.0877,-3.0816,-3.0757,-3.0511,-2.9645,-2.8481,-2.7249,-2.5918,-2.5313,-2.5313,-2.5313,-2.5313,-2.5313,-2.5313,-2.4485,-2.3043,-2.3074,-2.2834,-2.2188,-2.2747,-2.3582,-2.4436,-2.4841,-2.4798,-2.4357,-2.4136,-2.3674,-2.2904,-2.1976,-2.1311,-2.0959,-1.9961,-1.918,-1.8796,-1.862,-1.8229,-1.7684,-1.6787,-1.5676,-1.4175,-1.1956,-0.904,-0.5886,-0.4219,-0.4203,-0.6121,-0.9694,-1.305,-1.5154,-1.5786,-1.5704,-1.5229,-1.266,-1.0663,-1.0108,-1.0218,-1.0415,-1.0364,-1.0364,-1.0356,-1.0281,-0.9452,-0.8835,-0.8738,-0.8143,-0.7526,-0.6897,-0.3661,-0.0692,0.201,0.3956,0.5068,0.5812,0.6216,0.6591,0.8108,0.7928,0.7966,0.9085,0.8617,0.8056,0.774,0.7999,0.8416,0.951,1.0897,1.1836,1.1723,1.2057,1.2317,-3.191,-3.2602,-3.2803,-3.3235,-3.3921,-3.4728,-3.5617,-3.6415,-3.7238,-3.7108,-3.6297,-3.5769,-3.4515,-3.3028,-3.3146,-3.3212,-3.3057,-3.3356,-3.3467,-3.3374,-3.2794,-3.198,-3.1103,-3.076,-3.0717,-3.0808,-3.0875,-3.0703,-3.0214,-2.8879,-2.762,-2.666,-2.5745,-2.5313,-2.5313,-2.5313,-2.5313,-2.5313,-2.5293,-2.4476,-2.3043,-2.2793,-2.237,-2.1666,-2.217,-2.3056,-2.4141,-2.4659,-2.5026,-2.5189,-2.5014,-2.4782,-2.4511,-2.3761,-2.3085,-2.259,-2.1883,-2.1444,-2.1354,-2.1178,-2.0892,-2.0446,-1.9783,-1.8773,-1.7098,-1.5042,-1.2659,-1.0082,-0.7134,-0.5788,-0.5309,-0.8263,-1.1503,-1.4532,-1.575,-1.6297,-1.6331,-1.4139,-1.2301,-1.1504,-1.1021,-1.0905,-1.093,-1.1139,-1.1375,-1.1065,-1.0509,-0.9969,-0.971,-0.8778,-0.7996,-0.7996,-0.7628,-0.599,-0.3317,-0.1734,-0.0432,0.0698,0.1332,0.2403,0.4495,0.4317,0.4628,0.5498,0.5441,0.5446,0.5247,0.5242,0.603,0.785,0.9085,0.9641,0.9845,1.0068,1.0327,-3.1951,-3.2641,-3.3287,-3.3887,-3.4511,-3.4347,-3.4908,-3.5728,-3.638,-3.6166,-3.5413,-3.5223,-3.4028,-3.1933,-3.2263,-3.25,-3.2583,-3.2965,-3.3338,-3.3442,-3.2545,-3.2359,-3.2677,-3.1319,-3.0599,-3.065,-3.0798,-3.0382,-2.9459,-2.8544,-2.7589,-2.6574,-2.5697,-2.5313,-2.5313,-2.5313,-2.5313,-2.5313,-2.5313,-2.4505,-2.3024,-2.2793,-2.237,-2.1551,-2.1622,-2.2488,-2.3896,-2.4203,-2.4603,-2.5445,-2.5176,-2.5073,-2.5014,-2.4556,-2.3836,-2.3092,-2.2718,-2.2476,-2.2215,-2.2084,-2.1984,-2.197,-2.1857,-2.1412,-1.9946,-1.8361,-1.6459,-1.4405,-1.2075,-0.9529,-0.6681,-0.8508,-1.149,-1.4831,-1.623,-1.7006,-1.77,-1.5905,-1.4326,-1.2839,-1.178,-1.1348,-1.1291,-1.2167,-1.2258,-1.1823,-1.1166,-1.0517,-0.9917,-0.9204,-0.8745,-0.8586,-0.815,-0.7219,-0.5995,-0.4942,-0.4776,-0.3809,-0.2275,-0.1965,-0.0766,0.0384,0.1268,0.205,0.2496,0.2722,0.2724,0.3379,0.4624,0.5801,0.6345,0.6859,0.7854,0.8512,0.8762,-3.2625,-3.3235,-3.3495,-3.3735,-3.3871,-3.3415,-3.3577,-3.4272,-3.4874,-3.4849,-3.4247,-3.3611,-3.253,-3.1202,-3.0734,-3.1104,-3.2022,-3.223,-3.2764,-3.335,-3.2114,-3.1958,-3.2646,-3.1109,-3.0394,-3.0605,-3.0703,-3.0009,-2.8681,-2.8178,-2.7265,-2.5938,-2.5476,-2.5313,-2.5313,-2.5313,-2.5313,-2.5313,-2.5313,-2.4485,-2.2966,-2.2793,-2.2158,-2.0858,-2.1351,-2.194,-2.2562,-2.3166,-2.3866,-2.4703,-2.4195,-2.4291,-2.5062,-2.4262,-2.3702,-2.3571,-2.2851,-2.2423,-2.253,-2.2692,-2.2819,-2.283,-2.3016,-2.2749,-2.1816,-2.0563,-1.8951,-1.6998,-1.5424,-1.3387,-1.1914,-1.1322,-1.2457,-1.5256,-1.6097,-1.6829,-1.7524,-1.6592,-1.4945,-1.3611,-1.2699,-1.2341,-1.2421,-1.2673,-1.2813,-1.2452,-1.1525,-1.0821,-1.0364,-0.951,-0.9008,-0.9316,-0.9249,-0.9065,-0.9179,-0.7357,-0.6303,-0.5959,-0.5225,-0.4395,-0.3406,-0.2638,-0.1815,-0.0498,-0.0056,0.0613,0.089,0.1722,0.2977,0.3361,0.3881,0.4804,0.5878,0.6484,0.687,-3.2772,-3.3479,-3.3339,-3.3391,-3.3495,-3.2895,-3.2779,-3.3085,-3.3355,-3.3306,-3.2909,-3.2068,-3.1175,-3.041,-2.9713,-2.9929,-3.1021,-3.135,-3.1916,-3.2527,-3.1555,-3.1576,-3.2042,-3.0827,-3.0272,-3.0566,-3.0622,-2.9762,-2.8257,-2.7961,-2.6987,-2.539,-2.5234,-2.5224,-2.5284,-2.5313,-2.5313,-2.5313,-2.5313,-2.4485,-2.3024,-2.2793,-2.1985,-2.067,-2.0953,-2.143,-2.1683,-2.2374,-2.3085,-2.3701,-2.3407,-2.3592,-2.4381,-2.3618,-2.3136,-2.3243,-2.252,-2.2186,-2.2476,-2.2626,-2.2833,-2.3305,-2.3464,-2.3324,-2.2831,-2.1806,-2.0451,-1.8947,-1.7606,-1.6541,-1.5876,-1.4717,-1.4819,-1.6636,-1.6832,-1.7316,-1.8678,-1.7946,-1.6618,-1.5235,-1.4498,-1.4015,-1.363,-1.3331,-1.313,-1.29,-1.1823,-1.1116,-1.0712,-1.0108,-0.9562,-1.0012,-1.0115,-1.021,-1.0136,-0.8888,-0.8072,-0.7729,-0.7036,-0.6387,-0.5638,-0.5085,-0.4262,-0.3111,-0.2228,-0.1451,-0.0613,0.0167,0.0668,0.1057,0.1777,0.2652,0.3555,0.4415,0.467,-3.2407,-3.3479,-3.2879,-3.3145,-3.3547,-3.2879,-3.2586,-3.2555,-3.1902,-3.1568,-3.1422,-3.0717,-2.9795,-2.938,-2.8995,-2.9223,-2.9444,-3.012,-3.0645,-3.087,-3.0876,-3.1075,-3.1429,-3.0535,-3.0247,-3.0575,-3.0526,-2.9648,-2.8131,-2.7793,-2.6881,-2.5533,-2.5099,-2.5141,-2.5284,-2.5313,-2.5313,-2.5313,-2.5313,-2.4485,-2.3024,-2.284,-2.2043,-2.0577,-2.0482,-2.0842,-2.1586,-2.1788,-2.2266,-2.2969,-2.3047,-2.3077,-2.3018,-2.2669,-2.2379,-2.2209,-2.1861,-2.1876,-2.2098,-2.1874,-2.2286,-2.3115,-2.3342,-2.3098,-2.2768,-2.2064,-2.1138,-2.0104,-1.9021,-1.8215,-1.8143,-1.7796,-1.7831,-1.852,-1.8544,-1.9003,-1.9831,-2.0156,-1.9399,-1.737,-1.6335,-1.5872,-1.495,-1.416,-1.3643,-1.3082,-1.2395,-1.1805,-1.134,-1.099,-1.0855,-1.0906,-1.1007,-1.1157,-1.0754,-1.0254,-0.9953,-0.954,-0.8692,-0.7894,-0.6886,-0.6126,-0.5144,-0.4103,-0.3738,-0.2959,-0.2402,-0.1728,-0.167,-0.1224,-0.039,0.0446,0.1226,0.195,0.2347,-3.3871,-3.4235,-3.4071,-3.4087,-3.412,-3.3077,-3.2586,-3.2392,-3.0823,-3.0015,-2.9709,-2.8318,-2.7449,-2.7229,-2.6887,-2.6872,-2.727,-2.7643,-2.8554,-2.9756,-2.9575,-3.0076,-3.0921,-3.0288,-3.0105,-3.0511,-3.0488,-2.9541,-2.8133,-2.7729,-2.6776,-2.5394,-2.5034,-2.513,-2.5274,-2.5313,-2.5313,-2.5313,-2.5313,-2.4755,-2.3725,-2.3109,-2.2235,-2.124,-2.0671,-2.0546,-2.0788,-2.0947,-2.1406,-2.2227,-2.1676,-2.1547,-2.1884,-2.1891,-2.199,-2.2232,-2.1713,-2.1507,-2.1778,-2.1734,-2.1771,-2.2242,-2.2277,-2.2083,-2.1853,-2.1492,-2.0915,-2.0226,-1.9619,-1.9337,-1.9318,-1.9281,-1.9365,-1.9734,-1.9617,-1.9899,-2.0629,-2.0034,-1.8808,-1.7605,-1.6701,-1.586,-1.5091,-1.453,-1.4389,-1.4075,-1.348,-1.2946,-1.2782,-1.2329,-1.2368,-1.2686,-1.2454,-1.2033,-1.1688,-1.1048,-1.0458,-0.9858,-0.9124,-0.8495,-0.7599,-0.6627,-0.5697,-0.5046,-0.4688,-0.4366,-0.3863,-0.3524,-0.335,-0.3463,-0.2792,-0.2006,-0.1168,-0.0501,-0.0,-3.4382,-3.4592,-3.4592,-3.4592,-3.4528,-3.3633,-3.3198,-3.266,-3.0707,-2.966,-2.8988,-2.6895,-2.5748,-2.5369,-2.4745,-2.4844,-2.5409,-2.5478,-2.6297,-2.7678,-2.8014,-2.8579,-2.9722,-3.0052,-3.02,-3.0513,-3.0479,-2.9514,-2.7845,-2.7532,-2.6616,-2.5209,-2.4911,-2.5018,-2.5192,-2.5264,-2.5313,-2.5313,-2.5293,-2.4909,-2.411,-2.3244,-2.237,-2.1548,-2.0758,-2.0391,-2.0385,-2.0455,-2.0815,-2.121,-2.0786,-2.0706,-2.1088,-2.1077,-2.125,-2.1445,-2.1264,-2.107,-2.1438,-2.1243,-2.145,-2.1776,-2.1687,-2.1474,-2.1281,-2.1136,-2.0783,-2.0155,-1.9945,-1.9914,-1.9871,-1.9941,-2.0211,-2.0776,-2.0574,-2.0869,-2.1474,-2.0768,-1.9844,-1.9043,-1.8174,-1.709,-1.6312,-1.5531,-1.5264,-1.5039,-1.4481,-1.41,-1.3996,-1.3684,-1.3835,-1.3856,-1.3396,-1.3014,-1.2667,-1.1886,-1.0956,-1.0049,-0.9183,-0.8501,-0.7711,-0.6573,-0.5592,-0.4999,-0.4577,-0.4525,-0.4079,-0.4193,-0.4135,-0.448,-0.4484,-0.3744,-0.273,-0.2514,-0.0,-3.4087,-3.464,-3.4688,-3.4688,-3.4736,-3.4624,-3.4154,-3.3262,-3.1432,-3.0048,-2.8815,-2.6337,-2.4691,-2.3909,-2.3255,-2.3372,-2.3864,-2.4165,-2.4259,-2.4849,-2.5663,-2.6678,-2.737,-2.9431,-3.051,-3.0615,-3.0515,-2.9533,-2.7989,-2.7485,-2.6446,-2.5077,-2.4846,-2.4883,-2.503,-2.5203,-2.5274,-2.5303,-2.5313,-2.4928,-2.4216,-2.3379,-2.2524,-2.1666,-2.0907,-2.0435,-2.0336,-2.037,-2.047,-2.056,-2.0483,-2.0395,-2.034,-2.0299,-2.0419,-2.0485,-2.034,-2.0667,-2.0962,-2.0735,-2.0846,-2.1798,-2.1453,-2.1205,-2.1196,-2.1055,-2.0792,-2.0215,-2.0111,-2.0092,-2.0084,-2.0175,-2.0676,-2.1472,-2.163,-2.209,-2.2835,-2.2282,-2.1593,-2.1164,-2.0377,-1.9236,-1.8071,-1.7096,-1.6451,-1.584,-1.5309,-1.5129,-1.4915,-1.4846,-1.4778,-1.4549,-1.4168,-1.3501,-1.2966,-1.1747,-1.0813,-1.0005,-0.9131,-0.8349,-0.7658,-0.6573,-0.5492,-0.4952,-0.468,-0.4625,-0.4463,-0.4467,-0.447,-0.447,-0.447,-0.447,-0.4252,-0.3752,-0.0,-3.5161,-3.5316,-3.5362,-3.5345,-3.5345,-3.5244,-3.4542,-3.3386,-3.171,-2.984,-2.7749,-2.5314,-2.3728,-2.2542,-2.2348,-2.2299,-2.2772,-2.3191,-2.3153,-2.3083,-2.3778,-2.5266,-2.6933,-2.9336,-3.0681,-3.0734,-3.0419,-2.9655,-2.8454,-2.7494,-2.6481,-2.5476,-2.4853,-2.4723,-2.4974,-2.5046,-2.5163,-2.5274,-2.5303,-2.5226,-2.4909,-2.4149,-2.334,-2.2474,-2.1654,-2.0933,-2.0408,-2.0376,-2.0386,-2.0385,-2.0347,-2.0326,-2.0306,-2.0289,-2.0296,-2.0289,-2.0314,-2.0388,-2.0545,-2.0512,-2.0624,-2.0836,-2.0933,-2.0633,-2.0648,-2.0658,-2.0512,-2.0303,-2.0323,-2.0313,-2.0302,-2.0332,-2.0811,-2.1634,-2.247,-2.3197,-2.3377,-2.3427,-2.3002,-2.1895,-2.1193,-2.0215,-1.9053,-1.8321,-1.7732,-1.7053,-1.6617,-1.6318,-1.6015,-1.5788,-1.5656,-1.5242,-1.4778,-1.3878,-1.2918,-1.1648,-1.061,-0.9806,-0.8974,-0.8084,-0.7385,-0.6519,-0.5546,-0.4736,-0.4956,-0.4956,-0.468,-0.4519,-0.4519,-0.457,-0.4463,-0.4467,-0.447,-0.4138,-0.3413,-3.5639,-3.5639,-3.5639,-3.5639,-3.5571,-3.5199,-3.4617,-3.3661,-3.1978,-3.0275,-2.8258,-2.5941,-2.4361,-2.356,-2.2955,-2.2862,-2.3229,-2.3386,-2.3276,-2.3094,-2.3593,-2.4668,-2.6464,-2.9039,-3.0675,-3.0727,-3.0418,-2.9668,-2.8598,-2.7455,-2.6469,-2.5579,-2.4955,-2.47,-2.478,-2.5041,-2.513,-2.5173,-2.5253,-2.5313,-2.5236,-2.4524,-2.3667,-2.2821,-2.2011,-2.1152,-2.0457,-2.0341,-2.0347,-2.0307,-2.0288,-2.0289,-2.03,-2.0292,-2.0292,-2.0301,-2.0316,-2.0385,-2.051,-2.0765,-2.1009,-2.1048,-2.1035,-2.1035,-2.0972,-2.0755,-2.048,-2.0438,-2.0458,-2.0429,-2.0402,-2.0383,-2.0833,-2.1633,-2.2805,-2.3573,-2.3698,-2.3942,-2.3569,-2.2687,-2.1891,-2.1168,-1.9741,-1.9358,-1.8754,-1.809,-1.7395,-1.7136,-1.6844,-1.6655,-1.6293,-1.5688,-1.5096,-1.4215,-1.3253,-1.2043,-1.1057,-1.0202,-0.9481,-0.8435,-0.754,-0.6838,-0.614,-0.5496,-0.5445,-0.5281,-0.5062,-0.4842,-0.4787,-0.4732,-0.4625,-0.4463,-0.4467,-0.4477,-0.3694,-3.5711,-3.565,-3.5605,-3.5588,-3.5385,-3.488,-3.444,-3.3862,-3.2419,-3.1008,-2.9578,-2.7405,-2.6126,-2.5885,-2.4653,-2.4518,-2.5049,-2.451,-2.3944,-2.3743,-2.3978,-2.4691,-2.5885,-2.8968,-3.0366,-3.0453,-3.0336,-2.9701,-2.867,-2.7542,-2.645,-2.567,-2.5101,-2.4726,-2.4712,-2.5024,-2.5171,-2.5141,-2.5243,-2.5303,-2.5159,-2.4505,-2.3687,-2.2802,-2.1743,-2.1001,-2.0462,-2.0308,-2.0292,-2.0289,-2.0295,-2.0288,-2.0292,-2.0292,-2.0294,-2.0319,-2.0381,-2.0464,-2.0742,-2.1403,-2.1914,-2.1953,-2.2012,-2.1953,-2.1719,-2.1211,-2.0759,-2.0533,-2.0511,-2.0486,-2.0462,-2.0465,-2.0929,-2.1721,-2.2499,-2.3315,-2.3794,-2.417,-2.4098,-2.3428,-2.2656,-2.1888,-2.1017,-2.0278,-1.9647,-1.8858,-1.8232,-1.7799,-1.7369,-1.6954,-1.6403,-1.5696,-1.5073,-1.4457,-1.3443,-1.2434,-1.1598,-1.0805,-1.023,-0.9349,-0.8317,-0.7576,-0.6999,-0.6573,-0.6195,-0.5928,-0.5714,-0.5492,-0.5218,-0.4893,-0.4732,-0.457,-0.4463,-0.4477,-0.4033,-3.6224,-3.6182,-3.5766,-3.5267,-3.4847,-3.4974,-3.4213,-3.2805,-3.2774,-3.139,-2.9613,-2.8428,-2.7519,-2.6504,-2.6579,-2.6404,-2.6214,-2.5644,-2.4839,-2.364,-2.3978,-2.4943,-2.6329,-2.8964,-3.0026,-3.0067,-2.996,-2.967,-2.8974,-2.7606,-2.6565,-2.6236,-2.5186,-2.4623,-2.4756,-2.4924,-2.5141,-2.5214,-2.5293,-2.5274,-2.5149,-2.4562,-2.3725,-2.2782,-2.1389,-2.0581,-2.0369,-2.0292,-2.03,-2.0296,-2.0304,-2.0296,-2.0292,-2.0292,-2.0308,-2.0371,-2.0437,-2.0779,-2.1461,-2.1836,-2.2207,-2.2793,-2.2832,-2.2578,-2.1953,-2.1738,-2.123,-2.0801,-2.0585,-2.0566,-2.0624,-2.1089,-2.1492,-2.1987,-2.2963,-2.3848,-2.4082,-2.4429,-2.431,-2.3812,-2.3432,-2.2951,-2.1973,-2.1641,-2.0831,-1.9773,-1.903,-1.8513,-1.7877,-1.7261,-1.6511,-1.5768,-1.5386,-1.4812,-1.4122,-1.3253,-1.2619,-1.1935,-1.1373,-1.0914,-0.9841,-0.8626,-0.8205,-0.7522,-0.6838,-0.6627,-0.6529,-0.5982,-0.5706,-0.5273,-0.4838,-0.4677,-0.4574,-0.4532,-0.4373,-3.5668,-3.5766,-3.5335,-3.4962,-3.4547,-3.4298,-3.3611,-3.2672,-3.2282,-3.1584,-3.054,-2.9922,-2.9518,-2.9313,-2.9231,-2.8867,-2.781,-2.6554,-2.5531,-2.4926,-2.5307,-2.5928,-2.6606,-2.8632,-2.998,-2.9838,-2.9803,-2.9671,-2.9008,-2.7692,-2.6677,-2.6613,-2.5349,-2.4776,-2.4799,-2.4924,-2.4986,-2.5049,-2.513,-2.5163,-2.5067,-2.486,-2.3966,-2.2754,-2.1254,-2.0292,-2.0292,-2.0292,-2.0292,-2.0292,-2.0292,-2.0292,-2.0292,-2.0292,-2.0327,-2.0385,-2.085,-2.1182,-2.1787,-2.2637,-2.3301,-2.3652,-2.3711,-2.3242,-2.2598,-2.2187,-2.1484,-2.0859,-2.0625,-2.0701,-2.1074,-2.1367,-2.1872,-2.2811,-2.3535,-2.4188,-2.4492,-2.4745,-2.4747,-2.4281,-2.3986,-2.3432,-2.2902,-2.2434,-2.1648,-2.0405,-1.9555,-1.9038,-1.8106,-1.7422,-1.6606,-1.6009,-1.5704,-1.5297,-1.4732,-1.4168,-1.3737,-1.3253,-1.286,-1.2609,-1.2055,-1.0764,-0.9511,-0.8842,-0.8171,-0.767,-0.7408,-0.6799,-0.614,-0.5542,-0.5164,-0.4838,-0.4625,-0.4529,-0.4421,-3.5052,-3.5255,-3.4988,-3.4764,-3.4516,-3.3706,-3.3194,-3.284,-3.1915,-3.1789,-3.1863,-3.1433,-3.169,-3.2256,-3.1872,-3.1011,-2.9379,-2.7814,-2.6531,-2.6049,-2.6857,-2.6905,-2.7218,-2.8684,-2.9984,-2.9813,-2.9783,-2.9653,-2.8969,-2.7627,-2.6737,-2.6619,-2.5477,-2.4861,-2.4836,-2.4968,-2.5041,-2.5,-2.5084,-2.5099,-2.5034,-2.4974,-2.4101,-2.2524,-2.1158,-2.0331,-2.0292,-2.0292,-2.0292,-2.0292,-2.0292,-2.0292,-2.0323,-2.0446,-2.0484,-2.0559,-2.1216,-2.174,-2.2248,-2.3203,-2.4043,-2.4336,-2.457,-2.4199,-2.3457,-2.2852,-2.2168,-2.1523,-2.125,-2.1422,-2.1903,-2.2279,-2.2852,-2.3681,-2.4135,-2.4524,-2.4889,-2.5034,-2.4924,-2.4663,-2.4282,-2.381,-2.3229,-2.2694,-2.191,-2.1133,-2.0286,-1.9409,-1.8489,-1.7702,-1.6994,-1.6333,-1.6046,-1.5708,-1.5141,-1.4915,-1.4527,-1.4168,-1.3993,-1.3758,-1.3589,-1.2559,-1.1217,-1.0293,-0.9621,-0.9015,-0.8275,-0.761,-0.6897,-0.6032,-0.5492,-0.5164,-0.4897,-0.4577,-0.447,-3.6058,-3.6048,-3.5615,-3.5066,-3.4495,-3.4236,-3.3659,-3.2983,-3.2706,-3.2639,-3.2745,-3.302,-3.3128,-3.3268,-3.2974,-3.1498,-2.9669,-2.84,-2.7713,-2.7155,-2.777,-2.7791,-2.7678,-2.9023,-3.0071,-3.0141,-2.9953,-2.9642,-2.9022,-2.7627,-2.6797,-2.6563,-2.5493,-2.4861,-2.4993,-2.5141,-2.5163,-2.5107,-2.5171,-2.5192,-2.5088,-2.4495,-2.362,-2.2043,-2.0889,-2.0369,-2.0292,-2.0292,-2.0292,-2.0292,-2.0292,-2.0292,-2.0419,-2.0869,-2.1166,-2.1243,-2.157,-2.2096,-2.2586,-2.3125,-2.375,-2.4336,-2.5,-2.498,-2.4355,-2.3965,-2.3242,-2.2754,-2.25,-2.267,-2.2804,-2.3193,-2.3708,-2.4262,-2.4658,-2.5072,-2.5187,-2.5184,-2.5041,-2.4708,-2.4456,-2.4099,-2.345,-2.2838,-2.2218,-2.1532,-2.0797,-1.9723,-1.8656,-1.8089,-1.7558,-1.6983,-1.6411,-1.6051,-1.5599,-1.5499,-1.5219,-1.4869,-1.4595,-1.4318,-1.4093,-1.3776,-1.2949,-1.1837,-1.0718,-0.9814,-0.9113,-0.8461,-0.7765,-0.6956,-0.6249,-0.5542,-0.5332,-0.5117,-0.468,-3.5559,-3.5628,-3.5277,-3.4936,-3.4585,-3.4316,-3.4013,-3.3622,-3.3369,-3.3412,-3.3649,-3.3858,-3.4083,-3.4033,-3.3523,-3.1946,-3.013,-2.8974,-2.8488,-2.8218,-2.8653,-2.8839,-2.8418,-2.9708,-3.0125,-3.0265,-3.0011,-2.9677,-2.9228,-2.7639,-2.6935,-2.6669,-2.5574,-2.4929,-2.5096,-2.5141,-2.5163,-2.5152,-2.5163,-2.5152,-2.5028,-2.4101,-2.2908,-2.2158,-2.0985,-2.0369,-2.0292,-2.0292,-2.0292,-2.0292,-2.0292,-2.0292,-2.0523,-2.0954,-2.1336,-2.1183,-2.1764,-2.2241,-2.2643,-2.309,-2.4023,-2.4394,-2.5195,-2.5234,-2.4687,-2.4297,-2.4062,-2.3418,-2.3144,-2.3274,-2.3575,-2.401,-2.4341,-2.4768,-2.5109,-2.5263,-2.533,-2.5303,-2.5077,-2.479,-2.4663,-2.4227,-2.3424,-2.2888,-2.246,-2.1869,-2.1244,-2.0153,-1.8891,-1.8436,-1.8052,-1.7545,-1.6995,-1.657,-1.6213,-1.6083,-1.5908,-1.5567,-1.5254,-1.4971,-1.4593,-1.4247,-1.3809,-1.3035,-1.194,-1.0675,-0.9844,-0.9131,-0.8508,-0.7883,-0.7176,-0.6524,-0.6032,-0.5655,-0.5218,-3.4997,-3.5181,-3.4959,-3.4914,-3.4906,-3.4587,-3.4473,-3.4423,-3.412,-3.4156,-3.4473,-3.4508,-3.4582,-3.4384,-3.3427,-3.1996,-3.0265,-2.9324,-2.9214,-2.9326,-2.954,-2.9715,-2.9904,-3.0139,-3.0386,-3.0349,-3.0215,-2.9782,-2.9024,-2.7698,-2.7093,-2.6547,-2.5471,-2.4994,-2.5222,-2.5163,-2.5077,-2.5065,-2.5065,-2.5065,-2.4717,-2.364,-2.2793,-2.2639,-2.1177,-2.0292,-2.0292,-2.0292,-2.0292,-2.0292,-2.0292,-2.0292,-2.0446,-2.1062,-2.1089,-2.0735,-2.1849,-2.2114,-2.2325,-2.3083,-2.3903,-2.4023,-2.5098,-2.5156,-2.498,-2.4746,-2.4453,-2.3769,-2.3711,-2.3945,-2.442,-2.4495,-2.4793,-2.5124,-2.5333,-2.5371,-2.5391,-2.5368,-2.5236,-2.5027,-2.4904,-2.4433,-2.3689,-2.3076,-2.2686,-2.1984,-2.1352,-2.0534,-1.9403,-1.8948,-1.8521,-1.8062,-1.7639,-1.7229,-1.6909,-1.6697,-1.6441,-1.6151,-1.5876,-1.5599,-1.513,-1.4684,-1.4165,-1.3616,-1.2803,-1.1625,-1.0712,-0.9762,-0.9093,-0.8461,-0.799,-0.7456,-0.6907,-0.6253,-0.571,-3.547,-3.5538,-3.5516,-3.5524,-3.5557,-3.5482,-3.5359,-3.5162,-3.5074,-3.5121,-3.5145,-3.5065,-3.4709,-3.3847,-3.2501,-3.1245,-3.0439,-3.0183,-3.0049,-3.0098,-3.0157,-3.0216,-3.0304,-3.0348,-3.0398,-3.0398,-3.0355,-2.9755,-2.884,-2.7667,-2.6855,-2.6289,-2.5564,-2.5088,-2.5264,-2.5234,-2.5264,-2.5244,-2.5234,-2.5234,-2.4965,-2.3649,-2.2928,-2.237,-2.1293,-2.0292,-2.0292,-2.0292,-2.0292,-2.0292,-2.0292,-2.0292,-2.0427,-2.1062,-2.0981,-2.0837,-2.1172,-2.1818,-2.1808,-2.2734,-2.3436,-2.373,-2.4805,-2.543,-2.5449,-2.5391,-2.5332,-2.5469,-2.5273,-2.5156,-2.5208,-2.5359,-2.5453,-2.5429,-2.5479,-2.5468,-2.5473,-2.5413,-2.528,-2.5148,-2.4991,-2.4603,-2.4026,-2.3458,-2.2888,-2.2163,-2.1425,-2.0619,-1.9954,-1.9434,-1.8893,-1.8401,-1.8193,-1.7773,-1.7312,-1.7146,-1.6909,-1.6637,-1.638,-1.6151,-1.5668,-1.5096,-1.4457,-1.3867,-1.311,-1.2258,-1.1166,-1.0261,-0.9555,-0.8942,-0.8415,-0.799,-0.7616,-0.6961,-0.6308,-3.554,-3.5611,-3.5611,-3.5682,-3.5802,-3.5807,-3.5778,-3.5704,-3.5704,-3.5704,-3.5587,-3.5119,-3.4204,-3.2933,-3.1974,-3.1241,-3.054,-3.0423,-3.0419,-3.0402,-3.0398,-3.0398,-3.0379,-3.0398,-3.0398,-3.0398,-3.0244,-2.954,-2.8536,-2.7731,-2.7029,-2.6161,-2.5437,-2.5088,-2.5274,-2.5303,-2.5303,-2.5284,-2.5284,-2.5303,-2.4861,-2.3774,-2.2793,-2.2716,-2.1158,-2.0465,-2.0292,-2.0292,-2.0292,-2.0292,-2.0292,-2.0292,-2.0346,-2.0607,-2.0605,-2.0462,-2.0718,-2.1007,-2.1174,-2.2369,-2.2965,-2.3555,-2.4629,-2.5625,-2.5703,-2.5703,-2.5703,-2.5664,-2.5684,-2.5664,-2.5609,-2.5603,-2.5595,-2.5564,-2.5538,-2.5538,-2.552,-2.5428,-2.5329,-2.5206,-2.5045,-2.4686,-2.4332,-2.3828,-2.3241,-2.253,-2.184,-2.1101,-2.0452,-1.9894,-1.9303,-1.8727,-1.8521,-1.8366,-1.7867,-1.7504,-1.7229,-1.6951,-1.6552,-1.6324,-1.6008,-1.5499,-1.4755,-1.4075,-1.3389,-1.2521,-1.1516,-1.0771,-1.0064,-0.9458,-0.8844,-0.8474,-0.8103,-0.767,-0.6907,-3.5609,-3.5676,-3.563,-3.5723,-3.5935,-3.5918,-3.5948,-3.5996,-3.5996,-3.5996,-3.5703,-3.4863,-3.3473,-3.2229,-3.1718,-3.1099,-3.054,-3.0452,-3.0406,-3.0402,-3.0398,-3.0398,-3.0398,-3.0398,-3.0398,-3.0379,-3.0398,-2.9494,-2.8357,-2.7616,-2.7083,-2.6027,-2.5413,-2.5201,-2.5234,-2.5224,-2.5184,-2.5184,-2.5203,-2.5224,-2.4976,-2.3658,-2.2985,-2.2293,-2.135,-2.0292,-2.0292,-2.0292,-2.0292,-2.0292,-2.0292,-2.03,-2.0318,-2.0366,-2.0432,-2.0454,-2.0795,-2.1074,-2.147,-2.2279,-2.3082,-2.3867,-2.4629,-2.5703,-2.5703,-2.5703,-2.5703,-2.5703,-2.5703,-2.5664,-2.5636,-2.5633,-2.5633,-2.5607,-2.5598,-2.5603,-2.5595,-2.5484,-2.5402,-2.5298,-2.5149,-2.4911,-2.4535,-2.4136,-2.357,-2.2905,-2.2218,-2.1469,-2.0814,-2.0139,-1.9696,-1.9058,-1.9058,-1.8893,-1.8419,-1.7933,-1.7666,-1.7229,-1.6795,-1.6509,-1.6238,-1.5599,-1.4778,-1.4154,-1.3658,-1.2987,-1.2098,-1.1334,-1.0568,-0.9814,-0.9152,-0.885,-0.8533,-0.8096,-0.7557,-3.5774,-3.5869,-3.5749,-3.5821,-3.5976,-3.5996,-3.5996,-3.6016,-3.6016,-3.5937,-3.5527,-3.4316,-3.3086,-3.2107,-3.1282,-3.0804,-3.0587,-3.054,-3.0472,-3.0414,-3.0398,-3.0398,-3.0398,-3.0398,-3.0379,-3.0328,-3.0163,-2.9271,-2.8206,-2.7624,-2.6721,-2.5562,-2.5339,-2.5302,-2.5243,-2.5141,-2.5057,-2.5077,-2.5088,-2.5173,-2.4841,-2.3889,-2.2947,-2.2466,-2.1312,-2.0292,-2.0292,-2.0292,-2.0292,-2.0292,-2.0292,-2.0299,-2.0289,-2.0313,-2.0352,-2.0536,-2.1167,-2.1516,-2.2009,-2.2715,-2.3516,-2.4316,-2.5078,-2.5703,-2.5703,-2.5703,-2.5703,-2.5703,-2.5703,-2.5703,-2.5684,-2.5684,-2.5684,-2.5664,-2.5644,-2.5636,-2.5607,-2.5543,-2.5463,-2.5383,-2.5204,-2.4943,-2.4678,-2.4247,-2.3759,-2.3076,-2.2079,-2.1334,-2.0651,-2.0035,-1.9854,-1.953,-1.9581,-1.9369,-1.893,-1.8458,-1.7894,-1.7381,-1.6909,-1.668,-1.6436,-1.5712,-1.4926,-1.4387,-1.3884,-1.3286,-1.2666,-1.1783,-1.0864,-1.0012,-0.9458,-0.9361,-0.8949,-0.8421,-0.8043,-3.5791,-3.59,-3.5841,-3.5893,-3.6016,-3.6016,-3.6016,-3.6016,-3.5996,-3.5332,-3.4394,-3.3633,-3.2656,-3.1562,-3.0977,-3.0633,-3.0587,-3.0482,-3.0439,-3.0414,-3.0398,-3.0398,-3.0398,-3.0348,-3.0253,-2.9985,-2.9627,-2.89,-2.7765,-2.735,-2.6403,-2.559,-2.5293,-2.531,-2.5217,-2.5077,-2.4984,-2.5034,-2.513,-2.5243,-2.5033,-2.4293,-2.336,-2.2705,-2.1793,-2.0792,-2.04,-2.0304,-2.0292,-2.0292,-2.0292,-2.0294,-2.0313,-2.0327,-2.0434,-2.0662,-2.1456,-2.2108,-2.2715,-2.3437,-2.4297,-2.5019,-2.5508,-2.5703,-2.5684,-2.5703,-2.5703,-2.5703,-2.5703,-2.5703,-2.5703,-2.5703,-2.5684,-2.5703,-2.5684,-2.5664,-2.5611,-2.5547,-2.5438,-2.5343,-2.5168,-2.4937,-2.4655,-2.4352,-2.3828,-2.3218,-2.2156,-2.1195,-2.0601,-2.0054,-1.9909,-1.9818,-1.9818,-1.9782,-1.9376,-1.875,-1.8052,-1.7544,-1.7076,-1.6752,-1.6522,-1.5964,-1.5231,-1.4652,-1.4061,-1.3467,-1.2783,-1.2021,-1.1316,-1.0762,-1.0312,-1.0012,-0.9451,-0.8784,-0.8368,-3.5834,-3.5918,-3.5921,-3.597,-3.5996,-3.6016,-3.6016,-3.6016,-3.6016,-3.5019,-3.3398,-3.3144,-3.2285,-3.1152,-3.0726,-3.0623,-3.0581,-3.0509,-3.0439,-3.0402,-3.0398,-3.0398,-3.0367,-3.0279,-3.0087,-2.967,-2.9273,-2.8631,-2.7438,-2.6844,-2.6098,-2.5505,-2.5214,-2.5217,-2.5248,-2.5041,-2.4934,-2.5034,-2.513,-2.5264,-2.5158,-2.4485,-2.3648,-2.2821,-2.1908,-2.1062,-2.0504,-2.0292,-2.0292,-2.0292,-2.03,-2.032,-2.0344,-2.0413,-2.0597,-2.1099,-2.1758,-2.2617,-2.3417,-2.4258,-2.5,-2.5449,-2.5566,-2.5644,-2.5661,-2.5681,-2.5664,-2.5703,-2.5703,-2.5703,-2.5703,-2.5703,-2.5703,-2.5703,-2.5664,-2.5636,-2.5595,-2.5526,-2.5389,-2.5263,-2.5067,-2.485,-2.4465,-2.4118,-2.3563,-2.2937,-2.195,-2.118,-2.0813,-2.033,-2.0019,-1.9965,-1.9965,-1.9929,-1.9823,-1.9089,-1.8366,-1.7854,-1.7381,-1.6866,-1.6497,-1.5983,-1.541,-1.4789,-1.4154,-1.36,-1.3025,-1.2393,-1.203,-1.1765,-1.1065,-1.021,-0.9762,-0.9047,-0.8633,-3.5996,-3.6016,-3.5996,-3.5996,-3.6016,-3.6016,-3.6016,-3.5976,-3.5879,-3.4961,-3.3398,-3.2695,-3.1836,-3.1016,-3.074,-3.0661,-3.0594,-3.0513,-3.0462,-3.0414,-3.0398,-3.0398,-3.0323,-3.019,-2.9961,-2.9764,-2.9349,-2.8553,-2.7336,-2.6884,-2.6138,-2.5475,-2.5195,-2.5141,-2.5264,-2.505,-2.4953,-2.4991,-2.5022,-2.5163,-2.511,-2.4582,-2.387,-2.3052,-2.2197,-2.1389,-2.0754,-2.035,-2.0312,-2.0292,-2.0469,-2.0553,-2.0599,-2.0741,-2.1118,-2.1855,-2.2695,-2.3496,-2.422,-2.5075,-2.5436,-2.5508,-2.5559,-2.5559,-2.5593,-2.5625,-2.5633,-2.5664,-2.5703,-2.5703,-2.5703,-2.5703,-2.5703,-2.5684,-2.5644,-2.5593,-2.5543,-2.5503,-2.5369,-2.5196,-2.4948,-2.4678,-2.4281,-2.3828,-2.327,-2.2556,-2.1635,-2.1118,-2.0943,-2.0649,-2.0348,-2.0296,-2.0296,-2.0193,-2.0004,-1.9325,-1.8674,-1.8171,-1.7585,-1.6951,-1.6497,-1.6139,-1.5555,-1.488,-1.4376,-1.392,-1.3372,-1.2871,-1.2501,-1.208,-1.0965,-1.0167,-0.9769,-0.951,-0.9197,-3.6016,-3.6016,-3.6016,-3.6016,-3.6016,-3.6016,-3.6016,-3.5898,-3.5351,-3.4473,-3.3418,-3.2559,-3.1719,-3.1074,-3.0769,-3.0673,-3.0606,-3.0529,-3.0472,-3.0402,-3.039,-3.0398,-3.0355,-3.0216,-2.9889,-2.9336,-2.8997,-2.8724,-2.783,-2.6988,-2.634,-2.5747,-2.5287,-2.5152,-2.5149,-2.508,-2.5144,-2.5072,-2.513,-2.5253,-2.5264,-2.4966,-2.4447,-2.3648,-2.2774,-2.1966,-2.1158,-2.0754,-2.0539,-2.0612,-2.0834,-2.1194,-2.1387,-2.1585,-2.2268,-2.2851,-2.3555,-2.4316,-2.4882,-2.5398,-2.5434,-2.5479,-2.5506,-2.5493,-2.5522,-2.557,-2.5605,-2.5636,-2.5682,-2.5684,-2.5703,-2.5703,-2.5684,-2.5644,-2.5595,-2.5539,-2.5493,-2.5447,-2.5337,-2.5107,-2.4891,-2.4452,-2.4042,-2.3702,-2.3165,-2.2669,-2.1903,-2.1535,-2.129,-2.1039,-2.0748,-2.0764,-2.0731,-2.055,-2.0196,-1.9621,-1.8826,-1.8171,-1.7463,-1.671,-1.6367,-1.6238,-1.5864,-1.5332,-1.4778,-1.4236,-1.3668,-1.3133,-1.2871,-1.2304,-1.1434,-1.0922,-1.0762,-1.0466,-1.0108,-3.5098,-3.5098,-3.5078,-3.5273,-3.5566,-3.5879,-3.584,-3.5449,-3.4629,-3.3769,-3.291,-3.209,-3.1445,-3.0976,-3.0814,-3.0713,-3.0638,-3.0561,-3.0498,-3.043,-3.0402,-3.039,-3.0398,-3.0299,-2.9889,-2.9292,-2.8912,-2.8577,-2.7896,-2.6653,-2.5922,-2.5584,-2.547,-2.5256,-2.5187,-2.5217,-2.5236,-2.5171,-2.5253,-2.5274,-2.5293,-2.5139,-2.487,-2.4149,-2.3456,-2.2851,-2.2079,-2.1517,-2.1181,-2.1345,-2.1681,-2.2124,-2.2387,-2.2686,-2.3274,-2.369,-2.4372,-2.5,-2.5344,-2.5402,-2.5428,-2.5408,-2.5436,-2.544,-2.5447,-2.5503,-2.5554,-2.5598,-2.5655,-2.5684,-2.5684,-2.5683,-2.5638,-2.5601,-2.5539,-2.5482,-2.5434,-2.5379,-2.5281,-2.5046,-2.4804,-2.4334,-2.3862,-2.3486,-2.3093,-2.266,-2.222,-2.1936,-2.1642,-2.143,-2.1213,-2.1213,-2.115,-2.0991,-2.0601,-1.9993,-1.9192,-1.8249,-1.7504,-1.6752,-1.6479,-1.638,-1.6064,-1.5788,-1.5266,-1.4651,-1.39,-1.3395,-1.2978,-1.2774,-1.2412,-1.2039,-1.1864,-1.1366,-1.0813,-3.3418,-3.3379,-3.3398,-3.3945,-3.4707,-3.541,-3.5351,-3.4648,-3.375,-3.293,-3.2168,-3.1367,-3.0957,-3.0937,-3.0898,-3.0814,-3.0687,-3.0628,-3.0559,-3.0491,-3.0428,-3.0414,-3.0323,-3.0177,-2.9984,-2.9765,-2.942,-2.8933,-2.7914,-2.6921,-2.6004,-2.5303,-2.5298,-2.5252,-2.5271,-2.5273,-2.5273,-2.5264,-2.5274,-2.5313,-2.5313,-2.5274,-2.4947,-2.4409,-2.3975,-2.3522,-2.2978,-2.2608,-2.2598,-2.2718,-2.2926,-2.3053,-2.3137,-2.3185,-2.3744,-2.4375,-2.5168,-2.5395,-2.5483,-2.5466,-2.5404,-2.5374,-2.5331,-2.5329,-2.5376,-2.5421,-2.5488,-2.5547,-2.5598,-2.5634,-2.5661,-2.5634,-2.5583,-2.5543,-2.5482,-2.5428,-2.5379,-2.5309,-2.5186,-2.5005,-2.4799,-2.4388,-2.3842,-2.3432,-2.3069,-2.2738,-2.2375,-2.213,-2.1882,-2.1823,-2.1645,-2.1645,-2.1554,-2.1385,-2.0927,-2.0218,-1.9287,-1.8274,-1.7733,-1.7105,-1.6837,-1.6479,-1.625,-1.5988,-1.5683,-1.504,-1.4031,-1.3387,-1.2988,-1.2832,-1.2725,-1.2608,-1.2236,-1.1783,-1.1283,-3.3379,-3.3379,-3.3379,-3.3555,-3.3769,-3.3997,-3.4251,-3.4354,-3.3028,-3.2166,-3.1999,-3.1138,-3.0835,-3.0898,-3.0918,-3.082,-3.0713,-3.0619,-3.0581,-3.049,-3.043,-3.0414,-3.0367,-3.0299,-3.0218,-3.0106,-2.9872,-2.9456,-2.8722,-2.7599,-2.647,-2.5797,-2.5335,-2.5298,-2.5282,-2.5313,-2.5313,-2.5313,-2.5313,-2.5313,-2.5313,-2.5313,-2.5043,-2.486,-2.4398,-2.4039,-2.3848,-2.3302,-2.317,-2.311,-2.3702,-2.4003,-2.4024,-2.4564,-2.5195,-2.5254,-2.552,-2.5593,-2.5547,-2.5471,-2.5389,-2.5357,-2.5321,-2.5303,-2.5339,-2.536,-2.5408,-2.5488,-2.5543,-2.559,-2.5598,-2.5564,-2.5539,-2.5482,-2.5434,-2.5383,-2.5354,-2.5293,-2.5182,-2.4923,-2.4716,-2.4318,-2.3798,-2.3414,-2.3069,-2.2764,-2.2483,-2.2243,-2.2106,-2.2032,-2.2003,-2.1974,-2.1869,-2.1705,-2.0959,-2.0221,-1.9221,-1.8338,-1.78,-1.7271,-1.6765,-1.6479,-1.6392,-1.6132,-1.5748,-1.4936,-1.3993,-1.3486,-1.3113,-1.2929,-1.2832,-1.2774,-1.2608,-1.2206,-1.1891,-3.2402,-3.2402,-3.2422,-3.2558,-3.2826,-3.2792,-3.3059,-3.3193,-3.2331,-3.1802,-3.1435,-3.093,-3.0762,-3.0898,-3.0898,-3.0858,-3.079,-3.0672,-3.0575,-3.0537,-3.0441,-3.0414,-3.0398,-3.0386,-3.0362,-3.03,-3.0122,-2.9758,-2.9139,-2.7849,-2.6576,-2.5932,-2.5441,-2.5263,-2.5252,-2.5313,-2.5313,-2.5313,-2.5313,-2.5313,-2.5313,-2.5293,-2.5313,-2.5243,-2.4731,-2.4679,-2.4645,-2.4028,-2.4004,-2.4018,-2.4749,-2.4896,-2.4937,-2.541,-2.5644,-2.5625,-2.5642,-2.5613,-2.5573,-2.5503,-2.5447,-2.5403,-2.5337,-2.5313,-2.5313,-2.5339,-2.5387,-2.5434,-2.5482,-2.5526,-2.5522,-2.5513,-2.5465,-2.542,-2.5387,-2.5329,-2.5312,-2.5303,-2.5103,-2.4847,-2.4524,-2.4174,-2.378,-2.3419,-2.3069,-2.2764,-2.2527,-2.2332,-2.2254,-2.2209,-2.218,-2.218,-2.2106,-2.1945,-2.1085,-2.0255,-1.9403,-1.8555,-1.8013,-1.7435,-1.6808,-1.6479,-1.6436,-1.6107,-1.5744,-1.4948,-1.4238,-1.3714,-1.3334,-1.3113,-1.2891,-1.2832,-1.2822,-1.2725,-1.2461,-3.0937,-3.0957,-3.0918,-3.1383,-3.1867,-3.1906,-3.1856,-3.1732,-3.1735,-3.1403,-3.082,-3.0713,-3.0771,-3.0879,-3.0898,-3.0898,-3.082,-3.0685,-3.06,-3.0574,-3.0452,-3.039,-3.0398,-3.0398,-3.0394,-3.0308,-3.0166,-2.9969,-2.9257,-2.801,-2.6718,-2.6057,-2.5244,-2.5012,-2.5273,-2.5341,-2.536,-2.534,-2.533,-2.5339,-2.5303,-2.5303,-2.533,-2.5383,-2.5328,-2.5363,-2.545,-2.5499,-2.5603,-2.5613,-2.56,-2.5605,-2.5605,-2.5625,-2.5684,-2.5703,-2.5684,-2.5661,-2.5615,-2.5548,-2.5483,-2.5428,-2.5363,-2.5354,-2.5371,-2.5331,-2.5348,-2.5379,-2.5434,-2.5441,-2.5441,-2.5447,-2.5415,-2.5368,-2.5329,-2.5312,-2.5313,-2.5203,-2.4975,-2.4731,-2.4476,-2.4116,-2.3798,-2.3455,-2.3165,-2.2815,-2.259,-2.2415,-2.2282,-2.2282,-2.2282,-2.2254,-2.2077,-2.1811,-2.1197,-2.0369,-1.9611,-1.8858,-1.8171,-1.7435,-1.6723,-1.6522,-1.6534,-1.6207,-1.5832,-1.5312,-1.4693,-1.4057,-1.3467,-1.3065,-1.2891,-1.2891,-1.2891,-1.2891,-1.2832,-3.0918,-3.0918,-3.0918,-3.1034,-3.1149,-3.1058,-3.1016,-3.0969,-3.0928,-3.0837,-3.0638,-3.068,-3.0771,-3.0879,-3.0918,-3.0918,-3.0859,-3.0719,-3.0623,-3.0561,-3.0453,-3.0406,-3.041,-3.039,-3.0393,-3.0381,-3.0305,-3.0098,-2.9414,-2.8156,-2.7107,-2.6873,-2.5722,-2.5008,-2.5303,-2.5387,-2.541,-2.5387,-2.5413,-2.5376,-2.5321,-2.5322,-2.534,-2.5395,-2.542,-2.5482,-2.5543,-2.5595,-2.5634,-2.5662,-2.5683,-2.5684,-2.5684,-2.5703,-2.5703,-2.5703,-2.5703,-2.5684,-2.5642,-2.5598,-2.5559,-2.5519,-2.5474,-2.5449,-2.5421,-2.5346,-2.5322,-2.5348,-2.5346,-2.5363,-2.536,-2.5376,-2.5376,-2.5337,-2.5293,-2.5303,-2.5284,-2.5061,-2.4842,-2.462,-2.4409,-2.4135,-2.3816,-2.3544,-2.3236,-2.2996,-2.2746,-2.2546,-2.2332,-2.2254,-2.218,-2.2106,-2.1853,-2.1521,-2.1007,-2.0467,-1.9677,-1.8821,-1.8013,-1.7312,-1.6637,-1.6522,-1.6479,-1.6293,-1.5988,-1.5537,-1.496,-1.4197,-1.3668,-1.321,-1.2891,-1.2891,-1.2891,-1.2891,-1.2891,-3.0918,-3.0918,-3.0918,-3.0918,-3.0898,-3.0835,-3.0767,-3.0716,-3.0726,-3.0693,-3.0657,-3.0687,-3.0771,-3.0879,-3.0918,-3.0918,-3.0879,-3.0723,-3.0685,-3.0617,-3.0505,-3.0434,-3.0411,-3.0406,-3.0398,-3.0398,-3.0348,-3.0062,-2.9456,-2.828,-2.7319,-2.686,-2.5583,-2.5018,-2.5302,-2.5434,-2.5485,-2.5447,-2.5479,-2.5446,-2.5383,-2.5391,-2.5434,-2.5471,-2.5513,-2.5554,-2.5601,-2.5637,-2.5661,-2.5664,-2.5662,-2.5683,-2.5684,-2.5684,-2.5664,-2.5684,-2.5703,-2.5703,-2.5684,-2.5642,-2.5595,-2.5554,-2.5531,-2.5479,-2.5379,-2.5312,-2.5354,-2.5379,-2.533,-2.533,-2.533,-2.5339,-2.5339,-2.5313,-2.5264,-2.5254,-2.516,-2.4975,-2.4756,-2.4559,-2.4375,-2.4209,-2.3955,-2.3753,-2.3437,-2.3117,-2.2898,-2.2599,-2.2398,-2.2106,-2.2061,-2.1899,-2.1598,-2.1197,-2.0682,-2.023,-1.9728,-1.8835,-1.7973,-1.7353,-1.6795,-1.6595,-1.6479,-1.6337,-1.6207,-1.5856,-1.5266,-1.4525,-1.3978,-1.3563,-1.32,-1.2891,-1.2891,-1.2891,-1.2891,-3.0918,-3.0918,-3.0918,-3.0918,-3.0918,-3.0918,-3.0818,-3.0767,-3.0837,-3.0836,-3.0743,-3.0721,-3.0793,-3.0859,-3.0918,-3.0918,-3.0859,-3.0742,-3.0713,-3.0661,-3.0547,-3.046,-3.0414,-3.0393,-3.04,-3.0406,-3.0383,-2.9896,-2.932,-2.8185,-2.723,-2.6346,-2.5662,-2.509,-2.5324,-2.5466,-2.5505,-2.5513,-2.5524,-2.5543,-2.5531,-2.5517,-2.5535,-2.5561,-2.5603,-2.5634,-2.5683,-2.5703,-2.5703,-2.5662,-2.5638,-2.5637,-2.5636,-2.5611,-2.5655,-2.5664,-2.5684,-2.5684,-2.5683,-2.5637,-2.5576,-2.5543,-2.5522,-2.5465,-2.5379,-2.5354,-2.5391,-2.536,-2.533,-2.5303,-2.5293,-2.5293,-2.5293,-2.5284,-2.5274,-2.5224,-2.5061,-2.4896,-2.4716,-2.453,-2.4393,-2.4228,-2.4074,-2.3896,-2.3628,-2.3277,-2.2965,-2.2643,-2.2326,-2.1969,-2.1764,-2.1538,-2.1228,-2.0813,-2.0382,-2.0039,-1.9651,-1.9126,-1.8327,-1.7585,-1.6993,-1.6723,-1.6565,-1.6491,-1.6306,-1.6032,-1.5567,-1.4926,-1.4422,-1.392,-1.3334,-1.2939,-1.2891,-1.2891,-1.2891,-3.0918,-3.0918,-3.0918,-3.0918,-3.0918,-3.0918,-3.0879,-3.0879,-3.0879,-3.0859,-3.0859,-3.0859,-3.0879,-3.0918,-3.0918,-3.0918,-3.0879,-3.0771,-3.0718,-3.068,-3.0587,-3.049,-3.0451,-3.0482,-3.0404,-3.0414,-3.0411,-3.0225,-2.9255,-2.8307,-2.7692,-2.719,-2.577,-2.5303,-2.5364,-2.5486,-2.5571,-2.558,-2.5625,-2.5644,-2.5605,-2.5576,-2.5551,-2.5567,-2.5603,-2.5637,-2.5684,-2.5703,-2.5703,-2.5684,-2.5636,-2.5607,-2.5579,-2.5567,-2.557,-2.5607,-2.5633,-2.5658,-2.5637,-2.5631,-2.5567,-2.5547,-2.5526,-2.5493,-2.5415,-2.5391,-2.5406,-2.5376,-2.5329,-2.5303,-2.5293,-2.5293,-2.5313,-2.5313,-2.5284,-2.5173,-2.5041,-2.4888,-2.4723,-2.453,-2.4375,-2.4266,-2.417,-2.3976,-2.3774,-2.3437,-2.3165,-2.2832,-2.2315,-2.1911,-2.146,-2.1213,-2.091,-2.0634,-2.0314,-1.9965,-1.9573,-1.9155,-1.865,-1.7894,-1.7271,-1.6752,-1.6595,-1.6522,-1.6436,-1.625,-1.5744,-1.5287,-1.4732,-1.419,-1.3382,-1.2929,-1.2929,-1.2891,-1.2891]},{"header":{"parameterUnit":"m.s-1","parameterCategory":1,"la1":31.0,"la2":29.5877,"lo1":-88.7671,"lo2":-86.6584,"dy":0.0162,"dx":0.0185,"nx":115,"ny":88,"refTime":"2026-04-30T12:00:00:Z","depth":0,"parameterNumber":3,"parameterNumberName":"V-component_of_WINDS"},"data":[0.0,0.0,0.0,0.0,0.0,0.0,0.0,0.0,0.0,0.0,0.0,0.0,0.0,0.0,0.0,0.0,0.0,0.0,0.0,0.0,0.0,0.0,0.0,0.0,0.0,0.0,0.0,0.0,0.0,0.0,0.0,0.0,0.0,0.0,0.0,0.0,0.0,0.0,0.0,0.0,0.0,0.0,0.0,0.0,0.0,0.0,0.0,0.0,0.0,0.0,0.0,0.0,0.0,0.0,0.0,0.0,0.0,0.0,0.0,0.0,0.0,0.0,0.0,0.0,0.0,0.0,0.0,0.0,0.0,0.0,0.0,0.0,0.0,0.0,0.0,0.0,0.0,0.0,0.0,0.0,0.0,0.0,0.0,0.0,0.0,0.0,0.0,0.0,0.0,0.0,0.0,0.0,0.0,0.0,0.0,0.0,0.0,0.0,0.0,0.0,0.0,0.0,0.0,0.0,0.0,0.0,0.0,0.0,0.0,0.0,0.0,0.0,0.0,0.0,0.0,0.0,0.0,0.0,0.0,0.0,0.0,0.0,0.0,0.0,0.0,0.0,0.0,0.0,0.0,0.0,0.0,0.0,0.0,0.0,0.0,0.0,0.0,0.0,0.0,0.0,0.0,0.0,0.0,0.0,0.0,0.0,0.0,0.0,0.0,0.0,0.0,0.0,0.0,0.0,0.0,0.0,0.0,0.0,0.0,0.0,0.0,0.0,0.0,0.0,0.0,0.0,0.0,0.0,0.0,0.0,0.0,0.0,0.0,0.0,0.0,0.0,0.0,0.0,0.0,0.0,0.0,0.0,0.0,0.0,0.0,0.0,0.0,0.0,0.0,0.0,0.0,0.0,0.0,0.0,0.0,0.0,0.0,0.0,0.0,0.0,0.0,0.0,0.0,0.0,0.0,0.0,0.0,0.0,0.0,0.0,0.0,0.0,0.0,0.0,0.0,0.0,0.0,0.0,0.0,0.0,0.0,0.0,0.0,0.0,0.0,0.0,0.0,0.0,0.0,0.0,0.0,0.0,0.0,0.0,0.0,0.0,0.0,0.0,0.0,0.0,0.0,0.0,0.0,0.0,0.0,0.0,0.0,0.0,0.0,0.0,0.0,0.0,0.0,0.0,0.0,0.0,0.0,0.0,0.0,0.0,0.0,0.0,0.0,0.0,0.0,0.0,0.0,0.0,0.0,0.0,0.0,0.0,0.0,0.0,0.0,0.0,0.0,0.0,0.0,0.0,0.0,0.0,0.0,0.0,0.0,0.0,0.0,0.0,0.0,0.0,0.0,0.0,0.0,0.0,0.0,0.0,0.0,0.0,0.0,0.0,0.0,0.0,0.0,0.0,0.0,0.0,0.0,0.0,0.0,0.0,0.0,0.0,0.0,0.0,0.0,0.0,0.0,0.0,0.0,0.0,0.0,0.0,0.0,0.0,0.0,0.0,0.0,0.0,0.0,0.0,0.0,0.0,0.0,0.0,0.0,0.0,0.0,0.0,0.0,0.0,0.0,0.0,0.0,0.0,0.0,0.0,0.0,0.0,0.0,0.0,0.0,0.0,0.0,0.0,0.0,0.0,0.0,0.0,0.0,0.0,0.0,0.0,0.0,0.0,0.0,0.0,0.0,0.0,0.0,0.0,0.0,0.0,0.0,0.0,0.0,0.0,0.0,0.0,0.0,0.0,0.0,0.0,0.0,0.0,0.0,0.0,0.0,0.0,0.0,0.0,0.0,0.0,0.0,0.0,0.0,0.0,0.0,0.0,0.0,0.0,0.0,0.0,0.0,0.0,0.0,0.0,0.0,0.0,0.0,0.0,0.0,0.0,0.0,0.0,0.0,0.0,0.0,0.0,0.0,0.0,0.0,0.0,0.0,0.0,0.0,0.0,0.0,0.0,0.0,0.0,0.0,0.0,0.0,0.0,0.0,0.0,0.0,0.0,0.0,0.0,0.0,0.0,0.0,0.0,0.0,0.0,0.0,0.0,0.0,0.0,0.0,0.0,0.0,0.0,0.0,0.0,0.0,0.0,0.0,0.0,0.0,0.0,0.0,0.0,0.0,0.0,0.0,0.0,0.0,0.0,0.0,0.0,0.0,0.0,0.0,0.0,0.0,0.0,0.0,0.0,0.0,0.0,0.0,0.0,0.0,0.0,0.0,0.0,0.0,0.0,0.0,0.0,0.0,0.0,0.0,0.0,0.0,0.0,0.0,0.0,0.0,0.0,0.0,0.0,0.0,0.0,0.0,0.0,0.0,0.0,0.0,0.0,0.0,0.0,0.0,0.0,0.0,0.0,0.0,0.0,0.0,0.0,0.0,0.0,0.0,0.0,0.0,0.0,0.0,0.0,0.0,0.0,0.0,0.0,0.0,0.0,0.0,0.0,0.0,0.0,0.0,0.0,0.0,0.0,0.0,0.0,0.0,0.0,0.0,0.0,0.0,0.0,0.0,0.0,0.0,0.0,0.0,0.0,0.0,0.0,0.0,0.0,0.0,0.0,0.0,0.0,0.0,0.0,0.0,0.0,0.0,0.0,0.0,0.0,0.0,0.0,0.0,0.0,0.0,0.0,0.0,0.0,0.0,0.0,0.0,0.0,0.0,0.0,0.0,0.0,0.0,0.0,0.0,0.0,0.0,0.0,0.0,0.0,0.0,0.0,0.0,0.0,0.0,0.0,0.0,0.0,0.0,0.0,0.0,0.0,0.0,0.0,0.0,0.0,0.0,0.0,0.0,0.0,0.0,0.0,0.0,0.0,0.0,0.0,0.0,0.0,0.0,0.0,0.0,0.0,0.0,0.0,0.0,0.0,0.0,0.0,0.0,0.0,0.0,0.0,0.0,0.0,0.0,0.0,0.0,0.0,0.0,0.0,0.0,0.0,0.0,0.0,0.0,0.0,0.0,0.0,0.0,0.0,0.0,0.0,0.0,0.0,0.0,0.0,0.0,0.0,0.0,0.0,0.0,0.0,0.0,0.0,0.0,0.0,0.0,0.0,0.0,0.0,0.0,0.0,0.0,0.0,0.0,0.0,0.0,0.0,0.0,0.0,0.0,0.0,0.0,0.0,0.0,0.0,0.0,0.0,0.0,0.0,0.0,0.0,0.0,0.0,0.0,0.0,0.0,0.0,0.0,0.0,0.0,0.0,0.0,0.0,0.0,0.0,0.0,0.0,0.0,0.0,0.0,0.0,0.0,0.0,0.0,0.0,0.0,0.0,0.0,0.0,0.0,0.0,0.0,0.0,0.0,0.0,0.0,0.0,0.0,0.0,0.0,0.0,0.0,0.0,0.0,0.0,0.0,0.0,0.0,0.0,0.0,0.0,0.0,0.0,0.0,0.0,0.0,0.0,0.0,0.0,0.0,0.0,0.0,0.0,0.0,0.0,0.0,0.0,0.0,0.0,0.0,0.0,0.0,0.0,0.0,0.0,0.0,0.0,0.0,0.0,0.0,0.0,0.0,0.0,0.0,0.0,0.0,0.0,0.0,0.0,0.0,0.0,0.0,0.0,0.0,0.0,0.0,0.0,0.0,0.0,0.0,0.0,0.0,0.0,0.0,0.0,0.0,0.0,0.0,0.0,0.0,0.0,0.0,0.0,0.0,0.0,0.0,0.0,0.0,0.0,0.0,0.0,0.0,0.0,0.0,0.0,0.0,0.0,0.0,0.0,0.0,0.0,0.0,0.0,0.0,0.0,0.0,0.0,0.0,0.0,0.0,0.0,0.0,0.0,0.0,0.0,0.0,0.0,0.0,0.0,0.0,0.0,0.0,0.0,0.0,0.0,0.0,0.0,0.0,0.0,0.0,0.0,0.0,0.0,0.0,0.0,0.0,0.0,0.0,0.0,0.0,0.0,0.0,0.0,0.0,0.0,0.0,0.0,0.0,0.0,0.0,0.0,0.0,0.0,0.0,0.0,0.0,0.0,0.0,0.0,0.0,0.0,0.0,0.0,0.0,0.0,0.0,0.0,0.0,0.0,0.0,0.0,0.0,0.0,0.0,0.0,0.0,0.0,0.0,0.0,0.0,0.0,0.0,0.0,0.0,0.0,0.0,0.0,0.0,0.0,0.0,0.0,0.0,0.0,0.0,0.0,0.0,0.0,0.0,0.0,0.0,0.0,0.0,0.0,0.0,0.0,0.0,0.0,0.0,0.0,0.0,0.0,0.0,0.0,0.0,0.0,0.0,0.0,0.0,0.0,0.0,0.0,0.0,0.0,0.0,0.0,0.0,0.0,0.0,0.0,0.0,0.0,0.0,0.0,0.0,0.0,0.0,0.0,0.4827,0.0,0.0,0.0,0.0,0.0,0.0,0.0,0.0,0.0,0.0,0.0,0.0,0.0,0.0,0.0,0.0,0.0,0.0,0.0,0.0,0.0,0.0,0.0,0.0,0.0,0.0,0.0,0.0,0.0,0.0,0.0,0.0,0.0,0.0,0.0,0.0,0.0,0.0,0.0,0.0,0.0,0.0,0.0,0.0,0.0,0.0,0.0,0.0,0.0,0.0,0.0,0.0,0.0,0.0,0.0,0.0,0.0,0.0,0.0,0.0,0.0,0.0,0.0,0.0,0.0,0.0,0.0,0.0,0.0,0.0,0.0,0.0,0.0,0.0,0.0,0.0,0.0,0.0,0.0,0.0,0.0,0.0,0.0,0.0,0.0,0.0,0.0,0.0,0.0,0.0,0.0,0.0,0.0,0.0,0.0,0.0,0.0,0.0,0.0,0.0,0.0,0.0,0.0,0.0,0.0,0.0,0.0,0.0,0.0,0.0,0.5309,0.5309,0.5309,0.5217,0.509,0.0,0.0,0.0,0.0,0.0,0.0,0.0,0.0,0.0,0.0,0.0,0.0,0.0,0.0,0.0,0.0,0.0,0.0,0.0,0.0,0.0,0.0,0.0,0.0,0.0,0.0,0.0,0.0,0.0,0.0,0.0,0.0,0.0,0.0,0.0,0.0,0.0,0.0,0.0,0.0,0.0,0.0,0.0,0.0,0.0,0.0,0.0,0.0,0.0,0.0,0.0,0.0,0.0,0.0,0.0,0.0,0.0,0.0,0.0,0.0,0.0,0.0,0.0,0.0,0.0,0.0,0.0,0.0,0.0,0.0,0.0,0.0,0.0,0.0,0.0,0.0,0.0,0.0,0.0,0.0,0.0,0.0,0.0,0.0,0.0,0.0,0.0,0.0,0.0,0.0,0.0,0.0,0.0,0.0,0.0,0.0,0.0,0.0,0.0,0.0,0.0,0.0,0.0,0.0,0.0,0.0,0.0,0.0,0.0,0.0,0.0,0.0,0.5478,0.5444,0.5384,0.0,0.0,0.0,0.0,0.0,0.0,0.0,0.0,0.0,0.0,0.0,0.0,0.0,0.0,0.0,0.0,0.0,0.0,0.0,0.0,0.0,0.0,0.0,0.0,0.0,0.0,0.0,0.0,0.0,0.0,0.0,0.0,0.0,0.0,0.0,0.0,0.0,0.0,0.0,0.0,0.0,0.0,0.0,0.0,0.0,0.0,0.0,0.0,0.0,0.0,0.0,0.0,0.0,0.0,0.0,0.0,0.0,0.0,0.0,0.0,0.0,0.0,0.0,0.0,0.0,0.0,0.0,0.0,0.0,0.0,0.0,0.0,0.0,0.0,0.0,0.0,0.0,0.0,0.0,0.0,0.0,0.0,0.0,0.0,0.0,0.0,0.0,0.0,0.0,0.0,0.0,0.0,0.0,0.0,0.0,0.0,0.0,0.0,0.0,0.0,0.0,0.0,0.0,0.0,0.0,0.0,0.0,0.0,0.0,0.0,0.5571,0.6095,0.6109,0.0,0.5698,0.0,0.0,0.0,0.0,0.0,0.0,0.0,0.0,0.0,0.0,0.0,0.0,0.0,0.0,0.0,0.0,0.0,0.0,0.0,0.0,0.0,0.0,0.0,0.0,0.0,0.0,0.0,0.0,0.0,0.0,0.0,0.0,0.0,0.0,0.0,0.0,0.0,0.0,0.0,0.0,0.0,0.0,0.0,0.0,0.0,0.0,0.0,0.0,0.0,0.0,0.0,0.0,0.0,0.0,0.0,0.0,0.0,0.0,0.0,0.0,0.0,0.0,0.0,0.0,0.0,0.0,0.0,0.0,0.0,0.0,0.0,0.0,0.0,0.0,0.0,0.0,0.0,0.0,0.0,0.0,0.0,0.0,0.0,0.0,0.0,0.0,0.0,0.0,0.0,0.0,0.0,0.0,0.0,0.0,0.0,0.0,0.0,0.0,0.0,0.0,0.0,0.0,0.0,0.0,0.0,0.0,0.0,0.0,0.0,0.0,0.0,0.6189,0.6021,0.5838,0.0,0.0,0.0,0.0,0.0,0.0,0.0,0.0,0.0,0.0,0.0,0.0,0.0,0.0,0.0,0.0,0.0,0.0,0.0,0.0,0.0,0.0,0.0,0.0,0.0,0.0,0.0,0.0,0.0,0.0,0.0,0.0,0.0,0.0,0.0,0.0,0.0,0.0,0.0,0.0,0.0,0.0,0.0,0.0,0.0,0.0,0.0,0.0,0.0,0.0,0.0,0.0,0.0,0.0,0.0,0.0,0.0,0.0,0.0,0.0,0.0,0.0,0.0,0.0,0.0,0.0,0.0,0.0,0.0,0.0,0.0,0.0,0.0,0.0,0.0,0.0,0.0,0.0,0.0,0.0,0.0,0.0,0.0,0.0,0.0,0.0,0.0,0.0,0.0,0.0,0.0,0.0,0.0,0.0,0.0,0.0,0.0,0.0,0.0,0.0,0.0,0.0,0.0,0.0,0.0,0.0,0.0,0.0,0.0,0.0,0.6062,0.0,0.6303,0.6139,0.592,0.5576,0.0,0.0,0.0,0.0,0.0,0.0,0.0,0.0,0.0,0.0,0.0,0.0,0.0,0.0,0.0,0.0,0.0,0.0,0.0,0.0,0.0,0.0,0.0,0.0,0.0,0.0,0.0,0.0,0.0,0.0,0.0,0.0,0.0,0.0,0.0,0.0,0.0,0.0,0.0,0.0,0.0,0.0,0.0,0.0,0.0,0.0,0.0,0.0,0.0,0.0,0.0,0.0,0.0,0.0,0.0,0.0,0.0,0.0,0.0,0.0,0.0,0.0,0.0,0.0,0.0,0.0,0.0,0.0,0.0,0.0,0.0,0.0,0.0,0.0,0.0,0.0,0.0,0.0,0.0,0.0,0.0,0.0,0.0,0.0,0.0,0.0,0.0,0.0,0.0,0.0,0.0,0.0,0.0,0.0,0.0,0.0,0.0,0.0,0.0,0.0,0.0,0.0,0.0,0.0,0.0,0.0,0.0,0.0,0.0,0.6451,0.633,0.6619,0.6814,0.6375,0.0,0.0,0.0,0.0,0.0,0.0,0.0,0.0,0.0,0.0,0.0,0.0,0.0,0.0,0.0,0.0,0.0,0.0,0.0,0.0,0.0,0.0,0.0,0.0,0.0,0.0,0.0,0.0,0.0,0.0,0.0,0.0,0.0,0.0,0.0,0.0,0.0,0.0,0.0,0.0,0.0,0.0,0.0,0.0,0.0,0.0,0.0,0.0,0.0,0.0,0.0,0.0,0.0,0.0,0.0,0.0,0.0,0.0,0.0,0.0,0.0,0.0,0.0,0.0,0.0,0.0,0.0,0.0,0.0,0.0,0.0,0.0,0.0,0.0,0.0,0.0,0.0,0.0,0.0,0.0,0.0,0.0,0.0,0.0,0.0,0.0,0.0,0.0,0.0,0.0,0.0,0.0,0.0,0.0,0.0,0.0,0.0,0.0,0.0,0.0,0.0,0.0,0.0,0.0,0.0,0.0,0.0,0.0,0.0,0.5878,0.6047,0.689,0.8329,0.6996,0.636,0.0,0.0,0.0,0.0,0.0,0.0,0.0,0.0,0.0,0.0,0.0,0.0,0.0,0.0,0.0,0.0,0.0,0.0,0.0,0.0,0.0,0.0,0.0,0.0,0.0,0.0,0.0,0.0,0.0,0.0,0.0,0.0,0.0,0.0,0.0,0.0,0.0,0.0,0.0,0.0,0.0,0.0,0.0,0.0,0.0,0.0,0.0,0.0,0.0,0.0,0.0,0.0,0.0,0.0,0.0,0.0,0.0,0.0,0.0,0.0,0.0,0.0,0.0,0.0,0.0,0.0,0.0,0.0,0.0,0.0,0.0,0.0,0.0,0.0,0.0,0.0,0.0,0.0,0.0,0.0,0.0,0.0,0.0,0.0,0.0,0.0,0.0,0.0,0.0,0.0,0.0,0.0,0.0,0.0,0.0,0.0,0.0,0.0,0.0,0.0,0.0,0.0,0.0,0.0,0.0,0.0,0.0,0.0,0.0,0.6222,0.0,0.7858,0.0,0.73,0.6535,0.0,0.0,0.0,0.0,0.0,0.0,0.0,0.0,0.0,0.0,0.0,0.0,0.0,0.0,0.0,0.0,0.0,0.0,0.0,0.0,0.0,0.0,0.0,0.0,0.0,0.0,0.0,0.0,0.0,0.0,0.0,0.0,0.0,0.0,0.0,0.0,0.0,0.0,0.0,0.0,0.0,0.0,0.0,0.0,0.0,0.0,0.0,0.0,0.0,0.0,0.0,0.0,0.0,0.0,0.0,0.0,0.0,0.0,0.0,0.0,0.0,0.0,0.0,0.0,0.0,0.0,0.0,0.0,0.0,0.0,0.0,0.0,0.0,0.0,0.0,0.0,0.0,0.0,0.0,0.0,0.0,0.0,0.0,0.0,0.0,0.0,0.0,0.0,0.0,0.0,0.0,0.0,0.0,0.0,0.0,0.0,0.0,0.0,0.0,0.0,0.0,0.0,0.0,0.0,0.0,0.0,0.0,0.0,0.6271,0.8067,0.9218,0.9165,0.7746,0.7891,0.6965,0.0,0.0,0.0,0.0,0.0,0.0,0.0,0.0,0.0,0.0,0.0,0.0,0.0,0.0,0.0,0.0,0.0,0.0,0.0,0.0,0.0,0.0,0.0,0.0,0.0,0.0,0.0,0.0,0.0,0.0,0.0,0.0,0.0,0.0,0.0,0.0,0.0,0.0,0.0,0.0,0.0,0.0,0.0,0.0,0.0,0.0,0.0,0.0,0.0,0.0,0.0,0.0,0.0,0.0,0.0,0.0,0.0,0.0,0.0,0.0,0.0,0.0,0.0,0.0,0.0,0.0,0.0,0.0,0.0,0.0,0.0,0.0,0.0,0.0,0.0,0.0,0.0,0.0,0.0,0.0,0.0,0.0,0.0,0.0,0.0,0.0,0.0,0.0,0.0,0.0,0.0,0.0,0.0,0.0,0.0,0.0,0.0,0.0,0.0,0.0,0.0,0.0,0.0,0.0,0.0,0.0,0.0,0.0,0.0,0.8926,0.9623,1.0283,1.0855,0.8961,0.7803,0.0,0.0,0.0,0.0,0.0,0.0,0.0,0.0,0.0,0.0,0.0,0.0,0.0,0.0,0.0,0.0,0.0,0.0,0.0,0.0,0.0,0.0,0.0,0.0,0.0,0.0,0.0,0.0,0.0,0.0,0.0,0.0,0.0,0.0,0.0,0.0,0.0,0.0,0.0,0.0,0.0,0.0,0.0,0.0,0.0,0.0,0.0,0.0,0.0,0.0,0.0,0.0,0.0,0.0,0.0,0.0,0.0,0.0,0.0,0.0,0.0,0.0,0.0,0.0,0.0,0.0,0.0,0.0,0.0,0.0,0.0,0.0,0.0,0.0,0.0,0.0,0.0,0.0,0.0,0.0,0.0,0.0,0.0,0.0,0.0,0.0,0.0,0.0,0.0,0.0,0.0,0.0,0.0,0.0,0.0,0.0,0.0,0.0,0.0,0.0,0.0,0.0,0.0,0.0,0.0,0.0,0.0,0.0,0.0,1.1171,1.1538,1.1828,1.2031,1.007,0.8856,0.8449,0.0,0.0,0.0,0.0,0.0,0.0,0.0,0.0,0.0,0.0,0.0,0.0,0.0,0.0,0.0,0.0,0.0,0.0,0.0,0.0,0.0,0.0,0.0,0.0,0.0,0.0,0.0,0.0,0.0,0.0,0.0,0.0,0.0,0.0,0.0,0.0,0.0,0.0,0.0,0.0,0.0,0.0,0.0,0.0,0.0,0.0,0.0,0.0,0.0,0.0,0.0,0.0,0.0,0.0,0.0,0.0,0.0,0.0,0.0,0.0,0.0,0.0,0.0,0.0,0.0,0.0,0.0,0.0,0.0,0.0,0.0,0.0,0.0,0.0,0.0,0.0,0.0,0.0,0.0,0.0,0.0,0.0,0.0,0.0,0.0,0.0,0.0,0.0,0.0,0.0,0.0,0.0,0.0,0.0,0.0,0.0,0.0,0.0,0.0,0.0,0.0,0.0,0.0,0.0,0.0,0.0,0.0,0.0,1.4304,1.4601,1.3672,1.1501,1.1264,1.0088,0.0,0.0,0.0,0.0,0.0,0.0,0.0,0.0,0.0,0.0,0.0,0.0,0.0,0.0,0.0,0.0,0.0,0.0,0.0,0.0,0.0,0.0,0.0,0.0,0.0,0.0,0.0,0.0,0.0,0.0,0.0,0.0,0.0,0.0,0.0,0.0,0.0,0.0,0.0,0.0,0.0,0.0,0.0,0.0,0.0,0.0,0.0,0.0,0.0,0.0,0.0,0.0,0.0,0.0,0.0,0.0,0.0,0.0,0.0,0.0,0.0,0.0,0.0,0.0,0.0,0.0,0.0,0.0,0.0,0.0,0.0,0.0,0.0,0.0,0.0,0.0,0.0,0.0,0.0,0.0,0.0,0.0,0.0,0.0,0.0,0.0,0.0,0.0,0.0,0.0,0.0,0.0,0.0,0.0,0.0,0.0,0.0,0.0,0.0,0.0,0.0,0.0,0.0,0.0,0.0,0.0,0.0,0.0,0.0,1.4742,1.5168,1.4842,1.3783,1.2811,1.1423,0.0,0.0,0.0,0.0,0.0,0.0,0.0,0.0,0.0,0.0,0.0,0.0,0.0,0.0,0.0,0.0,0.0,0.0,0.0,0.0,0.0,0.0,0.0,0.0,0.0,0.0,0.0,0.0,0.0,0.0,0.0,0.0,0.0,0.0,0.0,0.0,0.0,0.0,0.0,0.0,0.0,0.0,0.0,0.0,0.0,0.0,0.0,0.0,0.0,0.0,0.0,0.0,0.0,0.0,0.0,0.0,0.0,0.0,0.0,0.0,0.0,0.0,0.0,0.0,0.0,0.0,0.0,0.0,0.0,0.0,0.0,0.0,0.0,0.0,0.0,0.0,0.0,0.0,0.0,0.0,0.0,0.0,0.0,0.0,0.0,0.0,0.0,0.0,0.0,0.0,0.0,0.0,0.0,0.0,0.0,0.0,0.0,0.0,0.0,0.0,0.0,0.0,0.0,0.0,0.0,0.0,0.0,0.0,1.3994,1.5948,1.5971,1.5796,1.5407,1.4004,1.2469,0.0,0.0,0.0,0.0,0.0,0.0,0.0,0.0,0.0,0.0,0.0,0.0,0.0,0.0,0.0,0.0,0.0,0.0,0.0,0.0,0.0,0.0,0.0,0.0,0.0,0.0,0.0,0.0,0.0,0.0,0.0,0.0,0.0,0.0,0.0,0.0,0.0,0.0,0.0,0.0,0.0,0.0,0.0,0.0,0.0,0.0,0.0,0.0,0.0,0.0,0.0,0.0,0.0,0.0,0.0,0.0,0.0,0.0,0.0,0.0,0.0,0.0,0.0,0.0,0.0,0.0,0.0,0.0,0.0,0.0,0.0,0.0,0.0,0.0,0.0,0.0,0.0,0.0,0.0,0.0,0.0,0.0,0.0,0.0,0.0,0.0,0.0,0.0,0.0,0.0,0.0,0.0,0.0,0.0,0.0,0.0,0.0,0.0,0.0,0.0,0.0,0.0,0.0,0.0,0.0,0.0,0.0,0.0,1.4888,1.7313,1.6767,1.6478,1.6524,1.5,1.3412,0.0,0.0,0.0,0.0,0.0,0.0,0.0,0.0,0.0,0.0,0.0,0.0,0.0,0.0,0.0,0.0,0.0,0.0,0.0,0.0,0.0,0.0,0.0,0.0,0.0,0.0,0.0,0.0,0.0,0.0,0.0,0.0,0.0,0.0,0.0,0.0,0.0,0.0,0.0,0.0,0.0,0.0,0.0,0.0,0.0,0.0,0.0,0.0,0.0,0.0,0.0,0.0,0.0,0.0,0.0,0.0,0.0,0.0,0.0,0.0,0.0,0.0,0.0,0.0,0.0,0.0,0.0,0.0,0.0,0.0,0.0,0.0,0.0,0.0,0.0,0.0,0.0,0.0,0.0,0.0,0.0,0.0,0.0,0.0,0.0,0.0,0.0,0.0,0.0,0.0,0.0,0.0,0.0,0.0,0.0,0.0,0.0,0.0,0.0,0.0,0.0,0.0,0.0,0.0,0.0,0.0,0.0,0.0,1.5514,1.73,1.6345,1.6426,1.7778,1.6213,1.434,0.0,0.0,0.0,0.0,0.0,0.0,0.0,0.0,0.0,0.0,0.0,0.0,0.0,0.0,0.0,0.0,0.0,0.0,0.0,0.0,0.0,0.0,0.0,0.0,0.0,0.0,0.0,0.0,0.0,0.0,0.0,0.0,0.0,0.0,0.0,0.0,0.0,0.0,0.0,0.0,0.0,0.0,0.0,0.0,0.0,0.0,0.0,0.0,0.548,0.0,0.0,0.0,0.0,0.0,0.0,0.0,0.0,0.0,0.0,0.0,0.0,0.0,0.0,0.0,0.0,0.0,0.0,0.0,0.0,0.0,0.0,0.0,0.0,0.0,0.0,0.0,0.0,0.0,0.0,0.0,0.0,0.0,0.0,0.0,0.0,0.0,0.0,0.0,0.0,0.0,0.0,0.0,0.0,0.0,0.0,0.0,0.0,0.0,0.0,0.0,0.0,0.0,0.0,0.0,0.0,0.0,0.0,0.0,1.6208,1.7325,1.6794,1.6872,1.7739,1.6931,1.5337,0.0,0.0,0.0,0.0,0.0,0.0,0.0,0.0,0.0,0.0,0.0,0.0,0.0,0.0,0.0,0.0,0.0,0.0,0.0,0.0,0.0,0.0,0.0,0.0,0.0,0.0,0.0,0.0,0.0,0.0,0.0,0.0,0.0,0.0,0.0,0.0,0.0,0.0,0.0,0.0,0.0,0.0,0.0,0.0,0.0,0.0,0.0,0.0,0.0,0.0,0.0,0.0,0.0,0.0,0.0,0.0,0.0,0.0,0.0,0.0,0.0,0.0,0.0,0.0,0.0,0.0,0.0,0.0,0.0,0.0,0.0,0.0,0.0,0.0,0.0,0.0,0.0,0.0,0.0,0.0,0.0,0.0,0.0,0.0,0.0,0.0,0.0,0.0,0.0,0.0,0.0,0.0,0.0,0.0,0.0,0.0,0.0,0.0,0.0,0.0,0.0,0.0,0.0,0.0,0.0,0.0,0.0,1.5244,1.684,1.7485,1.7632,1.7677,1.7607,1.7502,1.6307,1.3994,0.0,0.0,0.0,0.0,0.0,0.0,0.0,0.0,0.0,0.0,0.0,0.0,0.0,0.0,0.0,0.0,0.0,0.0,0.0,0.0,0.0,0.0,0.0,0.0,0.0,0.0,0.0,0.0,0.0,0.0,0.0,0.0,0.0,0.0,0.0,0.0,0.0,0.0,0.4999,0.5161,0.0,0.0,0.0,0.0,0.0,0.0,0.0,0.0,0.5164,0.0,0.0,0.0,0.0,0.0,0.0,0.0,0.0,0.0,0.0,0.0,0.0,0.0,0.0,0.0,0.0,0.0,0.0,0.0,0.0,0.0,0.0,0.0,0.0,0.0,0.0,0.0,0.0,0.0,0.0,0.0,0.0,0.0,0.0,0.0,0.0,0.0,0.0,0.0,0.0,0.0,0.0,0.0,0.0,0.0,0.0,0.0,0.0,0.0,0.0,0.0,0.0,0.0,0.0,0.0,0.0,1.4475,1.5919,1.71,1.8053,1.8569,1.8767,1.8655,1.8221,1.6959,1.4878,0.0,0.0,0.0,0.0,0.0,0.0,0.0,0.0,0.0,0.0,0.0,0.0,0.0,0.0,0.0,0.0,0.0,0.0,0.0,0.0,0.0,0.0,0.0,0.0,0.0,0.0,0.0,0.0,0.0,0.0,0.0,0.0,0.0,0.0,0.0,0.0,0.0,0.0,0.0,0.5959,0.5886,0.0,0.0,0.0,0.0,0.0,0.0,0.0,0.0,0.4045,0.0,0.0,0.0,0.0,0.0,0.0,0.0,0.0,0.0,0.0,0.0,0.0,0.0,0.0,0.0,0.0,0.0,0.0,0.0,0.0,0.0,0.0,0.0,0.0,0.0,0.0,0.0,0.0,0.0,0.0,0.0,0.0,0.0,0.0,0.0,0.0,0.0,0.0,0.0,0.0,0.0,0.0,0.0,0.0,0.0,0.0,0.0,0.0,0.0,0.0,0.0,0.0,0.0,0.0,0.0,1.4378,1.6688,1.7923,1.8152,1.8686,1.8852,1.848,1.7841,1.6711,0.0,0.0,0.0,0.0,0.0,0.0,0.0,0.0,0.0,0.0,0.0,0.0,0.0,0.0,0.0,0.0,0.0,0.0,0.0,0.0,0.0,0.0,0.0,0.0,0.0,0.0,0.0,0.0,0.0,0.0,0.0,0.0,0.0,0.0,0.0,0.0,0.0,0.0,0.0,0.0,0.6336,0.6203,0.6195,0.0,0.0,0.0,0.0,0.0,0.0,0.4152,0.3596,0.0,0.0,0.0,0.0,0.0,0.0,0.0,0.0,0.0,0.0,0.0,0.0,0.0,0.0,0.0,0.0,0.0,0.0,0.0,0.0,0.0,0.0,0.0,0.0,0.0,0.0,0.0,0.0,0.0,0.0,0.0,0.0,0.0,0.0,0.0,0.0,0.0,0.0,0.0,0.0,0.0,0.0,0.0,0.0,0.0,0.0,0.0,0.0,0.0,0.0,0.0,0.0,0.0,0.0,0.0,1.4157,1.716,1.8585,1.8305,1.8902,1.9011,1.8433,1.7806,1.6742,0.0,0.0,0.0,0.0,0.0,0.0,0.0,0.0,0.0,0.0,0.0,0.0,0.0,0.0,0.0,0.0,0.0,0.0,0.0,0.0,0.0,0.0,0.0,0.0,0.0,0.0,0.0,0.0,0.0,0.0,0.0,0.0,0.0,0.0,0.0,0.0,0.0,0.0,0.0,0.0,0.0,0.6314,0.6293,0.5974,0.0,0.0,0.0,0.0,0.4789,0.3917,0.0,0.0,0.0,0.0,0.0,0.0,0.0,0.0,0.0,0.0,0.0,0.0,0.0,0.0,0.0,0.0,0.0,0.0,0.0,0.0,0.0,0.0,0.0,0.0,0.0,0.0,0.0,0.0,0.0,0.0,0.0,0.0,0.0,0.0,0.0,0.0,0.0,0.0,0.0,0.0,0.0,0.0,0.0,0.0,0.0,0.0,0.0,0.0,0.0,0.0,0.0,0.0,0.0,0.0,0.0,0.0,1.4442,1.6984,1.8454,1.8841,1.9903,2.0175,1.9545,1.9417,1.8216,0.0,0.0,0.0,0.0,0.0,0.0,0.0,0.0,0.0,0.0,0.0,0.0,0.0,0.0,0.0,0.0,0.0,0.0,0.0,0.0,0.0,0.0,0.0,0.0,0.0,0.0,0.0,0.0,0.0,0.0,0.0,0.0,0.0,0.0,0.0,0.0,0.0,0.0,0.0,0.0,0.0,0.628,0.5705,0.4942,0.4625,0.0,0.0,0.4088,0.5446,0.4311,0.0,0.0,0.0,0.0,0.0,0.0,0.0,0.0,0.0,0.0,0.0,0.0,0.0,0.0,0.0,0.0,0.0,0.0,0.0,0.0,0.0,0.0,0.0,0.0,0.0,0.0,0.0,0.0,0.0,0.0,0.0,0.0,0.0,0.0,0.0,0.0,0.0,0.0,0.0,0.0,0.0,0.0,0.0,0.0,0.0,0.0,0.0,0.0,0.0,0.0,0.0,0.0,0.0,0.0,0.0,1.3049,1.4982,1.7675,1.9146,1.9369,1.9864,1.9827,1.9258,1.8446,1.7005,0.0,0.0,0.0,0.0,0.0,0.0,0.0,0.0,0.0,0.0,0.0,0.0,0.0,0.0,0.0,0.0,0.0,0.0,0.0,0.0,0.0,0.0,0.0,0.0,0.0,0.0,0.0,0.0,0.0,0.0,0.0,0.0,0.0,0.0,0.0,0.0,0.0,0.0,0.0,0.0,0.0,0.0,0.6068,0.5222,0.0,0.0,0.0,0.3895,0.4556,0.0,0.0,0.0,0.0,0.0,0.0,0.0,0.0,0.0,0.0,0.0,0.0,0.0,0.0,0.0,0.0,0.0,0.0,0.0,0.0,0.0,0.0,0.0,0.0,0.0,0.0,0.0,0.0,0.0,0.0,0.0,0.0,0.0,0.0,0.0,0.0,0.0,0.0,0.0,0.0,0.0,0.0,0.0,0.0,0.0,0.0,0.0,0.0,0.0,0.0,0.0,0.0,0.0,0.0,0.0,0.0,0.0,1.5433,1.8242,1.9705,1.969,1.9581,1.9281,1.8902,1.7656,0.0,0.0,0.0,0.0,0.0,0.0,0.0,0.0,0.0,0.0,0.0,0.0,0.0,0.0,0.0,0.0,0.0,0.0,0.0,0.0,0.0,0.0,0.0,0.0,0.0,0.0,0.0,0.6145,0.0,0.0,0.0,0.0,0.0,0.0,0.0,0.0,0.0,0.0,0.0,0.0,0.0,0.0,0.5697,0.5845,0.5085,0.4536,0.0,0.0,0.39,0.4514,0.3117,0.2046,0.0,0.0,0.0,0.0,0.0,0.0,0.0,0.0,0.0,0.0,0.0,0.0,0.0,0.0,0.0,0.0,0.0,0.0,0.0,0.0,0.0,0.0,0.0,0.0,0.0,0.0,0.0,0.0,0.0,0.0,0.0,0.0,0.0,0.0,0.0,0.0,0.0,0.0,0.0,0.0,0.0,0.0,0.0,0.0,0.0,0.0,0.0,0.0,0.0,0.0,0.0,0.0,0.0,0.0,0.0,1.58,1.8358,1.969,1.969,1.9207,1.893,1.8878,1.8201,1.6915,0.0,0.0,0.0,0.0,0.0,0.0,0.0,0.0,0.0,0.0,0.0,0.0,0.0,0.0,0.0,0.0,0.0,0.0,0.0,0.0,0.0,0.0,0.0,0.0,0.0,0.0,0.0,0.0,0.0,0.0,0.0,0.0,0.0,0.0,0.0,0.0,0.0,0.0,0.0,0.0,0.0,0.4752,0.4233,0.3798,0.3776,0.0,0.0,0.4119,0.6416,0.3049,0.0163,0.0193,0.0,0.0,0.0,0.0,0.0,0.0,0.0,0.0,0.0,0.0,0.0,0.0,0.0,0.0,0.0,0.0,0.0,0.0,0.0,0.0,0.0,0.0,0.0,0.0,0.0,0.0,0.0,0.0,0.0,0.0,0.0,0.0,0.0,0.0,0.0,0.0,0.0,0.0,0.0,0.0,0.0,0.0,0.0,0.0,0.0,0.0,0.0,0.0,0.0,0.0,0.0,0.0,0.0,1.44,1.5814,1.8392,1.953,1.9221,1.9006,1.8727,1.8419,1.8354,1.7166,0.0,0.0,0.0,0.0,0.0,0.0,0.0,0.0,0.0,0.0,0.0,0.0,0.0,0.0,0.0,0.0,0.0,0.0,0.0,0.0,0.0,0.0,0.0,0.0,0.0,0.0,0.0,0.0,0.502,0.4857,0.4926,0.0,0.0,0.0,0.0,0.0,0.0,0.0,0.0,0.0,0.0,0.4373,0.4725,0.4062,0.0,0.0,0.3302,0.2968,0.368,0.1687,-0.0751,-0.2916,-0.3282,0.0,0.0,0.0,0.0,0.0,0.0,0.0,0.0,0.0,0.0,0.0,0.0,0.0,0.0,0.0,0.0,0.0,0.0,0.0,0.0,0.0,0.0,0.0,0.0,0.0,0.0,0.0,0.0,0.0,0.0,0.0,0.0,0.0,0.0,0.0,0.0,0.0,0.0,0.0,0.0,0.0,0.0,0.0,0.0,0.0,0.0,0.0,0.0,0.0,0.0,0.0,0.0,1.4453,1.5799,1.8392,1.9588,1.931,1.9177,1.8935,1.8549,1.8801,1.7762,0.0,0.0,0.0,0.0,0.0,0.0,0.0,0.0,0.0,0.0,0.0,0.0,0.0,0.0,0.0,0.0,0.0,0.0,0.0,0.0,0.0,0.0,0.0,0.0,0.0,0.0,0.0,0.0,0.5359,0.5095,0.5564,0.0,0.0,0.0,0.0,0.0,0.0,0.0,0.0,0.0,0.0,0.3983,0.4216,0.367,0.3078,0.2586,0.2271,0.1868,0.1336,-0.0042,-0.1794,-0.3908,0.0,0.0,0.0,0.0,0.0,0.0,0.0,0.0,0.0,0.0,0.0,0.0,0.0,0.0,0.0,0.0,0.0,0.0,0.0,0.0,0.0,0.0,0.0,0.0,0.0,0.0,0.0,0.0,0.0,0.0,0.7762,0.0,0.0,0.0,0.0,0.0,0.0,0.0,0.0,0.0,0.0,0.0,0.0,0.0,0.0,0.0,0.0,0.0,0.0,0.0,0.0,0.0,0.0,1.4494,1.5814,1.8443,1.9894,2.023,1.9834,1.9577,1.9483,1.9601,1.8833,1.6993,0.0,0.0,0.0,0.0,0.0,0.0,0.0,0.0,0.0,0.0,0.0,0.0,0.0,0.0,0.0,0.0,0.0,0.0,0.0,0.0,0.0,0.0,0.0,0.0,0.0,0.0,0.6865,0.6367,0.6171,0.0,0.0,0.0,0.0,0.0,0.0,0.0,0.0,0.0,0.0,0.3974,0.3524,0.2083,0.2184,0.1823,0.0445,0.0755,0.0932,0.0178,-0.1906,-0.3162,0.0,0.0,0.0,0.0,0.0,0.0,0.0,0.0,0.0,0.0,0.0,0.0,0.0,0.0,0.0,0.0,0.0,0.0,0.0,0.0,0.0,0.0,0.0,0.0,0.0,0.0,0.0,1.3796,1.3192,0.0,0.0,0.0,0.0,0.0,0.0,0.0,0.0,0.0,0.0,0.0,1.0279,0.9871,0.0,0.0,0.0,0.0,0.0,0.0,0.0,0.0,0.0,0.0,0.0,0.0,1.5975,1.7571,1.991,2.1103,2.1039,2.0888,2.0595,2.019,2.1028,2.0533,1.8534,0.0,0.0,0.0,0.0,0.0,0.0,0.0,0.0,0.0,0.0,0.0,0.0,0.0,0.0,0.0,0.0,0.0,0.0,0.0,0.0,0.0,0.0,0.0,0.0,0.0,0.7082,0.0,0.0,0.0,0.0,0.0,0.0,0.0,0.0,0.0,0.0,0.0,0.4209,0.3717,0.2857,0.1828,0.0752,0.0044,0.0267,0.0,0.0,0.0,0.0,0.0,0.0,0.0,0.0,0.0,0.0,0.0,0.0,0.0,0.0,-0.2918,-0.2757,-0.1632,-0.0828,-0.1108,0.0,0.0,0.0,0.0,0.0,0.0,0.0,0.0,0.0,0.0,0.0,0.0,0.0,0.0,1.6475,0.0,1.5202,0.0,0.0,0.0,0.0,0.0,0.0,0.0,0.0,1.1254,1.1547,1.138,1.0961,0.9925,0.0,0.7875,0.6391,0.0,0.0,0.0,0.0,0.0,0.0,0.0,0.0,1.7584,1.9216,2.1173,2.2153,2.2095,2.1803,2.1494,2.1202,2.217,2.1814,1.9925,1.7495,1.5217,0.0,0.0,0.0,0.0,0.0,0.0,0.0,0.0,0.0,0.0,0.0,0.0,0.0,0.0,0.0,0.0,0.0,0.0,0.0,0.0,0.0,0.0,0.0,0.7114,0.0,0.0,0.0,0.0,0.0,0.0,0.0,0.0,0.0,0.4048,0.4093,0.4006,0.365,0.2741,0.1436,-0.0362,0.0,0.0,0.0,0.0,0.0,0.0,0.0,-0.3644,-0.5669,-0.5997,-0.5966,-0.5907,-0.5023,-0.4342,-0.4383,0.0,0.0,-0.3336,-0.2745,-0.2297,-0.2365,-0.2808,-0.3353,-0.3725,-0.4865,-0.6054,0.0,0.0,0.0,0.0,0.0,0.0,0.0,0.0,1.8672,1.8767,0.0,1.8081,0.0,0.0,0.0,0.0,0.0,1.1149,0.0,0.0,1.3006,1.3224,1.2804,1.2027,1.0816,0.9105,0.8886,0.5901,0.0493,0.0587,0.0,0.0,0.0,0.0,0.0,0.0,1.9226,2.0676,2.206,2.295,2.3385,2.2613,2.226,2.247,2.2939,2.2555,2.1225,2.0286,1.8359,1.5141,1.4057,0.0,0.0,0.0,0.0,0.0,0.0,0.0,0.0,0.0,0.0,0.0,0.0,0.0,0.0,0.0,0.0,0.0,0.0,0.0,0.0,0.7363,0.0,0.0,0.0,0.0,0.0,0.0,0.0,0.0,0.0,0.0,0.3559,0.3805,0.391,0.3642,0.0,0.0,0.0,0.0,-0.3975,-0.3816,-0.2934,-0.2645,-0.386,-0.4591,-0.5069,-0.5176,0.0,0.0,-0.5495,-0.5708,-0.5475,-0.4191,-0.4421,-0.4688,-0.4505,-0.4191,-0.3943,-0.3845,-0.5098,-0.6256,-0.6231,-0.6784,-0.7734,2.6461,0.0,0.0,0.0,0.0,2.158,2.1915,2.2914,2.329,2.3181,2.2635,2.161,0.0,0.0,0.0,0.0,0.0,0.0,1.3427,1.3064,1.2617,1.2279,1.2123,1.0277,0.8162,0.5867,0.3097,-0.0248,-0.4016,-0.5739,-0.4178,0.0421,0.0,0.0,0.0,0.0,1.9072,2.1217,2.2836,2.3869,2.4399,2.374,2.346,2.361,2.2609,2.2158,2.2294,2.0992,1.9217,1.7005,1.5499,0.0,0.0,0.0,0.0,0.0,0.0,0.0,0.0,0.0,0.0,0.0,0.0,0.0,0.0,0.0,0.0,0.0,0.0,0.0,0.762,0.7363,0.7453,0.0,0.0,0.0,0.0,0.0,0.0,0.0,0.0,0.0,0.3249,0.3719,0.3997,0.0,0.0,0.2549,-0.0393,-0.2625,-0.4087,-0.433,0.0,0.0,0.0,-0.4755,-0.4987,-0.6128,-0.6936,-0.7352,-0.7171,-0.6879,-0.6618,-0.6422,-0.5958,-0.5572,-0.5624,-0.4744,-0.4201,-0.4406,-0.5294,-0.627,-0.6899,-0.7755,-0.8509,3.0518,2.8832,2.6551,2.5475,2.5228,2.4879,2.5109,2.5823,2.6335,2.6302,2.5844,2.4916,2.3413,2.15,1.8479,0.0,0.0,0.0,1.4368,1.3525,1.2873,1.2164,1.1197,0.8463,0.5286,0.1749,-0.1313,-0.4859,-0.8863,-1.0709,-0.9024,-0.3985,0.0,0.0,1.1012,1.5564,1.9061,2.1464,2.2905,2.3945,2.4652,2.3749,2.3386,2.364,2.2857,2.2586,2.2848,2.1926,2.0428,1.8336,1.6655,1.4978,0.0,0.0,0.0,0.0,0.0,0.0,0.0,0.0,0.0,0.0,0.0,0.9472,0.0,0.0,0.0,0.0,0.8303,0.8623,0.876,0.9128,0.0,0.0,0.0,0.0,0.0,0.0,0.0,0.4531,0.3403,0.2427,0.171,0.2036,0.2485,0.2968,0.3372,0.2642,0.0102,0.0,-0.424,-0.4386,-0.4268,-0.4403,-0.4872,-0.493,-0.5381,-0.6912,-0.7666,-0.8061,-0.8096,-0.7676,-0.7315,-0.7128,-0.673,-0.6251,-0.5922,-0.5297,-0.4948,-0.5188,-0.582,-0.6659,-0.7708,-0.8359,-0.8918,3.3746,3.3447,3.0314,2.8593,2.7915,2.7833,2.7775,2.7768,2.8263,2.8478,2.8468,2.7747,2.6682,2.53,2.1287,0.0,1.6309,1.5583,1.4671,1.3602,1.3058,1.1783,0.9784,0.6116,0.1874,-0.2832,-0.4561,-0.808,-1.2988,-1.3948,-1.1711,-0.641,-0.04,0.5911,1.2378,1.5896,1.8829,2.1286,2.2246,2.3229,2.415,2.2953,2.2474,2.2949,2.3317,2.3335,2.3008,2.2842,2.1639,1.9208,1.7548,1.5945,1.426,0.0,0.0,0.0,0.0,0.0,0.0,0.0,0.0,0.0,0.0,0.0,0.0,0.0,0.0,0.0,0.9527,0.0,1.0149,1.1318,0.0,0.0,0.0,0.9373,0.6992,0.5087,0.3904,0.354,0.0,0.0,-0.0597,0.0,-0.0424,0.0957,0.2288,0.2265,-0.0053,-0.2768,-0.4446,-0.427,-0.4375,-0.4457,-0.4594,-0.5128,-0.6035,-0.7393,-0.8107,-0.8417,-0.842,-0.8119,-0.7583,-0.6945,-0.6881,-0.6705,-0.562,-0.5893,-0.627,-0.6234,-0.6628,-0.7301,-0.8358,-0.8659,-0.8999,3.5985,3.6229,3.5419,3.3613,3.1281,3.08,3.0554,3.0445,3.0589,3.0303,2.9655,2.8614,2.6627,2.4027,2.2333,2.0049,1.7323,1.629,1.5198,1.3846,0.8322,0.5505,0.4914,-0.0526,-0.3974,-0.5589,-0.8287,-1.0573,-1.2288,-1.195,-0.9758,-0.5871,-0.0453,0.4705,0.9424,1.3212,1.6407,1.9085,2.0172,2.1045,2.1729,2.1848,2.208,2.2434,2.2124,2.2232,2.2812,2.222,2.1006,1.9117,1.8004,1.669,1.5016,1.3341,0.0,0.0,0.0,0.0,0.0,0.0,0.0,0.0,0.0,1.1474,0.8573,0.0,1.0167,0.0,0.6402,0.5945,0.6774,0.7148,0.0,0.0,0.4694,0.2155,0.028,-0.37,-0.4393,0.0582,-0.0131,-0.1205,-0.176,-0.3779,-0.5019,-0.4606,-0.2402,-0.1473,-0.3192,-0.3978,-0.4481,-0.4467,-0.4491,-0.4463,-0.4625,-0.5555,-0.6637,-0.7563,-0.8258,-0.8704,-0.8704,-0.8286,-0.7802,-0.7602,-0.7262,-0.6917,-0.6598,-0.6725,-0.681,-0.681,-0.6894,-0.7356,-0.8472,-0.8716,-0.8999,3.769,3.747,3.7598,3.6538,3.4697,3.3688,3.2884,3.225,3.1686,3.1148,3.0606,2.9106,2.699,2.4535,2.4024,2.1193,1.684,1.5666,1.3427,1.007,0.512,0.2499,0.1714,-0.3574,-0.7009,-0.8752,-1.1231,-1.2632,-1.2879,-1.0908,-0.8029,-0.4463,0.0,0.3984,0.7518,1.0928,1.3915,1.6439,1.8499,1.9531,1.9465,2.0515,2.1049,2.0972,2.111,2.1405,2.1871,2.147,2.0507,1.8992,1.8091,1.6868,1.5284,1.3988,1.289,0.0,0.0,0.0,0.0,0.0,0.0,0.0,0.0,0.0,0.0,0.0,1.0778,0.7604,0.6848,0.6596,0.6672,0.721,0.7275,0.6441,0.2414,-0.0976,-0.2808,-1.0101,-1.2162,-0.4934,-0.5383,-0.6538,-0.7162,-0.8644,-0.9257,-0.8088,-0.6536,-0.5412,-0.512,-0.514,-0.5081,-0.4952,-0.4948,-0.5058,-0.5391,-0.6367,-0.7235,-0.767,-0.8315,-0.8804,-0.8798,-0.8552,-0.8255,-0.7936,-0.7542,-0.7224,-0.7054,-0.6972,-0.6972,-0.7014,-0.7231,-0.769,-0.8504,-0.8886,-0.9319,3.888,3.7816,3.7781,3.7525,3.7027,3.5506,3.4429,3.3624,3.2471,3.1825,3.1433,2.9399,2.7394,2.5379,2.4923,2.1167,1.5055,1.3803,1.0141,0.4547,0.2253,0.0386,-0.1281,-0.5339,-0.8716,-1.1368,-1.2818,-1.3449,-1.3265,-0.9799,-0.6284,-0.272,0.0702,0.368,0.6221,0.8858,1.1421,1.3959,1.6965,1.8093,1.7281,1.8914,1.9538,1.9111,1.9867,2.036,2.0433,2.035,1.9742,1.8598,1.7871,1.6821,1.5336,1.4542,1.3742,0.0,1.2805,0.0,0.0,0.0,0.0,0.0,0.0,0.0,0.0,1.2889,1.1784,0.8235,0.8538,0.8566,0.7686,0.8459,0.8279,0.6389,0.1519,-0.2642,-0.5406,-1.4709,-1.8415,-1.1505,-1.1988,-1.3082,-1.3293,-1.3795,-1.3,-1.0893,-1.0295,-0.9457,-0.7483,-0.6656,-0.6204,-0.5864,-0.5751,-0.6077,-0.6784,-0.7492,-0.8025,-0.8184,-0.8725,-0.9061,-0.9106,-0.9082,-0.8785,-0.8221,-0.799,-0.7669,-0.7117,-0.7105,-0.7182,-0.7189,-0.769,-0.8234,-0.8635,-0.9128,-0.9677,3.9121,3.7753,3.6172,3.5224,3.4631,3.3117,3.3555,3.5318,3.5066,3.397,3.2154,2.9868,2.6877,2.3491,2.1081,1.6863,1.1345,0.9329,0.5813,0.0989,-0.2826,-0.5461,-0.7199,-1.001,-1.1083,-1.0581,-1.0303,-0.98,-0.9007,-0.6262,-0.3866,-0.1768,0.1471,0.3651,0.4805,0.0,0.0,0.0,1.4809,1.5648,1.5398,1.6697,1.7531,1.7647,1.7393,0.0,1.8463,1.821,1.7719,1.7086,1.7384,0.0,0.0,0.0,0.0,0.0,0.0,0.0,0.0,0.0,0.0,0.0,1.4723,1.4987,1.4664,1.4404,1.2665,0.9006,0.732,0.6371,0.6125,0.4924,0.3635,0.2078,-0.2701,-0.7695,-1.217,-1.6933,-1.8929,-1.7595,-1.7007,-1.6211,-1.5031,-1.5345,-1.5418,-1.4317,-1.4002,-1.3499,-1.2448,-0.9927,-0.7998,-0.7388,-0.7329,-0.7499,-0.8205,-0.8926,-0.9592,-1.0033,-1.0305,-1.0407,-1.0442,-1.0244,-0.9763,-0.8956,-0.8828,-0.8555,-0.7342,-0.7724,-0.8201,-0.7821,-0.8513,-0.9079,-0.8797,-0.9119,-0.9637,3.9058,0.0,3.5739,3.4345,0.0,3.1765,3.1348,3.1851,3.2706,3.1443,2.8533,2.5717,2.3085,2.0683,1.8693,1.5041,1.011,0.7973,0.4541,0.0037,-0.3986,-0.6234,-0.7071,-0.9256,-0.9939,-0.9242,-0.8835,-0.8179,-0.7205,-0.5032,-0.3185,-0.159,0.1322,0.3329,0.4408,0.5859,0.7747,1.0081,1.1958,1.2695,1.2213,1.4105,1.4968,1.4587,0.0,0.0,0.0,0.0,0.0,0.0,0.0,0.0,0.0,0.0,0.0,1.5381,1.5566,1.5625,1.5509,1.5777,1.5999,1.6068,1.8141,1.857,1.6518,1.6433,1.5087,1.1694,0.9799,0.8177,0.6734,0.4764,0.2012,-0.1661,-0.5638,-1.0325,-1.5921,-1.8982,-2.0584,-2.0879,-2.0265,-1.9257,-1.8233,-1.8518,-1.8529,-1.7714,-1.7528,-1.7177,-1.6217,-1.3031,-1.0302,-0.9713,-0.9946,-1.0136,-1.0226,-1.0764,-1.1163,-1.1273,-1.1504,-1.1693,-1.1742,-1.1637,-1.1232,-1.0327,-1.0189,-0.9817,-0.8543,-0.8638,-0.8848,-0.8487,-0.8918,-0.9408,-0.9159,-0.9518,-0.9952,3.8339,3.6852,3.4883,3.3192,3.1678,2.9918,2.8201,2.673,0.0,0.0,0.0,2.1569,1.9326,1.7757,1.6571,1.3506,0.901,0.707,0.4036,0.0072,-0.3241,-0.4772,-0.4951,-0.6519,-0.7283,-0.7295,-0.748,-0.7107,-0.6191,-0.459,-0.2912,-0.1291,0.1042,0.2979,0.4396,0.5622,0.6475,0.7132,0.9116,0.9782,0.9152,1.15,1.2262,1.1172,1.3069,1.3871,1.3402,1.4432,1.4767,1.4191,1.5001,1.5381,1.5208,1.5804,1.6245,1.65,1.7053,1.7357,1.732,1.7575,1.7851,1.8043,2.1013,2.1521,1.8368,1.8821,1.8073,1.5233,1.3484,1.137,0.873,0.6054,0.2064,-0.4033,-0.7377,-1.1841,-1.8152,-2.0786,-2.215,-2.2969,-2.2494,-2.2021,-2.1854,-2.1828,-2.1686,-2.0968,-2.0569,-2.0348,-1.9248,-1.5947,-1.3199,-1.2782,-1.3011,-1.3129,-1.274,-1.306,-1.3128,-1.2837,-1.3064,-1.3299,-1.3346,-1.3346,-1.2985,-1.2142,-1.1995,-1.1439,-1.0164,-1.0007,-0.9751,-0.9203,-0.95,-0.9894,-0.9933,-1.0264,-1.0544,3.6005,3.3616,3.1551,2.9666,2.7912,2.546,2.3644,2.2622,2.5012,2.5451,2.4333,2.2409,1.9297,1.5471,1.3544,1.0031,0.5453,0.4184,0.2409,0.0,-0.1225,-0.2311,-0.3064,-0.4069,-0.4544,-0.461,-0.5348,-0.5282,-0.4345,-0.3343,-0.2013,-0.037,0.1349,0.2975,0.4376,0.4691,0.4853,0.4999,0.6956,0.7914,0.771,0.9349,0.9809,0.9099,1.0568,1.1148,1.0563,1.1603,1.2396,1.2781,1.3439,1.3954,1.4191,1.4886,1.5204,1.5107,1.6465,1.7313,1.734,1.8423,1.9546,2.0518,2.1598,2.1888,2.1206,2.1455,2.088,1.8937,1.6614,1.4251,1.1905,0.8211,0.3445,-0.2459,-0.7197,-1.2399,-1.8556,-2.1288,-2.3088,-2.4046,-2.3977,-2.3846,-2.3987,-2.3834,-2.3601,-2.3524,-2.2805,-2.2239,-2.1159,-1.8687,-1.6725,-1.6281,-1.6113,-1.5834,-1.547,-1.5882,-1.6015,-1.5721,-1.5653,-1.577,-1.574,-1.577,-1.5435,-1.4488,-1.4689,-1.4028,-1.2106,-1.2235,-1.2135,-1.1168,-1.1228,-1.149,-1.149,-1.1564,-1.1457,3.3153,3.1826,2.9667,2.7694,2.5642,2.1775,1.9026,1.7648,1.9094,2.0182,2.0345,1.7222,1.4691,1.2665,1.0658,0.8844,0.7145,0.5508,0.4232,0.3173,0.072,-0.0774,-0.1344,-0.2676,-0.3542,-0.3936,-0.3944,-0.3949,-0.388,-0.2611,-0.1169,0.0429,0.2429,0.3792,0.4415,0.4463,0.4463,0.4519,0.5801,0.6335,0.6067,0.7273,0.7666,0.7156,0.8373,0.881,0.8392,0.9801,1.0675,1.0698,1.1837,1.2777,1.3539,1.399,1.4696,1.5661,1.6476,1.7196,1.7768,1.8928,1.9841,2.0407,2.2168,2.3065,2.2662,2.3044,2.2825,2.1733,1.9897,1.8009,1.5955,1.1125,0.5086,-0.2271,-0.7536,-1.3288,-1.9416,-2.2185,-2.3587,-2.4173,-2.4058,-2.4081,-2.4573,-2.4487,-2.4408,-2.4496,-2.4117,-2.3712,-2.3291,-2.206,-2.0587,-1.9536,-1.9065,-1.8706,-1.8194,-1.85,-1.8538,-1.7885,-1.8021,-1.813,-1.8033,-1.8082,-1.7895,-1.7297,-1.7407,-1.6878,-1.5091,-1.5198,-1.4875,-1.3887,-1.3334,-1.3343,-1.3106,-1.2948,-1.2648,3.0515,2.9799,2.8145,2.6046,2.3469,1.9136,1.607,1.4122,1.4321,1.5053,1.5666,1.2824,1.1254,1.0634,0.9135,0.8761,0.9064,0.7668,0.6589,0.5748,0.2889,0.1128,0.027,-0.134,-0.2539,-0.3276,-0.2876,-0.2945,-0.3145,-0.174,-0.013,0.1528,0.3506,0.4463,0.4463,0.4463,0.4463,0.4515,0.4999,0.51,0.4729,0.5636,0.5995,0.5662,0.6612,0.7002,0.6751,0.823,0.8963,0.8795,1.0035,1.1252,1.2262,1.284,1.3925,1.551,1.6019,1.6627,1.7574,1.8632,1.9253,1.9471,2.1693,2.3106,2.3157,2.359,2.3945,2.3717,2.2634,2.1168,1.8884,1.4319,0.7393,-0.1266,-0.7108,-1.3176,-2.0147,-2.2768,-2.3798,-2.4094,-2.3917,-2.3862,-2.421,-2.4357,-2.4372,-2.441,-2.4601,-2.4619,-2.4499,-2.4424,-2.3644,-2.2538,-2.179,-2.1361,-2.0736,-2.0911,-2.0788,-1.9941,-2.0178,-2.0273,-2.0193,-2.0305,-2.0304,-1.9878,-1.9924,-1.948,-1.8486,-1.8114,-1.7603,-1.6553,-1.5916,-1.5379,-1.5053,-1.489,-1.4259,2.877,2.6828,2.6506,2.4223,2.0861,1.8346,1.6152,1.4018,1.2787,1.2113,1.2286,1.3328,1.2655,1.0956,1.0559,1.0115,0.9442,0.914,0.8014,0.6324,0.5673,0.4072,0.1486,0.0268,-0.0737,-0.1614,-0.2281,-0.221,-0.1675,-0.06,0.1037,0.3186,0.4146,0.4463,0.4463,0.4463,0.4463,0.4463,0.4574,0.4424,0.415,0.4927,0.5038,0.4221,0.5678,0.6238,0.564,0.6431,0.7007,0.7221,0.7983,0.8812,0.9633,1.1142,1.2338,1.3076,1.4287,1.5278,1.5938,1.6859,1.7674,1.8315,1.9145,2.0451,2.1943,2.2644,2.3638,2.4438,2.4169,2.2847,2.1033,1.7167,1.0699,0.1466,-0.476,-1.1294,-1.8701,-2.2225,-2.3692,-2.4151,-2.3855,-2.3735,-2.3777,-2.3813,-2.378,-2.3727,-2.4102,-2.4327,-2.4365,-2.4549,-2.4655,-2.4333,-2.3988,-2.3419,-2.296,-2.3048,-2.2736,-2.2281,-2.2251,-2.2206,-2.2091,-2.2115,-2.2205,-2.1961,-2.2087,-2.169,-2.0973,-2.0421,-1.9968,-1.9038,-1.8303,-1.7728,-1.7531,-1.7378,-1.6647,2.699,2.5533,2.5521,2.4255,2.205,2.0042,1.7852,1.5754,1.4592,1.3166,1.1816,1.3564,1.3705,1.2492,1.1877,1.1736,1.1816,1.1286,0.9881,0.7901,0.6618,0.4694,0.2417,0.1272,0.0067,-0.1146,-0.1211,-0.1208,-0.0999,0.0453,0.2054,0.3406,0.4163,0.4463,0.4463,0.4463,0.4463,0.4463,0.4463,0.4317,0.4063,0.4329,0.4335,0.3962,0.4165,0.4264,0.4144,0.4436,0.4877,0.5456,0.613,0.7069,0.8224,0.9159,1.0394,1.1979,1.3783,1.4851,1.5086,1.5486,1.5916,1.6347,1.5791,1.6519,1.8983,1.9703,2.0668,2.2161,2.3332,2.3534,2.226,1.8822,1.3107,0.5181,-0.2043,-0.9436,-1.7063,-2.0966,-2.3129,-2.3526,-2.35,-2.3392,-2.3414,-2.3414,-2.3397,-2.3365,-2.3692,-2.3949,-2.4006,-2.4338,-2.4617,-2.4659,-2.4494,-2.4404,-2.4194,-2.4289,-2.4102,-2.3752,-2.3609,-2.3568,-2.338,-2.3524,-2.3635,-2.3668,-2.3676,-2.3563,-2.3134,-2.3067,-2.2813,-2.1613,-2.0175,-1.941,-1.9319,-1.9389,-1.8876,2.5955,2.5016,2.4719,2.4036,2.2988,2.149,1.954,1.7564,1.6482,1.4617,1.2587,1.391,1.4562,1.4361,1.3476,1.3418,1.3947,1.3055,1.1687,0.9807,0.7722,0.5567,0.3406,0.2218,0.0603,-0.0874,-0.0472,-0.0067,-0.0132,0.1261,0.272,0.3688,0.4251,0.4463,0.4463,0.4463,0.4463,0.4463,0.446,0.4371,0.4063,0.4019,0.3944,0.3772,0.3215,0.2933,0.3071,0.3028,0.3239,0.3765,0.4467,0.5437,0.6625,0.7321,0.8804,1.1202,1.2954,1.3993,1.4201,1.4218,1.4292,1.425,1.2422,1.2544,1.5599,1.6706,1.7504,1.8861,2.0865,2.1985,2.2547,1.9705,1.4856,0.8306,0.0619,-0.7044,-1.4259,-1.9107,-2.2078,-2.2701,-2.2722,-2.2735,-2.2788,-2.2838,-2.294,-2.3069,-2.3328,-2.3628,-2.3735,-2.4116,-2.4428,-2.4428,-2.4566,-2.4714,-2.4779,-2.4803,-2.4762,-2.4619,-2.4397,-2.4394,-2.4255,-2.4485,-2.4667,-2.4548,-2.4801,-2.482,-2.4423,-2.4664,-2.4644,-2.3633,-2.2345,-2.1277,-2.1356,-2.1467,-2.1409,2.5873,2.4933,2.3963,2.3073,2.2092,2.1987,2.0665,1.8797,1.7547,1.6008,1.4488,1.459,1.5239,1.6358,1.5562,1.5155,1.5021,1.4163,1.3048,1.176,0.9718,0.7174,0.452,0.3223,0.1269,-0.0936,-0.0403,0.0729,0.206,0.2246,0.3021,0.4507,0.4531,0.4463,0.4463,0.4463,0.4463,0.4463,0.4463,0.4321,0.406,0.4019,0.3944,0.3752,0.3183,0.2911,0.2987,0.2544,0.2261,0.2282,0.298,0.3747,0.458,0.5895,0.7918,1.0463,1.1513,1.2267,1.289,1.3074,1.3014,1.2493,0.9731,0.9089,1.339,1.4026,1.4498,1.5516,1.6697,1.8402,2.0563,1.9451,1.6035,1.0145,0.3302,-0.4044,-1.133,-1.676,-2.0177,-2.1474,-2.1696,-2.1683,-2.169,-2.2063,-2.2459,-2.2712,-2.3021,-2.3346,-2.3649,-2.3978,-2.419,-2.4247,-2.4356,-2.4567,-2.4733,-2.4845,-2.4858,-2.4748,-2.4759,-2.4962,-2.5066,-2.5153,-2.5242,-2.5347,-2.5346,-2.5362,-2.5382,-2.5243,-2.4946,-2.4398,-2.4101,-2.3532,-2.3137,-2.3548,-2.3435,2.4921,2.4036,2.3672,2.3294,2.3062,2.3616,2.3077,2.152,1.963,1.7948,1.6796,1.6849,1.7115,1.7474,1.8285,1.7687,1.614,1.572,1.4331,1.2303,1.1058,0.8788,0.561,0.4165,0.2125,-0.0067,-0.0134,0.0786,0.2257,0.2837,0.3589,0.4399,0.4549,0.4463,0.4463,0.4463,0.4463,0.4463,0.4463,0.4317,0.405,0.4019,0.3907,0.3631,0.2716,0.2209,0.2272,0.1315,0.099,0.1457,0.1745,0.2446,0.369,0.5434,0.7246,0.9226,0.9995,1.0876,1.2043,1.2643,1.2454,1.1507,1.0008,0.9076,1.0289,1.0876,1.1387,1.2124,1.2885,1.4168,1.5526,1.6865,1.5945,1.1034,0.473,-0.188,-0.8079,-1.3984,-1.813,-1.9439,-2.0323,-2.0952,-2.1086,-2.1731,-2.2304,-2.2463,-2.2865,-2.3206,-2.3414,-2.3837,-2.4094,-2.3955,-2.3939,-2.3926,-2.3757,-2.4444,-2.4818,-2.4822,-2.4847,-2.4928,-2.5023,-2.5096,-2.5169,-2.5347,-2.5488,-2.5539,-2.5473,-2.543,-2.5156,-2.5108,-2.4855,-2.4713,-2.4721,-2.4629,-2.4565,2.4696,2.3661,2.3891,2.3818,2.3672,2.4564,2.4589,2.3709,2.1972,2.041,1.9288,1.9174,1.9104,1.9003,2.0041,1.9716,1.791,1.7288,1.5739,1.339,1.2192,0.988,0.6884,0.4882,0.2449,-0.0067,-0.0401,0.0455,0.2162,0.3371,0.4154,0.4477,0.4677,0.4732,0.4515,0.4463,0.4463,0.4463,0.4463,0.4317,0.406,0.4019,0.3877,0.3459,0.2434,0.1781,0.1802,0.0635,0.0201,0.0672,0.0715,0.1391,0.2886,0.4805,0.647,0.7721,0.842,0.9417,1.0902,1.1778,1.176,1.0559,0.9599,0.8779,0.8254,0.8645,0.8999,0.9447,1.0012,1.064,1.1376,1.3077,1.3227,1.0195,0.5066,-0.0529,-0.571,-1.1488,-1.5429,-1.7681,-1.9327,-2.0109,-2.0302,-2.1334,-2.196,-2.2231,-2.2712,-2.3045,-2.3236,-2.3526,-2.3816,-2.3588,-2.3544,-2.3482,-2.345,-2.393,-2.43,-2.4329,-2.4538,-2.4695,-2.4917,-2.4996,-2.5129,-2.5337,-2.5469,-2.5545,-2.5559,-2.5527,-2.5499,-2.5486,-2.5407,-2.5232,-2.5298,-2.5361,-2.5196,2.5205,2.3661,2.4552,2.4192,2.3599,2.4552,2.5004,2.4756,2.4259,2.3041,2.1798,2.1408,2.1057,2.0764,2.1066,2.0749,2.0331,1.9097,1.7427,1.556,1.3186,1.0776,0.8275,0.5659,0.2513,-0.0801,-0.1133,0.0065,0.2276,0.3906,0.4679,0.4675,0.5164,0.5058,0.4515,0.4463,0.4463,0.4463,0.4463,0.4317,0.406,0.3976,0.3887,0.3536,0.2424,0.1778,0.1794,0.0618,0.0,0.0,0.0101,0.0655,0.2216,0.4048,0.5424,0.6159,0.6788,0.7908,0.9323,1.0258,1.0392,0.9575,0.8037,0.7283,0.7288,0.749,0.7537,0.7466,0.8025,0.8494,0.8508,0.8824,0.8841,0.8005,0.4154,-0.0207,-0.4396,-0.9133,-1.3395,-1.6197,-1.8302,-1.934,-1.9572,-2.0603,-2.1622,-2.1989,-2.2361,-2.2678,-2.287,-2.3041,-2.3147,-2.3124,-2.3076,-2.3003,-2.3194,-2.3441,-2.3592,-2.3762,-2.4044,-2.4296,-2.4622,-2.4801,-2.5004,-2.5195,-2.539,-2.5473,-2.5532,-2.5508,-2.5473,-2.5478,-2.5524,-2.5562,-2.5517,-2.5492,-2.5537,2.3062,2.2553,2.2765,2.2776,2.2691,2.4253,2.5004,2.4968,2.4627,2.4198,2.3737,2.3344,2.3135,2.3153,2.3579,2.3566,2.2984,2.2285,2.0274,1.7093,1.5643,1.3312,1.0196,0.7692,0.4432,0.0999,-0.0133,0.0774,0.2895,0.4702,0.5448,0.5282,0.5378,0.5113,0.457,0.4463,0.4463,0.4463,0.4463,0.4365,0.413,0.4023,0.3921,0.3602,0.2492,0.1798,0.1727,0.064,0.0,0.0,0.0378,0.1224,0.2542,0.3614,0.4574,0.5286,0.5514,0.6269,0.7659,0.8126,0.8248,0.7931,0.7346,0.6594,0.5906,0.6112,0.5997,0.5562,0.5905,0.6283,0.6277,0.6265,0.6386,0.6699,0.3239,-0.0347,-0.401,-0.9025,-1.2806,-1.4904,-1.6995,-1.8406,-1.9315,-2.0464,-2.1133,-2.1366,-2.1678,-2.1978,-2.2029,-2.2241,-2.2197,-2.2084,-2.2238,-2.2513,-2.2694,-2.3034,-2.3351,-2.3653,-2.3925,-2.4155,-2.4472,-2.4733,-2.4924,-2.5083,-2.5292,-2.5409,-2.547,-2.548,-2.5444,-2.5449,-2.5492,-2.5488,-2.5481,-2.5522,-2.5566,2.2328,2.2038,2.2038,2.2038,2.2103,2.3441,2.412,2.4389,2.4207,2.4233,2.4431,2.4537,2.4649,2.5039,2.5737,2.5614,2.497,2.4928,2.286,1.9381,1.7933,1.5598,1.1783,0.7982,0.4716,0.1799,0.0732,0.1482,0.3357,0.5352,0.6267,0.5936,0.5923,0.5546,0.4897,0.4625,0.4463,0.4463,0.446,0.4392,0.4197,0.4046,0.3944,0.3654,0.2733,0.2188,0.2053,0.1162,0.0454,0.0231,0.0771,0.1766,0.2776,0.3385,0.3986,0.4314,0.4326,0.4671,0.5794,0.5692,0.5748,0.6039,0.6065,0.5504,0.4621,0.4734,0.4703,0.4284,0.4422,0.4735,0.4908,0.4787,0.4666,0.4369,0.2481,-0.0638,-0.4271,-0.8656,-1.2101,-1.3963,-1.6008,-1.7544,-1.8765,-1.979,-2.0534,-2.0699,-2.107,-2.1303,-2.1348,-2.148,-2.1406,-2.1439,-2.1753,-2.1984,-2.2163,-2.2591,-2.31,-2.353,-2.3923,-2.4174,-2.4458,-2.4747,-2.4967,-2.5133,-2.5312,-2.5341,-2.5397,-2.5398,-2.5388,-2.5409,-2.5428,-2.5429,-2.544,-2.5521,-2.5586,2.2776,2.1962,2.1886,2.1886,2.1811,2.1952,2.2499,2.329,2.3258,2.3688,2.4394,2.4993,2.568,2.6437,2.6988,2.6886,2.6504,2.6256,2.4903,2.2374,2.0322,1.7408,1.2982,0.7338,0.3611,0.1738,0.1399,0.213,0.3623,0.5967,0.7024,0.6778,0.6657,0.6204,0.5492,0.4842,0.457,0.4519,0.4463,0.4395,0.427,0.407,0.3972,0.3772,0.3078,0.2645,0.2497,0.2006,0.1252,0.0494,0.1343,0.2144,0.2768,0.3306,0.3646,0.3612,0.304,0.3227,0.3602,0.3423,0.3348,0.4138,0.4073,0.3691,0.3262,0.3523,0.3666,0.3337,0.3365,0.3588,0.3949,0.3785,0.3044,0.1973,0.1134,-0.1303,-0.5535,-0.8276,-1.0707,-1.316,-1.5147,-1.6722,-1.7836,-1.8904,-1.9519,-2.0093,-2.0501,-2.0634,-2.0813,-2.0814,-2.091,-2.107,-2.1305,-2.1711,-2.2012,-2.2686,-2.3189,-2.357,-2.3943,-2.4247,-2.4474,-2.4747,-2.503,-2.5182,-2.5253,-2.5264,-2.5313,-2.5332,-2.5351,-2.5351,-2.5351,-2.5351,-2.5408,-2.5487,-2.5566,2.1231,2.1011,2.0934,2.0924,2.0924,2.0864,2.1271,2.1889,2.1998,2.3001,2.4551,2.5536,2.6468,2.7838,2.7969,2.8033,2.7625,2.7274,2.617,2.4219,2.3062,1.8357,1.2488,0.7314,0.3971,0.2554,0.2327,0.2986,0.4507,0.6791,0.7907,0.7789,0.7421,0.674,0.5651,0.5324,0.4948,0.457,0.4519,0.4505,0.4392,0.4204,0.4063,0.3912,0.3236,0.2756,0.2551,0.2322,0.2233,0.2053,0.2228,0.2721,0.3262,0.3486,0.3442,0.2987,0.281,0.2549,0.2386,0.2156,0.2213,0.242,0.2431,0.2305,0.217,0.2262,0.2337,0.2268,0.2271,0.2359,0.2448,0.2361,0.1684,0.0519,-0.0687,-0.2746,-0.5451,-0.7725,-0.9942,-1.2388,-1.3697,-1.5233,-1.6783,-1.7692,-1.8282,-1.9022,-1.9456,-1.9707,-1.9954,-2.0208,-2.0311,-2.0599,-2.091,-2.1472,-2.204,-2.2737,-2.3282,-2.3674,-2.4002,-2.4337,-2.4538,-2.4762,-2.5018,-2.5243,-2.5201,-2.5201,-2.5253,-2.5303,-2.5303,-2.5274,-2.5313,-2.5332,-2.5351,-2.5407,-2.5495,2.0576,2.0576,2.0576,2.0576,2.0537,2.0322,2.0391,2.0728,2.0866,2.1695,2.3294,2.4617,2.5671,2.6513,2.7116,2.7245,2.6959,2.6433,2.5401,2.4019,2.1809,1.7515,1.22,0.7985,0.5202,0.3433,0.3197,0.4038,0.5494,0.7485,0.8346,0.8373,0.7689,0.6966,0.6524,0.5437,0.5113,0.4893,0.468,0.4463,0.445,0.4324,0.412,0.3973,0.3486,0.3161,0.2921,0.2904,0.286,0.2719,0.2716,0.2987,0.3534,0.3578,0.335,0.2763,0.2495,0.2053,0.1524,0.1225,0.1055,0.1057,0.0,0.0,0.1007,0.1042,0.1073,0.1429,0.1431,0.1563,0.165,0.1381,0.0546,-0.0566,-0.2196,-0.3734,-0.5091,-0.7263,-0.9284,-1.1004,-1.2512,-1.3879,-1.5844,-1.646,-1.7261,-1.8011,-1.8736,-1.8948,-1.9207,-1.95,-1.9854,-2.0261,-2.0682,-2.1274,-2.184,-2.253,-2.3052,-2.3464,-2.3764,-2.4155,-2.447,-2.4655,-2.4858,-2.5049,-2.508,-2.5115,-2.516,-2.5203,-2.5214,-2.5224,-2.5264,-2.5313,-2.5332,-2.539,-2.5476,2.0411,2.0479,2.0557,2.0547,2.043,1.9936,1.9684,1.9748,1.9576,2.0137,2.1293,2.2792,2.3524,2.3616,2.4761,2.5059,2.4723,2.4297,2.384,2.2335,1.9766,1.5806,1.2555,0.8995,0.6316,0.4483,0.4196,0.5104,0.6487,0.7898,0.8786,0.8776,0.7614,0.709,0.6853,0.5605,0.5007,0.5058,0.4736,0.4519,0.4436,0.4321,0.4123,0.3969,0.3785,0.3609,0.3516,0.349,0.335,0.2851,0.2807,0.3123,0.3578,0.3578,0.3214,0.263,0.2097,0.1611,0.0906,0.0374,0.0,0.0,0.0,0.0,0.0,0.0,0.0362,0.0762,0.0806,0.0939,0.1028,0.0402,-0.0594,-0.1566,-0.2663,-0.3484,-0.4517,-0.676,-0.8771,-0.9585,-1.1419,-1.2829,-1.4176,-1.528,-1.6268,-1.7205,-1.7839,-1.8271,-1.8707,-1.9163,-1.9636,-2.0181,-2.0651,-2.1134,-2.1724,-2.2317,-2.2762,-2.3171,-2.3388,-2.3733,-2.4155,-2.4398,-2.461,-2.4747,-2.4845,-2.493,-2.5,-2.503,-2.5088,-2.5173,-2.5224,-2.5274,-2.5313,-2.539,-2.5464,1.9362,1.9441,2.0235,2.0361,1.9916,1.9088,1.877,1.8844,1.7981,1.8861,2.0257,2.0749,2.1404,2.2438,2.2106,2.2254,2.2687,2.239,2.2268,2.1758,1.8988,1.5662,1.2488,0.9202,0.6863,0.5505,0.5756,0.6578,0.7628,0.8638,0.9472,0.9291,0.8062,0.7235,0.6691,0.5869,0.5058,0.4787,0.4574,0.457,0.4491,0.4331,0.413,0.3966,0.3771,0.3629,0.3592,0.3578,0.3534,0.3442,0.3398,0.3442,0.3578,0.3578,0.3126,0.2366,0.1923,0.1316,0.0421,0.0,0.0,0.0,0.0,0.0,0.0,0.0,0.0,0.0,0.018,0.0179,-0.018,-0.1013,-0.1739,-0.2505,-0.3329,-0.3991,-0.4463,-0.5921,-0.7723,-0.92,-1.0128,-1.1132,-1.2878,-1.3392,-1.4586,-1.6083,-1.6985,-1.7491,-1.8113,-1.8754,-1.9417,-2.0001,-2.0418,-2.0862,-2.1336,-2.184,-2.219,-2.2565,-2.281,-2.3012,-2.3469,-2.4026,-2.4173,-2.4414,-2.4655,-2.4733,-2.4799,-2.4917,-2.4962,-2.5077,-2.5184,-2.5234,-2.5293,-2.538,-2.5447,1.7493,1.7156,1.8199,1.8492,1.8273,1.795,1.7871,1.7924,1.7619,1.787,1.8532,1.8788,1.8987,1.8945,1.8892,1.9198,1.9837,2.0192,1.9857,1.8783,1.6435,1.3931,1.1499,0.889,0.6715,0.6071,0.6335,0.7261,0.8455,0.9198,0.9447,0.9099,0.7871,0.6987,0.6529,0.5869,0.5597,0.5496,0.5113,0.4948,0.4929,0.4551,0.4226,0.4012,0.3748,0.3578,0.3578,0.3578,0.3578,0.3578,0.3578,0.3578,0.3578,0.3578,0.3129,0.2413,0.1916,0.1435,0.0666,0.0,0.0,0.0,0.0,0.0,0.0,0.0,0.0,0.0,0.0,-0.0271,-0.092,-0.1588,-0.2299,-0.3003,-0.3728,-0.4319,-0.4816,-0.5599,-0.6573,-0.8066,-0.8849,-1.0128,-1.1232,-1.2181,-1.3527,-1.5306,-1.6409,-1.6918,-1.7408,-1.812,-1.9104,-1.9682,-2.01,-2.0485,-2.0943,-2.1305,-2.1562,-2.184,-2.2051,-2.2173,-2.2435,-2.3082,-2.3689,-2.3968,-2.4246,-2.4512,-2.4613,-2.4727,-2.4858,-2.4998,-2.5099,-2.5184,-2.5264,-2.536,-2.5399,1.5241,1.4513,1.5486,1.5935,1.5912,1.6258,1.646,1.6643,1.7149,1.6636,1.6323,1.689,1.606,1.5213,1.5202,1.5801,1.6453,1.6961,1.6659,1.5729,1.3758,1.1839,0.9907,0.8022,0.6785,0.6746,0.6876,0.7807,0.8926,0.9513,0.9337,0.8521,0.7305,0.6603,0.6308,0.5764,0.5437,0.5714,0.5332,0.5164,0.5093,0.4685,0.425,0.3972,0.3731,0.3585,0.3578,0.3578,0.3578,0.3578,0.3578,0.3578,0.3629,0.3605,0.3382,0.2752,0.2183,0.1568,0.0874,0.0,0.0,0.0,0.0,0.0,0.0,0.0,0.0,0.0,0.0,-0.0374,-0.1148,-0.1704,-0.2503,-0.3275,-0.3931,-0.4545,-0.512,-0.5378,-0.5869,-0.6956,-0.8125,-0.9259,-1.0586,-1.1688,-1.31,-1.4389,-1.5496,-1.6431,-1.6942,-1.7625,-1.8627,-1.9465,-1.9904,-2.0196,-2.0649,-2.0813,-2.1038,-2.1305,-2.1444,-2.1595,-2.1748,-2.2426,-2.3126,-2.3531,-2.3813,-2.4112,-2.4376,-2.451,-2.4659,-2.4885,-2.503,-2.5099,-2.5192,-2.5312,-2.5351,1.2504,1.2412,1.3493,1.3725,1.3414,1.3486,1.377,1.4171,1.4221,1.4277,1.3984,1.3425,1.3049,1.2521,1.1677,1.2012,1.2977,1.3546,1.3442,1.3025,1.1503,1.0046,0.8926,0.7438,0.6666,0.6889,0.726,0.8151,0.9081,0.9513,0.9162,0.8439,0.725,0.6372,0.5655,0.5058,0.4948,0.5222,0.5007,0.4897,0.482,0.4485,0.4165,0.3887,0.3683,0.3592,0.3578,0.3578,0.3578,0.3578,0.3578,0.3578,0.3646,0.368,0.3447,0.2938,0.2362,0.1787,0.1184,0.0,0.0,0.0,0.0,0.0,0.0,0.0,0.0,0.0,0.0,-0.0495,-0.1745,-0.2029,-0.2754,-0.3626,-0.4237,-0.4477,-0.4611,-0.4838,-0.5437,-0.6794,-0.7652,-0.8652,-1.0136,-1.1449,-1.257,-1.3784,-1.4903,-1.6114,-1.7021,-1.7622,-1.8422,-1.9111,-1.9732,-2.0,-2.033,-2.0382,-2.0567,-2.0846,-2.1039,-2.1228,-2.1495,-2.2046,-2.2542,-2.2859,-2.3383,-2.384,-2.4054,-2.4229,-2.4441,-2.4663,-2.4831,-2.4998,-2.5084,-2.5149,-2.5253,1.0196,0.988,1.087,1.0848,1.0327,1.0738,1.0724,1.0601,1.1004,1.0937,1.0448,1.0029,0.9532,0.9199,0.9139,0.9539,1.0522,1.1122,1.1078,1.0691,0.9587,0.8611,0.7814,0.6586,0.6129,0.6226,0.6929,0.8021,0.9145,0.9047,0.8687,0.7963,0.7032,0.61,0.5277,0.5058,0.4948,0.5003,0.4948,0.5003,0.4922,0.4467,0.4039,0.3907,0.37,0.3592,0.3578,0.3578,0.3578,0.3578,0.3578,0.3578,0.3619,0.3648,0.3618,0.3213,0.2721,0.2142,0.1534,0.0857,0.0,0.0,0.0,0.0,0.0,0.0,0.0,0.0,0.0,-0.0559,-0.1907,-0.2101,-0.2719,-0.3536,-0.4146,-0.4171,-0.4125,-0.4291,-0.5273,-0.6411,-0.6956,-0.8165,-1.0246,-1.1349,-1.2132,-1.3205,-1.4329,-1.5604,-1.6935,-1.7572,-1.8131,-1.8569,-1.9126,-1.9573,-1.9844,-1.9949,-2.0089,-2.0379,-2.0614,-2.0797,-2.1135,-2.1627,-2.1886,-2.213,-2.2695,-2.3424,-2.3765,-2.3943,-2.4192,-2.4444,-2.462,-2.478,-2.4885,-2.4993,-2.5088,0.808,0.7238,0.8071,0.774,0.7022,0.7589,0.7564,0.7238,0.7799,0.7729,0.7092,0.7021,0.6644,0.6218,0.6649,0.7534,0.8678,0.8965,0.8654,0.8409,0.7777,0.6997,0.6424,0.5858,0.5495,0.5693,0.6079,0.7219,0.8186,0.8336,0.7833,0.7175,0.6587,0.5828,0.4846,0.4948,0.5273,0.5328,0.5328,0.5328,0.5085,0.4488,0.4019,0.3992,0.3734,0.3578,0.3578,0.3578,0.3578,0.3578,0.3578,0.3578,0.3605,0.3714,0.3671,0.3423,0.2974,0.2422,0.1855,0.1008,0.0365,0.0,0.0,0.0,0.0,0.0,0.0,0.0,0.0,0.0,-0.1601,-0.1928,-0.2333,-0.2918,-0.3448,-0.3735,-0.3456,-0.3622,-0.4336,-0.532,-0.6036,-0.7528,-0.9511,-1.1007,-1.1747,-1.3014,-1.4133,-1.5264,-1.6498,-1.7136,-1.7653,-1.7984,-1.8426,-1.8968,-1.9281,-1.9464,-1.9681,-1.9945,-2.0139,-2.033,-2.073,-2.1167,-2.1401,-2.1685,-2.2175,-2.2815,-2.3236,-2.3714,-2.3999,-2.4229,-2.4409,-2.4578,-2.4697,-2.485,-2.4981,0.6015,0.5074,0.5229,0.4598,0.3816,0.3964,0.4342,0.4942,0.5007,0.5092,0.4783,0.4928,0.4801,0.4757,0.4785,0.5229,0.5641,0.5731,0.5909,0.626,0.6067,0.5873,0.5617,0.5488,0.5428,0.5428,0.5557,0.5986,0.6791,0.722,0.7008,0.6372,0.5961,0.5218,0.4625,0.4677,0.4625,0.4622,0.4677,0.4677,0.4627,0.4223,0.4043,0.3944,0.3754,0.3578,0.3578,0.3578,0.3578,0.3578,0.3578,0.3578,0.3602,0.3714,0.337,0.2882,0.2412,0.2053,0.1716,0.0943,0.0256,0.0,0.0,0.0,0.0,0.0,0.0,0.0,0.0,0.0,-0.1156,-0.1274,-0.1668,-0.2001,-0.2341,-0.2452,-0.2397,-0.3289,-0.3947,-0.4604,-0.5483,-0.6881,-0.8626,-1.0018,-1.1349,-1.2667,-1.3914,-1.505,-1.6015,-1.6672,-1.7312,-1.7693,-1.7879,-1.8405,-1.8893,-1.9043,-1.9281,-1.9566,-1.9782,-1.9945,-2.0326,-2.0778,-2.1134,-2.1456,-2.1927,-2.2459,-2.3021,-2.3459,-2.3798,-2.4077,-2.4266,-2.4409,-2.4528,-2.4682,-2.4836,0.5709,0.4688,0.4688,0.375,0.2347,0.2268,0.211,0.2027,0.2027,0.2027,0.2021,0.1994,0.2242,0.2737,0.3149,0.3905,0.4428,0.4683,0.4954,0.5292,0.5428,0.5428,0.5425,0.5428,0.5428,0.5428,0.5401,0.5342,0.5806,0.6211,0.6302,0.598,0.5639,0.5218,0.457,0.4519,0.4519,0.4515,0.4515,0.4519,0.444,0.4192,0.4019,0.4005,0.3731,0.3609,0.3578,0.3578,0.3578,0.3578,0.3578,0.3578,0.3496,0.3356,0.2988,0.2739,0.1858,0.1423,0.1249,0.0781,0.0401,0.0,0.0,0.0,0.0,0.0,0.0,0.0,0.0,0.0,-0.0894,-0.1062,-0.1229,-0.1452,-0.1562,-0.1562,-0.184,-0.2841,-0.3616,-0.4275,-0.5039,-0.6499,-0.7847,-0.9266,-1.0653,-1.2043,-1.3253,-1.4367,-1.5342,-1.6182,-1.6854,-1.7463,-1.7653,-1.7814,-1.8341,-1.8688,-1.8968,-1.9244,-1.9639,-1.9803,-2.0035,-2.0382,-2.0879,-2.1366,-2.1849,-2.2358,-2.2848,-2.323,-2.3566,-2.3858,-2.4134,-2.4266,-2.4393,-2.4512,-2.4697,0.4846,0.3986,0.4217,0.3125,0.1255,0.1176,0.0784,0.0,0.0,0.0,0.0,0.0,0.0511,0.1055,0.194,0.2858,0.3682,0.4619,0.5156,0.5292,0.5428,0.5428,0.5428,0.5428,0.5428,0.5425,0.5428,0.5267,0.5192,0.543,0.5695,0.5592,0.5286,0.4956,0.4677,0.4732,0.4838,0.4838,0.4842,0.4732,0.446,0.4172,0.4053,0.3931,0.3765,0.3578,0.3578,0.3578,0.3578,0.3578,0.3578,0.3534,0.3309,0.2998,0.2509,0.215,0.1363,0.092,0.0797,0.0535,0.0403,0.0,0.0,0.0,0.0,0.0,0.0,0.0,0.0,0.0,-0.0671,-0.0783,-0.0783,-0.095,-0.1174,-0.1062,-0.1229,-0.2286,-0.3063,-0.3555,-0.4491,-0.5923,-0.7326,-0.8606,-1.0005,-1.1358,-1.257,-1.381,-1.4846,-1.5876,-1.6454,-1.716,-1.716,-1.7312,-1.7787,-1.8249,-1.8535,-1.8968,-1.9406,-1.9675,-1.9874,-2.033,-2.091,-2.1385,-2.1751,-2.2158,-2.2634,-2.2982,-2.3323,-2.3692,-2.3998,-2.4152,-2.4266,-2.4374,-2.4526,0.2737,0.188,0.2813,0.2034,0.0,0.0,0.0,0.0,0.0,0.0,0.0,0.0,0.0,0.042,0.1297,0.2154,0.2878,0.3682,0.4622,0.5226,0.5428,0.5428,0.5428,0.5428,0.5425,0.5484,0.5522,0.5293,0.5037,0.5182,0.5013,0.4622,0.4754,0.4632,0.4736,0.5058,0.5269,0.5273,0.5218,0.4893,0.4548,0.4212,0.4046,0.3961,0.3758,0.3578,0.3578,0.3578,0.3578,0.3578,0.3578,0.3306,0.2987,0.2674,0.2184,0.1436,0.1017,0.0563,0.0336,0.0,0.0,0.0,0.0,0.0,0.0,0.0,0.0,0.0,0.0,0.0,0.0,0.0,0.0,0.0,0.0,-0.0671,-0.095,-0.1786,-0.2508,-0.2892,-0.4048,-0.5701,-0.6902,-0.8231,-0.9599,-1.1007,-1.2812,-1.4054,-1.5073,-1.6008,-1.6293,-1.668,-1.665,-1.6837,-1.7271,-1.7747,-1.8288,-1.8803,-1.9281,-1.953,-1.9762,-2.0292,-2.0829,-2.1229,-2.1584,-2.2003,-2.2388,-2.2755,-2.3165,-2.3588,-2.3858,-2.3917,-2.4095,-2.4284,-2.4392,0.2503,0.1646,0.2035,0.1332,0.0,0.0,0.0,0.0,0.0,0.0,0.0,0.0,0.0,0.0,0.1556,0.2344,0.2878,0.4284,0.4957,0.5226,0.5428,0.5428,0.5428,0.5488,0.5675,0.6032,0.6028,0.588,0.5775,0.5564,0.5013,0.4685,0.4574,0.4805,0.5073,0.5273,0.5425,0.5378,0.5113,0.4736,0.4583,0.4284,0.4066,0.3953,0.3843,0.3666,0.3643,0.3626,0.3578,0.3578,0.3578,0.3214,0.2674,0.2406,0.1743,0.0947,0.0609,0.0241,0.0,0.0,0.0,0.0,0.0,0.0,0.0,0.0,0.0,0.0,0.0,0.0,0.0,0.0,0.0,0.0,0.0,0.0,-0.0838,-0.173,-0.2561,-0.3224,-0.4381,-0.5814,-0.6838,-0.7913,-0.9266,-1.0704,-1.2599,-1.4297,-1.5174,-1.5952,-1.6194,-1.6337,-1.6337,-1.638,-1.6769,-1.7409,-1.8131,-1.865,-1.9132,-1.9442,-1.969,-2.007,-2.0583,-2.1023,-2.1446,-2.1869,-2.2254,-2.2608,-2.2947,-2.3212,-2.3437,-2.3588,-2.384,-2.4135,-2.4303,0.18,0.1176,0.1097,0.0706,0.0,0.0,0.0,0.0,0.0,0.0,0.0,0.0,0.0,0.0,0.1476,0.2477,0.2945,0.4084,0.4957,0.5292,0.5428,0.5428,0.5491,0.5749,0.6121,0.6578,0.6826,0.6742,0.6524,0.6321,0.5726,0.5131,0.4787,0.5073,0.5022,0.5437,0.5471,0.5378,0.5113,0.4625,0.4549,0.4317,0.4117,0.3973,0.3863,0.3714,0.3615,0.3578,0.3578,0.3578,0.3534,0.3173,0.2588,0.1966,0.1395,0.0783,0.0,0.0,-0.0255,0.0,0.0,0.0,0.0,0.0,-0.0392,-0.0336,0.0,0.0,0.0,0.0,0.0,0.0,0.0,0.0,0.0,-0.0671,-0.1229,-0.2009,-0.2837,-0.3663,-0.4929,-0.6253,-0.7422,-0.8482,-0.982,-1.1249,-1.2994,-1.4354,-1.4915,-1.5599,-1.5996,-1.6095,-1.6095,-1.6139,-1.6269,-1.7037,-1.7814,-1.8327,-1.8803,-1.9317,-1.966,-2.0004,-2.0449,-2.0926,-2.1385,-2.1764,-2.2113,-2.2473,-2.2625,-2.2721,-2.3069,-2.3482,-2.3714,-2.4037,-2.421,0.0,0.0,0.0,0.0,0.0,0.0,0.0,0.0,0.0,0.0,0.0,0.0,0.0,0.0,0.1141,0.1942,0.2811,0.3747,0.4553,0.5226,0.5428,0.5428,0.562,0.6005,0.6437,0.6872,0.7182,0.7384,0.7325,0.7203,0.6578,0.5648,0.5183,0.5058,0.4625,0.521,0.5475,0.5483,0.5433,0.4948,0.4597,0.4334,0.4209,0.4013,0.3914,0.3771,0.3659,0.3588,0.3581,0.3578,0.3471,0.2934,0.2074,0.1815,0.1199,0.0191,0.0,0.0,-0.0952,-0.0383,-0.0833,-0.1728,-0.1843,-0.1843,-0.1285,-0.1007,-0.0783,0.0,0.0,0.0,0.0,0.0,0.0,0.0,0.0,-0.1285,-0.1786,-0.2287,-0.3171,-0.4216,-0.5588,-0.6902,-0.8066,-0.9266,-1.0543,-1.1994,-1.3585,-1.4446,-1.4732,-1.5141,-1.5543,-1.5644,-1.5644,-1.5776,-1.5983,-1.6799,-1.749,-1.8013,-1.8612,-1.9244,-1.966,-1.9929,-2.0364,-2.0862,-2.1213,-2.1538,-2.1928,-2.2293,-2.2436,-2.2599,-2.3117,-2.3522,-2.3732,-2.3837,-2.3959,0.0,0.0,0.0,0.0,0.0,0.0,0.0,0.0,0.0,0.0,0.0,0.0,0.0,0.0,0.0873,0.1742,0.2678,0.3613,0.4486,0.5292,0.5359,0.5428,0.5557,0.5873,0.649,0.7314,0.777,0.8169,0.8442,0.8122,0.7119,0.6122,0.5317,0.5003,0.5117,0.5445,0.5517,0.5386,0.5113,0.468,0.4512,0.4402,0.4311,0.4117,0.4016,0.3873,0.3731,0.3659,0.3529,0.3449,0.33,0.2555,0.1824,0.1557,0.0875,0.015,0.0,0.0,-0.1413,-0.1609,-0.1667,-0.2341,-0.3019,-0.2961,-0.2065,-0.134,-0.1006,-0.0671,-0.028,0.0,0.0,0.0,0.0,0.0,-0.1229,-0.1842,-0.2399,-0.2843,-0.3561,-0.4824,-0.6091,-0.7534,-0.881,-0.9636,-1.0864,-1.1864,-1.3226,-1.3852,-1.4226,-1.4595,-1.5005,-1.5017,-1.5062,-1.5276,-1.5708,-1.6391,-1.7327,-1.8013,-1.8727,-1.9479,-1.9767,-1.9874,-2.0124,-2.0532,-2.091,-2.1306,-2.1768,-2.2185,-2.2293,-2.2544,-2.2933,-2.3159,-2.3212,-2.3369,-2.3526,0.0,0.0,0.0,0.0,0.0,0.0,0.0,0.0,0.0,0.0,0.0,0.0,0.0,0.0,0.0605,0.1341,0.2277,0.3145,0.4015,0.4888,0.5292,0.5359,0.5428,0.5752,0.6763,0.7644,0.8222,0.8601,0.9266,0.8918,0.7802,0.6379,0.5298,0.5081,0.5124,0.5073,0.5077,0.5007,0.468,0.457,0.446,0.4433,0.4385,0.4204,0.4083,0.4029,0.3794,0.3601,0.3355,0.319,0.2758,0.213,0.1565,0.1139,0.0559,0.0207,-0.0372,-0.0982,-0.1828,-0.2894,-0.301,-0.3176,-0.4086,-0.3802,-0.2843,-0.2287,-0.1619,-0.1174,-0.0672,0.0,0.0,-0.0168,-0.0559,-0.1118,-0.1842,-0.251,-0.2954,-0.3398,-0.4061,-0.5324,-0.6357,-0.7906,-0.934,-1.0151,-1.1015,-1.1922,-1.2764,-1.3246,-1.3721,-1.405,-1.4376,-1.4376,-1.4468,-1.4698,-1.5174,-1.5903,-1.6831,-1.7933,-1.8688,-1.9442,-1.9726,-1.9782,-2.0015,-2.0208,-2.063,-2.1119,-2.1713,-2.2074,-2.2254,-2.2349,-2.2508,-2.2643,-2.2669,-2.2923,-2.3189,0.0,0.0,0.0,0.0,0.0,0.0,0.0,0.0,0.0,0.0,0.0,0.0,0.0,0.0,0.0,0.0605,0.1474,0.241,0.3347,0.4217,0.5024,0.5226,0.562,0.6071,0.6785,0.7767,0.8436,0.8639,0.9816,0.9401,0.8199,0.6839,0.5724,0.5195,0.4798,0.4684,0.4684,0.4625,0.457,0.4463,0.4463,0.4457,0.4399,0.4304,0.4174,0.4042,0.3742,0.3328,0.2975,0.2639,0.2157,0.1561,0.1111,0.0911,0.0518,0.0,-0.0604,-0.1331,-0.2062,-0.3183,-0.391,-0.3849,-0.4239,-0.4012,-0.3566,-0.3065,-0.2454,-0.173,-0.1174,-0.0727,-0.0392,-0.0727,-0.1061,-0.1786,-0.251,-0.301,-0.3398,-0.4009,-0.4725,-0.5601,-0.6529,-0.7865,-0.9392,-1.0372,-1.1065,-1.1774,-1.253,-1.3035,-1.3409,-1.3505,-1.3789,-1.3789,-1.3931,-1.4154,-1.4721,-1.5584,-1.6693,-1.788,-1.8444,-1.908,-1.9369,-1.9726,-1.9889,-2.01,-2.0438,-2.0988,-2.1814,-2.217,-2.2271,-2.2338,-2.2377,-2.2398,-2.2537,-2.2755,-2.3007,0.0,0.0,0.0,0.0,0.0,0.0668,0.1346,0.2026,0.1948,0.1615,0.0908,0.0951,0.0538,0.0,0.0,0.0,0.1341,0.2275,0.3147,0.4082,0.4888,0.5226,0.5491,0.5752,0.6354,0.6951,0.7587,0.8308,0.9125,0.9168,0.8409,0.7033,0.6082,0.5262,0.4743,0.4463,0.4463,0.4463,0.4463,0.4463,0.4463,0.4463,0.4416,0.4328,0.4138,0.3915,0.3352,0.3016,0.264,0.2073,0.1502,0.0996,0.0944,0.0536,0.0055,-0.0055,-0.0613,-0.1285,-0.173,-0.3297,-0.4249,-0.3959,-0.4181,-0.4405,-0.407,-0.3677,-0.3176,-0.2454,-0.1786,-0.1341,-0.1174,-0.1452,-0.1842,-0.251,-0.3123,-0.3511,-0.3846,-0.4233,-0.4952,-0.6041,-0.6912,-0.8078,-0.9555,-1.0364,-1.1065,-1.1724,-1.2335,-1.2842,-1.3152,-1.3238,-1.3286,-1.3334,-1.3467,-1.3695,-1.4607,-1.5516,-1.6709,-1.7786,-1.8352,-1.893,-1.9457,-1.9726,-1.9797,-2.001,-2.0339,-2.1134,-2.2071,-2.2224,-2.2152,-2.2282,-2.2338,-2.2349,-2.2398,-2.2598,-2.2721,0.0,0.0,0.0,0.0213,0.0645,0.1145,0.2094,0.3123,0.29,0.2154,0.1372,0.1283,0.0,0.0,0.0,0.0269,0.0806,0.2078,0.3011,0.3547,0.4821,0.5226,0.5428,0.5495,0.6039,0.644,0.6885,0.7558,0.8424,0.8581,0.7999,0.7131,0.6225,0.5428,0.4794,0.4463,0.4463,0.4463,0.4463,0.4463,0.4463,0.446,0.4349,0.4055,0.3917,0.3468,0.2808,0.2525,0.1942,0.1469,0.0918,0.0543,0.049,0.0166,0.0,0.0,-0.0336,-0.0783,-0.1284,-0.2287,-0.3012,-0.3514,-0.3956,-0.4349,-0.4349,-0.407,-0.3624,-0.3123,-0.251,-0.2009,-0.2065,-0.2176,-0.2676,-0.3234,-0.3624,-0.4012,-0.4236,-0.4405,-0.5336,-0.6426,-0.7498,-0.856,-0.9547,-1.0305,-1.1065,-1.1724,-1.2295,-1.2764,-1.2978,-1.3017,-1.3065,-1.3065,-1.3152,-1.3382,-1.4424,-1.5472,-1.6498,-1.7531,-1.8171,-1.8779,-1.942,-1.9726,-1.9762,-1.998,-2.0243,-2.1053,-2.182,-2.1947,-2.1974,-2.2152,-2.2327,-2.2338,-2.2321,-2.2377,-2.248,0.0,0.0,0.0,0.0479,0.1322,0.1323,0.2228,0.3756,0.2986,0.2265,0.1548,0.1341,0.0806,0.0,0.0,0.0,0.0,0.1877,0.2744,0.2809,0.4619,0.5359,0.5428,0.5428,0.5771,0.6304,0.6688,0.685,0.7703,0.7966,0.7724,0.7043,0.6528,0.566,0.4684,0.4298,0.4187,0.4184,0.4125,0.407,0.4405,0.4405,0.4125,0.3511,0.3335,0.3058,0.2227,0.156,0.1062,0.0783,0.0503,0.0112,0.0,0.0,0.0,0.0,0.0,-0.0392,-0.0727,-0.1395,-0.2062,-0.2841,-0.379,-0.3846,-0.3735,-0.4239,-0.4015,-0.368,-0.3123,-0.2899,-0.2899,-0.2843,-0.3121,-0.3622,-0.4012,-0.4236,-0.4349,-0.4842,-0.5823,-0.6858,-0.7717,-0.8778,-0.9555,-1.032,-1.0864,-1.1625,-1.2138,-1.2618,-1.2929,-1.2929,-1.2929,-1.2978,-1.32,-1.3563,-1.4365,-1.5419,-1.6311,-1.7205,-1.8013,-1.8779,-1.9493,-1.969,-1.9705,-1.9925,-2.0174,-2.0693,-2.1279,-2.1542,-2.1869,-2.218,-2.2327,-2.2327,-2.2327,-2.2327,-2.2338,0.0,0.0,0.0,0.0203,0.0476,0.1017,0.1558,0.203,0.257,0.2495,0.2277,0.1608,0.0806,0.0,0.0,0.0,0.0,0.161,0.2477,0.3145,0.4483,0.5156,0.5362,0.5359,0.5564,0.5631,0.5822,0.626,0.6994,0.7282,0.72,0.6452,0.6057,0.5316,0.4405,0.4021,0.3741,0.3624,0.3289,0.3566,0.4181,0.4294,0.4184,0.3569,0.3234,0.251,0.1786,0.1229,0.0727,0.0336,0.0112,0.0,0.0,0.0,0.0,0.0,0.0,0.0,-0.0336,-0.0614,-0.1172,-0.1561,-0.2173,-0.245,-0.2896,-0.3901,-0.4294,-0.4015,-0.3901,-0.379,-0.3677,-0.3566,-0.3566,-0.3956,-0.4346,-0.4405,-0.4515,-0.5441,-0.6367,-0.7176,-0.799,-0.8784,-0.9562,-1.0115,-1.0712,-1.1216,-1.1715,-1.2178,-1.2764,-1.2978,-1.3065,-1.3152,-1.3457,-1.3909,-1.4641,-1.5353,-1.6293,-1.7246,-1.8171,-1.8893,-1.9566,-1.969,-1.9726,-1.9854,-2.01,-2.0525,-2.0973,-2.145,-2.1768,-2.2094,-2.2327,-2.2327,-2.2327,-2.2327,-2.2327,0.0,0.0,0.0,0.0,0.0,0.0538,0.094,0.1274,0.1476,0.1743,0.2009,0.1474,0.0806,0.0,0.0,0.0,0.0,0.0,0.1877,0.2544,0.3813,0.448,0.4885,0.5156,0.5428,0.5428,0.5488,0.5844,0.6463,0.6529,0.6433,0.6078,0.5613,0.4976,0.4177,0.3574,0.3186,0.2843,0.2341,0.2674,0.3511,0.3456,0.3123,0.2621,0.2176,0.1619,0.1118,0.0615,0.0392,-0.0056,-0.028,-0.0224,0.0,0.0,0.0,0.0,0.0,0.0,0.0,-0.0336,-0.0726,-0.1283,-0.1673,-0.2341,-0.3398,-0.4236,-0.3846,-0.368,-0.4125,-0.4125,-0.4125,-0.407,-0.407,-0.4349,-0.4512,-0.4567,-0.5062,-0.5823,-0.6691,-0.745,-0.8156,-0.8692,-0.9316,-0.9718,-1.0312,-1.0965,-1.1416,-1.208,-1.2608,-1.3152,-1.319,-1.342,-1.3826,-1.4365,-1.5096,-1.5664,-1.6262,-1.7259,-1.821,-1.8855,-1.9406,-1.9603,-1.9726,-1.9818,-1.9925,-2.0204,-2.063,-2.1134,-2.1524,-2.1811,-2.2077,-2.2327,-2.2327,-2.2327,-2.2327,0.0,0.0,0.0,0.0,0.0,0.0,0.0403,0.094,0.0404,0.0471,0.1074,0.114,0.0672,0.0,0.0,0.0,0.0,0.0,0.1341,0.1942,0.3278,0.401,0.4478,0.4746,0.4951,0.5156,0.5289,0.5676,0.6165,0.6055,0.585,0.578,0.5338,0.4707,0.3785,0.3183,0.285,0.2176,0.1785,0.1786,0.1953,0.212,0.1898,0.1507,0.1062,0.0727,0.0224,0.0,0.0,-0.028,-0.0559,-0.0615,-0.0671,-0.0838,-0.0672,0.0,0.0,0.0,-0.0168,-0.0615,-0.1228,-0.1786,-0.2065,-0.2676,-0.368,-0.3846,-0.3456,-0.3677,-0.4125,-0.4405,-0.446,-0.446,-0.446,-0.4515,-0.457,-0.4732,-0.5441,-0.615,-0.6912,-0.7676,-0.8162,-0.8699,-0.9061,-0.9413,-0.9969,-1.0669,-1.1325,-1.2039,-1.2696,-1.3266,-1.36,-1.392,-1.4318,-1.4915,-1.5499,-1.594,-1.6416,-1.6995,-1.7854,-1.8612,-1.9207,-1.9493,-1.9654,-1.9741,-1.9869,-2.0065,-2.0379,-2.0829,-2.1181,-2.1538,-2.1974,-2.2299,-2.2327,-2.2327,-2.2327,0.0,0.0,0.0,0.0,0.0,0.0,0.0135,0.0,0.0,0.0135,0.0,0.0,0.0,0.0,0.0,0.0,0.0,0.0806,0.1207,0.1608,0.2878,0.3609,0.4077,0.4284,0.4273,0.4478,0.4885,0.5397,0.5488,0.5246,0.5132,0.5162,0.4893,0.4291,0.3508,0.2847,0.2181,0.1509,0.0,0.0,0.0,0.1228,0.1675,0.1396,0.1062,0.0615,0.0,0.0,0.0,0.0,-0.0671,-0.095,-0.1173,-0.1396,-0.134,-0.095,-0.0783,-0.056,-0.0615,-0.0839,-0.1396,-0.173,-0.2009,-0.2399,-0.3121,-0.3456,-0.3345,-0.3566,-0.4012,-0.4405,-0.446,-0.446,-0.4463,-0.4463,-0.4515,-0.4893,-0.5437,-0.6263,-0.7031,-0.7676,-0.8215,-0.8593,-0.8857,-0.9263,-0.9666,-1.0312,-1.0864,-1.1633,-1.2754,-1.3362,-1.4003,-1.4376,-1.4778,-1.5129,-1.5588,-1.6095,-1.657,-1.7021,-1.7544,-1.8288,-1.893,-1.9442,-1.9603,-1.969,-1.9762,-1.9889,-2.0243,-2.0565,-2.0943,-2.1337,-2.1945,-2.2282,-2.2282,-2.2327,-2.2327]}]]